Wetterdaten: Samstag, 18.06.2016
Datum Zeit Temp. A. Temp. A. max Feuchte A. Luftdruck Regen Wind Richtung Richtung Sonnenschein ET UV Solar Taupunkt Windben
18.06.2016 00:01 9,9 C 9,5 C 77 % 1016,7 hPa 0,0 mm 0,0 km/h (0 Bft) NW 315 0 min 0,000 mm 0,0 UV-I 0 W/m 6,1 C 0,0 km/h (0 Bft)
18.06.2016 00:06 9,8 C 9,4 C 77 % 1016,7 hPa 0,0 mm 0,0 km/h (0 Bft) O-SO 112 0 min 0,000 mm 0,0 UV-I 0 W/m 6,0 C 0,0 km/h (0 Bft)
18.06.2016 00:11 9,6 C 9,2 C 77 % 1016,9 hPa 0,0 mm 0,0 km/h (0 Bft) W-NW 292 0 min 0,000 mm 0,0 UV-I 0 W/m 5,8 C 0,0 km/h (0 Bft)
18.06.2016 00:16 9,6 C 9,2 C 78 % 1016,9 hPa 0,0 mm 0,0 km/h (0 Bft) N-NW 337 0 min 0,000 mm 0,0 UV-I 0 W/m 6,0 C 0,0 km/h (0 Bft)
18.06.2016 00:21 9,5 C 9,1 C 78 % 1016,9 hPa 0,0 mm 0,0 km/h (0 Bft) N-NW 337 0 min 0,000 mm 0,0 UV-I 0 W/m 5,9 C 0,0 km/h (0 Bft)
18.06.2016 00:26 9,5 C 9,1 C 79 % 1016,9 hPa 0,0 mm 0,0 km/h (0 Bft) N-NW 337 0 min 0,000 mm 0,0 UV-I 0 W/m 6,0 C 0,0 km/h (0 Bft)
18.06.2016 00:31 9,3 C 8,9 C 79 % 1017,1 hPa 0,0 mm 0,0 km/h (0 Bft) NW 315 0 min 0,000 mm 0,0 UV-I 0 W/m 5,8 C 0,0 km/h (0 Bft)
18.06.2016 00:36 9,3 C 8,9 C 79 % 1017,1 hPa 0,0 mm 0,0 km/h (0 Bft) N-NO 22 0 min 0,000 mm 0,0 UV-I 0 W/m 5,8 C 0,0 km/h (0 Bft)
18.06.2016 00:41 9,4 C 9,0 C 79 % 1017,1 hPa 0,0 mm 0,0 km/h (0 Bft) N-NW 337 0 min 0,000 mm 0,0 UV-I 0 W/m 5,9 C 0,0 km/h (0 Bft)
18.06.2016 00:46 9,4 C 9,0 C 80 % 1017,1 hPa 0,0 mm 0,0 km/h (0 Bft) SW 225 0 min 0,000 mm 0,0 UV-I 0 W/m 6,1 C 0,0 km/h (0 Bft)
18.06.2016 00:51 9,4 C 9,1 C 80 % 1017,2 hPa 0,0 mm 0,0 km/h (0 Bft) NO 45 0 min 0,000 mm 0,0 UV-I 0 W/m 6,1 C 0,0 km/h (0 Bft)
18.06.2016 00:56 9,4 C 9,1 C 80 % 1017,2 hPa 0,0 mm 0,0 km/h (0 Bft) W 270 0 min 0,000 mm 0,0 UV-I 0 W/m 6,1 C 0,0 km/h (0 Bft)
18.06.2016 01:01 9,3 C 8,9 C 80 % 1017,2 hPa 0,0 mm 0,0 km/h (0 Bft) W 270 0 min 0,000 mm 0,0 UV-I 0 W/m 6,0 C 0,0 km/h (0 Bft)
18.06.2016 01:06 9,2 C 8,9 C 80 % 1017,2 hPa 0,0 mm 0,0 km/h (0 Bft) NW 315 0 min 0,000 mm 0,0 UV-I 0 W/m 5,9 C 0,0 km/h (0 Bft)
18.06.2016 01:11 9,1 C 8,7 C 80 % 1017,2 hPa 0,0 mm 0,0 km/h (0 Bft) W 270 0 min 0,000 mm 0,0 UV-I 0 W/m 5,8 C 0,0 km/h (0 Bft)
18.06.2016 01:16 9,2 C 8,8 C 81 % 1017,2 hPa 0,0 mm 0,0 km/h (0 Bft) S-SO 157 0 min 0,000 mm 0,0 UV-I 0 W/m 6,1 C 0,0 km/h (0 Bft)
18.06.2016 01:21 9,1 C 8,8 C 81 % 1017,2 hPa 0,0 mm 0,0 km/h (0 Bft) N 360 0 min 0,000 mm 0,0 UV-I 0 W/m 6,0 C 0,0 km/h (0 Bft)
18.06.2016 01:26 9,1 C 8,8 C 81 % 1017,2 hPa 0,0 mm 0,0 km/h (0 Bft) O 90 0 min 0,000 mm 0,0 UV-I 0 W/m 6,0 C 0,0 km/h (0 Bft)
18.06.2016 01:31 9,2 C 8,9 C 82 % 1017,2 hPa 0,0 mm 0,0 km/h (0 Bft) NW 315 0 min 0,000 mm 0,0 UV-I 0 W/m 6,3 C 0,0 km/h (0 Bft)
18.06.2016 01:36 9,3 C 9,0 C 82 % 1017,2 hPa 0,0 mm 0,0 km/h (0 Bft) NW 315 0 min 0,000 mm 0,0 UV-I 0 W/m 6,4 C 0,0 km/h (0 Bft)
18.06.2016 01:41 9,4 C 9,1 C 82 % 1017,2 hPa 0,0 mm 0,0 km/h (0 Bft) N 360 0 min 0,000 mm 0,0 UV-I 0 W/m 6,5 C 0,0 km/h (0 Bft)
18.06.2016 01:46 9,6 C 9,3 C 82 % 1017,2 hPa 0,0 mm 0,0 km/h (0 Bft) W-SW 247 0 min 0,000 mm 0,0 UV-I 0 W/m 6,7 C 0,0 km/h (0 Bft)
18.06.2016 01:51 9,9 C 9,6 C 83 % 1017,3 hPa 0,0 mm 0,0 km/h (0 Bft) NO 45 0 min 0,000 mm 0,0 UV-I 0 W/m 7,2 C 0,0 km/h (0 Bft)
18.06.2016 01:55 9,9 C 9,6 C 83 % 1017,3 hPa 0,0 mm 0,0 km/h (0 Bft) NO 45 0 min 0,000 mm 0,0 UV-I 0 W/m 7,2 C 0,0 km/h (0 Bft)
18.06.2016 02:00 10,0 C 9,8 C 83 % 1017,3 hPa 0,0 mm 0,0 km/h (0 Bft) NO 45 0 min 0,000 mm 0,0 UV-I 0 W/m 7,2 C 0,0 km/h (0 Bft)
18.06.2016 02:05 10,1 C 9,9 C 83 % 1017,3 hPa 0,0 mm 0,0 km/h (0 Bft) N-NO 22 0 min 0,000 mm 0,0 UV-I 0 W/m 7,3 C 0,0 km/h (0 Bft)
18.06.2016 02:10 10,1 C 9,9 C 83 % 1017,3 hPa 0,0 mm 0,0 km/h (0 Bft) NO 45 0 min 0,000 mm 0,0 UV-I 0 W/m 7,3 C 0,0 km/h (0 Bft)
18.06.2016 02:15 10,2 C 10,0 C 83 % 1017,5 hPa 0,0 mm 0,0 km/h (0 Bft) W-SW 247 0 min 0,000 mm 0,0 UV-I 0 W/m 7,4 C 0,0 km/h (0 Bft)
18.06.2016 02:20 10,3 C 10,2 C 83 % 1017,5 hPa 0,0 mm 0,0 km/h (0 Bft) S-SO 157 0 min 0,000 mm 0,0 UV-I 0 W/m 7,5 C 0,0 km/h (0 Bft)
18.06.2016 02:25 10,3 C 10,2 C 82 % 1017,5 hPa 0,0 mm 0,0 km/h (0 Bft) W 270 0 min 0,000 mm 0,0 UV-I 0 W/m 7,4 C 0,0 km/h (0 Bft)
18.06.2016 02:30 10,2 C 10,1 C 82 % 1017,5 hPa 0,0 mm 0,0 km/h (0 Bft) W-NW 292 0 min 0,000 mm 0,0 UV-I 0 W/m 7,3 C 0,0 km/h (0 Bft)
18.06.2016 02:35 10,2 C 10,1 C 82 % 1017,8 hPa 0,0 mm 0,6 km/h (0 Bft) NW 315 0 min 0,000 mm 0,0 UV-I 0 W/m 7,3 C 12,5 km/h (3 Bft)
18.06.2016 02:40 10,0 C 9,9 C 81 % 1017,8 hPa 0,0 mm 2,4 km/h (1 Bft) S-SW 202 0 min 0,000 mm 0,0 UV-I 0 W/m 6,9 C 10,4 km/h (2 Bft)
18.06.2016 02:45 10,1 C 10,0 C 80 % 1017,8 hPa 0,0 mm 4,5 km/h (1 Bft) O-SO 112 0 min 0,000 mm 0,0 UV-I 0 W/m 6,8 C 0,0 km/h (0 Bft)
18.06.2016 02:50 10,2 C 10,1 C 80 % 1017,8 hPa 0,0 mm 3,9 km/h (1 Bft) S 180 0 min 0,000 mm 0,0 UV-I 0 W/m 6,9 C 0,0 km/h (0 Bft)
18.06.2016 02:55 10,4 C 10,3 C 79 % 1017,7 hPa 0,0 mm 3,9 km/h (1 Bft) S 180 0 min 0,000 mm 0,0 UV-I 0 W/m 6,9 C 6,0 km/h (2 Bft)
18.06.2016 03:00 10,4 C 10,3 C 79 % 1017,7 hPa 0,0 mm 3,6 km/h (1 Bft) N-NW 337 0 min 0,000 mm 0,0 UV-I 0 W/m 6,9 C 0,0 km/h (0 Bft)
18.06.2016 03:05 10,3 C 10,2 C 79 % 1017,7 hPa 0,0 mm 2,1 km/h (1 Bft) W-SW 247 0 min 0,000 mm 0,0 UV-I 0 W/m 6,8 C 4,2 km/h (1 Bft)
18.06.2016 03:10 10,2 C 10,1 C 78 % 1017,7 hPa 0,0 mm 0,9 km/h (0 Bft) SO 135 0 min 0,000 mm 0,0 UV-I 0 W/m 6,5 C 0,0 km/h (0 Bft)
18.06.2016 03:15 10,0 C 9,9 C 78 % 1017,6 hPa 0,0 mm 0,6 km/h (0 Bft) S 180 0 min 0,000 mm 0,0 UV-I 0 W/m 6,3 C 0,0 km/h (0 Bft)
18.06.2016 03:20 10,1 C 10,0 C 78 % 1017,6 hPa 0,0 mm 0,6 km/h (0 Bft) W-SW 247 0 min 0,000 mm 0,0 UV-I 0 W/m 6,4 C 4,5 km/h (1 Bft)
18.06.2016 03:25 10,1 C 10,0 C 78 % 1017,6 hPa 0,0 mm 0,9 km/h (0 Bft) SO 135 0 min 0,000 mm 0,0 UV-I 0 W/m 6,4 C 0,0 km/h (0 Bft)
18.06.2016 03:30 10,0 C 9,9 C 78 % 1017,6 hPa 0,0 mm 0,9 km/h (0 Bft) N-NW 337 0 min 0,000 mm 0,0 UV-I 0 W/m 6,3 C 0,0 km/h (0 Bft)
18.06.2016 03:35 9,9 C 9,7 C 78 % 1017,3 hPa 0,0 mm 0,0 km/h (0 Bft) O-NO 67 0 min 0,000 mm 0,0 UV-I 0 W/m 6,2 C 0,0 km/h (0 Bft)
18.06.2016 03:36 9,7 C 9,6 C 78 % 1017,3 hPa 0,0 mm 0,0 km/h (0 Bft) NO 45 0 min 0,000 mm 0,0 UV-I 0 W/m 6,1 C 0,0 km/h (0 Bft)
18.06.2016 03:41 9,5 C 9,3 C 79 % 1017,3 hPa 0,0 mm 0,0 km/h (0 Bft) NO 45 0 min 0,000 mm 0,0 UV-I 0 W/m 6,0 C 0,0 km/h (0 Bft)
18.06.2016 03:46 9,5 C 9,3 C 79 % 1017,3 hPa 0,0 mm 0,0 km/h (0 Bft) O-SO 112 0 min 0,000 mm 0,0 UV-I 0 W/m 6,0 C 0,0 km/h (0 Bft)
18.06.2016 03:49 9,5 C 9,3 C 79 % 1017,3 hPa 0,0 mm 0,0 km/h (0 Bft) O-SO 112 0 min 0,000 mm 0,0 UV-I 0 W/m 6,0 C 0,0 km/h (0 Bft)
18.06.2016 03:51 9,5 C 9,3 C 79 % 1017,1 hPa 0,0 mm 0,0 km/h (0 Bft) N-NO 22 0 min 0,000 mm 0,0 UV-I 0 W/m 6,0 C 0,0 km/h (0 Bft)
18.06.2016 03:52 9,5 C 9,3 C 79 % 1017,1 hPa 0,0 mm 0,0 km/h (0 Bft) N-NO 22 0 min 0,000 mm 0,0 UV-I 0 W/m 6,0 C 0,0 km/h (0 Bft)
18.06.2016 03:55 8,8 C 8,9 C 90 % 1016,3 hPa 0,0 mm 0,4 km/h (0 Bft) S-SW 192 0 min 0,000 mm 0,0 UV-I 0 W/m 7,3 C 3,0 km/h (1 Bft)
18.06.2016 03:56 8,8 C 8,8 C 90 % 1016,3 hPa 0,0 mm 0,0 km/h (0 Bft) N 0 0 min 0,000 mm 0,0 UV-I 0 W/m 7,3 C 0,0 km/h (0 Bft)
18.06.2016 03:57 8,7 C 8,7 C 90 % 1016,3 hPa 0,0 mm 0,0 km/h (0 Bft) N 0 0 min 0,000 mm 0,0 UV-I 0 W/m 7,2 C 0,0 km/h (0 Bft)
18.06.2016 03:58 8,5 C 8,6 C 90 % 1016,3 hPa 0,0 mm 0,0 km/h (0 Bft) N 0 0 min 0,000 mm 0,0 UV-I 0 W/m 7,0 C 0,0 km/h (0 Bft)
18.06.2016 03:59 8,4 C 8,5 C 90 % 1016,3 hPa 0,0 mm 0,0 km/h (0 Bft) S-SW 202 0 min 0,000 mm 0,0 UV-I 0 W/m 6,9 C 3,0 km/h (1 Bft)
18.06.2016 04:00 8,3 C 8,5 C 90 % 1016,2 hPa 0,0 mm 0,0 km/h (0 Bft) S-SW 192 0 min 0,000 mm 0,0 UV-I 0 W/m 6,8 C 0,0 km/h (0 Bft)
18.06.2016 04:01 8,3 C 8,3 C 91 % 1016,2 hPa 0,0 mm 0,0 km/h (0 Bft) S-SW 202 0 min 0,000 mm 0,0 UV-I 0 W/m 6,9 C 3,0 km/h (1 Bft)
18.06.2016 04:05 8,2 C 8,3 C 92 % 1016,2 hPa 0,0 mm 0,4 km/h (0 Bft) S-SW 192 0 min 0,000 mm 0,0 UV-I 0 W/m 7,0 C 3,0 km/h (1 Bft)
18.06.2016 04:06 8,3 C 8,3 C 93 % 1016,2 hPa 0,0 mm 0,0 km/h (0 Bft) S-SW 202 0 min 0,000 mm 0,0 UV-I 0 W/m 7,2 C 3,0 km/h (1 Bft)
18.06.2016 04:07 8,3 C 8,3 C 92 % 1016,3 hPa 0,0 mm 0,0 km/h (0 Bft) S-SW 202 0 min 0,000 mm 0,0 UV-I 0 W/m 7,1 C 3,0 km/h (1 Bft)
18.06.2016 04:08 8,3 C 8,3 C 91 % 1016,3 hPa 0,0 mm 0,0 km/h (0 Bft) S-SW 202 0 min 0,000 mm 0,0 UV-I 0 W/m 6,9 C 3,0 km/h (1 Bft)
18.06.2016 04:09 8,3 C 8,3 C 92 % 1016,3 hPa 0,0 mm 3,0 km/h (1 Bft) S-SW 202 0 min 0,000 mm 0,0 UV-I 0 W/m 7,1 C 6,0 km/h (2 Bft)
18.06.2016 04:10 8,4 C 8,4 C 91 % 1016,3 hPa 0,0 mm 0,0 km/h (0 Bft) S-SW 192 0 min 0,000 mm 0,0 UV-I 0 W/m 7,0 C 0,0 km/h (0 Bft)
18.06.2016 04:11 8,4 C 8,4 C 91 % 1016,3 hPa 0,0 mm 3,0 km/h (1 Bft) S-SW 202 0 min 0,000 mm 0,0 UV-I 0 W/m 7,0 C 6,0 km/h (2 Bft)
18.06.2016 04:12 8,4 C 8,4 C 92 % 1016,2 hPa 0,0 mm 3,0 km/h (1 Bft) N-NW 337 0 min 0,000 mm 0,0 UV-I 0 W/m 7,2 C 6,0 km/h (2 Bft)
18.06.2016 04:13 8,5 C 8,5 C 92 % 1016,2 hPa 0,0 mm 0,0 km/h (0 Bft) N-NW 337 0 min 0,000 mm 0,0 UV-I 0 W/m 7,3 C 3,0 km/h (1 Bft)
18.06.2016 04:15 8,7 C 8,7 C 92 % 1016,2 hPa 0,0 mm 0,1 km/h (0 Bft) N-NW 342 0 min 0,000 mm 0,0 UV-I 0 W/m 7,5 C 3,0 km/h (1 Bft)
18.06.2016 04:20 8,7 C 8,8 C 91 % 1016,2 hPa 0,0 mm 1,0 km/h (0 Bft) N-NW 342 0 min 0,000 mm 0,0 UV-I 0 W/m 7,3 C 3,0 km/h (1 Bft)
18.06.2016 04:25 8,8 C 8,8 C 91 % 1016,2 hPa 0,0 mm 0,3 km/h (0 Bft) N-NW 342 0 min 0,000 mm 0,0 UV-I 0 W/m 7,4 C 3,0 km/h (1 Bft)
18.06.2016 04:30 8,9 C 8,9 C 91 % 1016,2 hPa 0,0 mm 0,6 km/h (0 Bft) N-NW 342 0 min 0,000 mm 0,0 UV-I 0 W/m 7,5 C 3,0 km/h (1 Bft)
18.06.2016 04:35 9,1 C 9,1 C 90 % 1016,2 hPa 0,0 mm 0,9 km/h (0 Bft) N-NW 341 0 min 0,000 mm 0,0 UV-I 0 W/m 7,5 C 3,0 km/h (1 Bft)
18.06.2016 04:40 9,3 C 9,3 C 90 % 1016,2 hPa 0,0 mm 3,8 km/h (1 Bft) W 262 0 min 0,000 mm 0,0 UV-I 0 W/m 7,7 C 8,9 km/h (2 Bft)
18.06.2016 04:45 9,7 C 9,7 C 88 % 1016,2 hPa 0,0 mm 6,9 km/h (2 Bft) W 277 0 min 0,000 mm 0,0 UV-I 0 W/m 7,8 C 11,9 km/h (2 Bft)
18.06.2016 04:50 10,1 C 10,1 C 86 % 1016,3 hPa 0,0 mm 7,3 km/h (2 Bft) W-SW 245 0 min 0,000 mm 0,0 UV-I 0 W/m 7,9 C 17,9 km/h (3 Bft)
18.06.2016 04:55 10,0 C 10,1 C 86 % 1016,2 hPa 0,0 mm 2,6 km/h (1 Bft) W-SW 242 0 min 0,000 mm 0,0 UV-I 0 W/m 7,8 C 8,9 km/h (2 Bft)
18.06.2016 05:00 9,9 C 10,0 C 87 % 1016,3 hPa 0,0 mm 2,2 km/h (1 Bft) SW 214 0 min 0,000 mm 0,0 UV-I 0 W/m 7,8 C 6,0 km/h (2 Bft)
18.06.2016 05:05 9,8 C 9,9 C 88 % 1016,2 hPa 0,0 mm 2,8 km/h (1 Bft) SO 125 0 min 0,000 mm 0,0 UV-I 0 W/m 7,9 C 8,9 km/h (2 Bft)
18.06.2016 05:10 9,8 C 9,8 C 89 % 1016,3 hPa 0,0 mm 1,8 km/h (1 Bft) N-NW 330 0 min 0,000 mm 0,0 UV-I 0 W/m 8,1 C 6,0 km/h (2 Bft)
18.06.2016 05:15 9,8 C 9,8 C 90 % 1016,3 hPa 0,0 mm 2,6 km/h (1 Bft) O-NO 58 0 min 0,000 mm 0,0 UV-I 0 W/m 8,2 C 6,0 km/h (2 Bft)
18.06.2016 05:20 9,8 C 9,9 C 89 % 1016,3 hPa 0,0 mm 3,0 km/h (1 Bft) N-NW 328 0 min 0,000 mm 0,0 UV-I 0 W/m 8,1 C 11,9 km/h (2 Bft)
18.06.2016 05:25 10,1 C 10,1 C 87 % 1016,4 hPa 0,0 mm 1,8 km/h (1 Bft) NW 325 0 min 0,000 mm 0,0 UV-I 5 W/m 8,0 C 11,9 km/h (2 Bft)
18.06.2016 05:30 10,1 C 10,2 C 89 % 1016,4 hPa 0,0 mm 1,1 km/h (1 Bft) NW 325 0 min 0,000 mm 0,0 UV-I 7 W/m 8,4 C 3,0 km/h (1 Bft)
18.06.2016 05:35 10,1 C 10,1 C 89 % 1016,4 hPa 0,0 mm 0,6 km/h (0 Bft) NW 325 0 min 0,000 mm 0,0 UV-I 9 W/m 8,4 C 3,0 km/h (1 Bft)
18.06.2016 05:40 10,1 C 10,1 C 87 % 1016,4 hPa 0,0 mm 1,2 km/h (1 Bft) NW 325 0 min 0,000 mm 0,0 UV-I 9 W/m 8,0 C 3,0 km/h (1 Bft)
18.06.2016 05:45 10,1 C 10,1 C 88 % 1016,5 hPa 0,0 mm 0,8 km/h (0 Bft) NW 325 0 min 0,000 mm 0,0 UV-I 11 W/m 8,2 C 3,0 km/h (1 Bft)
18.06.2016 05:50 9,9 C 10,1 C 89 % 1016,4 hPa 0,0 mm 0,2 km/h (0 Bft) NW 325 0 min 0,000 mm 0,0 UV-I 12 W/m 8,2 C 3,0 km/h (1 Bft)
18.06.2016 05:55 9,9 C 9,9 C 87 % 1016,4 hPa 0,0 mm 3,5 km/h (1 Bft) NW 318 0 min 0,000 mm 0,0 UV-I 18 W/m 7,8 C 8,9 km/h (2 Bft)
18.06.2016 06:00 10,1 C 10,1 C 87 % 1016,5 hPa 0,0 mm 1,3 km/h (1 Bft) NW 319 0 min 0,000 mm 0,0 UV-I 18 W/m 8,0 C 8,9 km/h (2 Bft)
18.06.2016 06:05 9,9 C 10,1 C 88 % 1016,4 hPa 0,0 mm 0,6 km/h (0 Bft) NW 319 0 min 0,000 mm 0,0 UV-I 19 W/m 8,0 C 3,0 km/h (1 Bft)
18.06.2016 06:10 9,8 C 9,9 C 88 % 1016,4 hPa 0,0 mm 1,6 km/h (1 Bft) NW 317 0 min 0,000 mm 0,0 UV-I 23 W/m 7,9 C 6,0 km/h (2 Bft)
18.06.2016 06:15 9,9 C 9,9 C 89 % 1016,5 hPa 0,0 mm 0,1 km/h (0 Bft) NW 317 0 min 0,000 mm 0,0 UV-I 32 W/m 8,2 C 3,0 km/h (1 Bft)
18.06.2016 06:20 9,9 C 9,9 C 89 % 1016,6 hPa 0,0 mm 0,5 km/h (0 Bft) NW 317 0 min 0,000 mm 0,0 UV-I 51 W/m 8,2 C 3,0 km/h (1 Bft)
18.06.2016 06:25 10,3 C 10,3 C 88 % 1016,6 hPa 0,0 mm 2,0 km/h (1 Bft) NW 317 0 min 0,000 mm 0,0 UV-I 70 W/m 8,4 C 6,0 km/h (2 Bft)
18.06.2016 06:30 10,6 C 10,6 C 87 % 1016,6 hPa 0,0 mm 1,2 km/h (1 Bft) NW 322 0 min 0,000 mm 0,0 UV-I 53 W/m 8,5 C 6,0 km/h (2 Bft)
18.06.2016 06:35 10,8 C 10,8 C 89 % 1016,7 hPa 0,0 mm 0,6 km/h (0 Bft) O-NO 78 0 min 0,000 mm 0,0 UV-I 37 W/m 9,1 C 6,0 km/h (2 Bft)
18.06.2016 06:40 10,9 C 10,9 C 88 % 1016,7 hPa 0,0 mm 3,0 km/h (1 Bft) N-NW 344 0 min 0,000 mm 0,0 UV-I 39 W/m 9,0 C 6,0 km/h (2 Bft)
18.06.2016 06:45 11,1 C 11,1 C 88 % 1016,8 hPa 0,0 mm 2,0 km/h (1 Bft) W 276 0 min 0,000 mm 0,0 UV-I 42 W/m 9,2 C 8,9 km/h (2 Bft)
18.06.2016 06:50 11,1 C 11,1 C 86 % 1016,8 hPa 0,0 mm 2,4 km/h (1 Bft) S 177 0 min 0,000 mm 0,0 UV-I 44 W/m 8,8 C 6,0 km/h (2 Bft)
18.06.2016 06:55 11,1 C 11,1 C 85 % 1016,8 hPa 0,0 mm 1,3 km/h (1 Bft) S 177 0 min 0,000 mm 0,0 UV-I 46 W/m 8,7 C 6,0 km/h (2 Bft)
18.06.2016 07:00 11,1 C 11,1 C 86 % 1016,9 hPa 0,0 mm 1,8 km/h (1 Bft) W 281 0 min 0,025 mm 0,0 UV-I 46 W/m 8,8 C 6,0 km/h (2 Bft)
18.06.2016 07:05 11,2 C 11,3 C 87 % 1016,9 hPa 0,0 mm 3,8 km/h (1 Bft) S-SO 167 0 min 0,000 mm 0,0 UV-I 51 W/m 9,1 C 8,9 km/h (2 Bft)
18.06.2016 07:06 11,2 C 11,3 C 88 % 1016,9 hPa 0,0 mm 3,0 km/h (1 Bft) S-SO 157 0 min 0,000 mm 0,0 UV-I 54 W/m 9,3 C 8,9 km/h (2 Bft)
18.06.2016 07:07 11,2 C 11,2 C 87 % 1016,9 hPa 0,0 mm 3,0 km/h (1 Bft) O-SO 112 0 min 0,000 mm 0,0 UV-I 60 W/m 9,1 C 6,0 km/h (2 Bft)
18.06.2016 07:08 11,2 C 11,2 C 88 % 1016,9 hPa 0,0 mm 3,0 km/h (1 Bft) O-SO 112 0 min 0,000 mm 0,0 UV-I 62 W/m 9,3 C 6,0 km/h (2 Bft)
18.06.2016 07:09 11,2 C 11,2 C 87 % 1016,9 hPa 0,0 mm 3,0 km/h (1 Bft) O-SO 112 0 min 0,000 mm 0,0 UV-I 65 W/m 9,1 C 6,0 km/h (2 Bft)
18.06.2016 07:10 11,2 C 11,2 C 86 % 1016,9 hPa 0,0 mm 6,0 km/h (2 Bft) NO 45 0 min 0,000 mm 0,0 UV-I 69 W/m 8,9 C 8,9 km/h (2 Bft)
18.06.2016 07:15 11,4 C 11,4 C 85 % 1016,8 hPa 0,0 mm 3,0 km/h (1 Bft) S-SO 164 0 min 0,000 mm 0,0 UV-I 90 W/m 9,0 C 8,9 km/h (2 Bft)
18.06.2016 07:20 11,6 C 11,6 C 84 % 1016,8 hPa 0,0 mm 1,9 km/h (1 Bft) NW 314 0 min 0,000 mm 0,0 UV-I 88 W/m 9,0 C 6,0 km/h (2 Bft)
18.06.2016 07:25 11,8 C 11,8 C 87 % 1016,9 hPa 0,0 mm 1,9 km/h (1 Bft) W-NW 296 0 min 0,000 mm 0,0 UV-I 79 W/m 9,7 C 6,0 km/h (2 Bft)
18.06.2016 07:30 11,9 C 11,9 C 83 % 1016,9 hPa 0,0 mm 5,0 km/h (1 Bft) W-SW 258 0 min 0,000 mm 0,0 UV-I 69 W/m 9,1 C 14,9 km/h (3 Bft)
18.06.2016 07:35 11,9 C 11,9 C 85 % 1016,8 hPa 0,0 mm 0,9 km/h (0 Bft) W 281 0 min 0,000 mm 0,0 UV-I 58 W/m 9,5 C 6,0 km/h (2 Bft)
18.06.2016 07:40 11,8 C 11,9 C 87 % 1016,8 hPa 0,0 mm 3,4 km/h (1 Bft) O-NO 69 0 min 0,000 mm 0,0 UV-I 56 W/m 9,7 C 6,0 km/h (2 Bft)
18.06.2016 07:45 11,7 C 11,8 C 89 % 1016,8 hPa 0,0 mm 1,5 km/h (1 Bft) O 79 0 min 0,000 mm 0,0 UV-I 67 W/m 9,9 C 6,0 km/h (2 Bft)
18.06.2016 07:50 11,3 C 11,7 C 88 % 1016,8 hPa 0,0 mm 3,8 km/h (1 Bft) W-SW 245 0 min 0,000 mm 0,0 UV-I 69 W/m 9,4 C 8,9 km/h (2 Bft)
18.06.2016 07:55 11,5 C 11,5 C 86 % 1016,9 hPa 0,0 mm 6,3 km/h (2 Bft) N-NW 344 0 min 0,000 mm 0,5 UV-I 83 W/m 9,2 C 20,9 km/h (4 Bft)
18.06.2016 08:00 11,6 C 11,6 C 88 % 1017,0 hPa 0,0 mm 4,2 km/h (1 Bft) W-NW 283 0 min 0,026 mm 0,0 UV-I 79 W/m 9,7 C 8,9 km/h (2 Bft)
18.06.2016 08:05 11,4 C 11,6 C 90 % 1016,9 hPa 0,0 mm 1,7 km/h (1 Bft) SO 128 0 min 0,000 mm 0,0 UV-I 76 W/m 9,8 C 6,0 km/h (2 Bft)
18.06.2016 08:10 11,6 C 11,6 C 90 % 1016,9 hPa 0,0 mm 1,3 km/h (1 Bft) SO 127 0 min 0,000 mm 0,5 UV-I 83 W/m 10,0 C 3,0 km/h (1 Bft)
18.06.2016 08:15 11,7 C 11,7 C 90 % 1016,9 hPa 0,0 mm 0,1 km/h (0 Bft) SO 127 0 min 0,000 mm 0,6 UV-I 102 W/m 10,1 C 3,0 km/h (1 Bft)
18.06.2016 08:20 11,8 C 11,8 C 89 % 1017,0 hPa 0,0 mm 0,9 km/h (0 Bft) SO 127 0 min 0,000 mm 0,7 UV-I 114 W/m 10,0 C 3,0 km/h (1 Bft)
18.06.2016 08:25 12,0 C 12,0 C 88 % 1017,0 hPa 0,0 mm 1,0 km/h (0 Bft) O-NO 71 0 min 0,000 mm 0,8 UV-I 123 W/m 10,1 C 6,0 km/h (2 Bft)
18.06.2016 08:30 12,2 C 12,2 C 88 % 1017,1 hPa 0,0 mm 2,0 km/h (1 Bft) O 84 0 min 0,000 mm 1,0 UV-I 153 W/m 10,3 C 6,0 km/h (2 Bft)
18.06.2016 08:35 12,6 C 12,6 C 86 % 1017,2 hPa 0,0 mm 4,4 km/h (1 Bft) W 275 0 min 0,000 mm 1,1 UV-I 190 W/m 10,3 C 14,9 km/h (3 Bft)
18.06.2016 08:40 12,7 C 12,7 C 85 % 1017,2 hPa 0,0 mm 6,2 km/h (2 Bft) W-SW 255 0 min 0,000 mm 1,2 UV-I 213 W/m 10,2 C 17,9 km/h (3 Bft)
18.06.2016 08:45 13,0 C 13,0 C 83 % 1017,3 hPa 0,0 mm 3,6 km/h (1 Bft) W-NW 286 0 min 0,000 mm 1,3 UV-I 271 W/m 10,2 C 8,9 km/h (2 Bft)
18.06.2016 08:50 13,2 C 13,2 C 79 % 1017,2 hPa 0,0 mm 6,9 km/h (2 Bft) W 271 0 min 0,000 mm 0,9 UV-I 151 W/m 9,6 C 11,9 km/h (2 Bft)
18.06.2016 08:55 13,2 C 13,2 C 78 % 1017,3 hPa 0,0 mm 5,3 km/h (1 Bft) W 261 0 min 0,000 mm 0,9 UV-I 144 W/m 9,4 C 8,9 km/h (2 Bft)
18.06.2016 09:00 13,2 C 13,2 C 78 % 1017,3 hPa 0,0 mm 2,5 km/h (1 Bft) W-NW 288 0 min 0,076 mm 1,2 UV-I 176 W/m 9,4 C 6,0 km/h (2 Bft)
18.06.2016 09:05 13,4 C 13,4 C 77 % 1017,3 hPa 0,0 mm 1,4 km/h (1 Bft) W-NW 288 0 min 0,000 mm 1,5 UV-I 209 W/m 9,5 C 6,0 km/h (2 Bft)
18.06.2016 09:10 13,4 C 13,4 C 78 % 1017,3 hPa 0,0 mm 0,8 km/h (0 Bft) W-NW 288 0 min 0,000 mm 1,9 UV-I 288 W/m 9,6 C 3,0 km/h (1 Bft)
18.06.2016 09:15 13,8 C 13,8 C 80 % 1017,3 hPa 0,0 mm 1,1 km/h (1 Bft) W-NW 288 0 min 0,000 mm 2,0 UV-I 301 W/m 10,4 C 3,0 km/h (1 Bft)
18.06.2016 09:20 14,3 C 14,4 C 75 % 1017,3 hPa 0,0 mm 1,6 km/h (1 Bft) NO 40 0 min 0,000 mm 2,1 UV-I 330 W/m 9,9 C 6,0 km/h (2 Bft)
18.06.2016 09:25 14,6 C 14,6 C 72 % 1017,3 hPa 0,0 mm 2,5 km/h (1 Bft) N-NW 343 0 min 0,000 mm 2,6 UV-I 473 W/m 9,6 C 6,0 km/h (2 Bft)
18.06.2016 09:30 14,8 C 14,8 C 71 % 1017,3 hPa 0,0 mm 2,9 km/h (1 Bft) W-NW 295 0 min 0,000 mm 2,6 UV-I 406 W/m 9,6 C 6,0 km/h (2 Bft)
18.06.2016 09:35 14,9 C 14,9 C 73 % 1017,3 hPa 0,0 mm 1,3 km/h (1 Bft) W-NW 296 0 min 0,000 mm 2,7 UV-I 466 W/m 10,1 C 3,0 km/h (1 Bft)
18.06.2016 09:40 15,4 C 15,4 C 70 % 1017,3 hPa 0,0 mm 6,5 km/h (2 Bft) N-NW 342 5 min 0,000 mm 4,4 UV-I 633 W/m 10,0 C 11,9 km/h (2 Bft)
18.06.2016 09:45 15,8 C 15,8 C 69 % 1017,2 hPa 0,0 mm 7,5 km/h (2 Bft) W-NW 282 0 min 0,000 mm 2,9 UV-I 462 W/m 10,1 C 14,9 km/h (3 Bft)
18.06.2016 09:50 15,9 C 15,9 C 64 % 1017,2 hPa 0,0 mm 8,4 km/h (2 Bft) W 275 0 min 0,000 mm 3,1 UV-I 475 W/m 9,1 C 17,9 km/h (3 Bft)
18.06.2016 09:55 16,2 C 16,3 C 64 % 1017,2 hPa 0,0 mm 12,0 km/h (2 Bft) NW 316 5 min 0,000 mm 3,3 UV-I 527 W/m 9,4 C 23,8 km/h (4 Bft)
18.06.2016 10:00 16,2 C 16,6 C 60 % 1017,2 hPa 0,0 mm 11,3 km/h (2 Bft) W-NW 296 0 min 0,229 mm 2,9 UV-I 383 W/m 8,4 C 29,8 km/h (5 Bft)
18.06.2016 10:05 16,2 C 16,2 C 61 % 1017,2 hPa 0,0 mm 9,4 km/h (2 Bft) W 261 0 min 0,000 mm 3,3 UV-I 492 W/m 8,7 C 20,9 km/h (4 Bft)
18.06.2016 10:10 16,4 C 16,5 C 59 % 1017,1 hPa 0,0 mm 8,3 km/h (2 Bft) NW 320 0 min 0,000 mm 2,5 UV-I 374 W/m 8,4 C 14,9 km/h (3 Bft)
18.06.2016 10:11 16,3 C 16,4 C 58 % 1017,1 hPa 0,0 mm 3,0 km/h (1 Bft) NW 315 0 min 0,000 mm 2,3 UV-I 338 W/m 8,0 C 8,9 km/h (2 Bft)
18.06.2016 10:15 16,1 C 16,4 C 60 % 1017,3 hPa 0,0 mm 8,9 km/h (2 Bft) NW 315 0 min 0,000 mm 1,9 UV-I 258 W/m 8,3 C 17,9 km/h (3 Bft)
18.06.2016 10:20 15,9 C 16,1 C 59 % 1017,4 hPa 0,0 mm 11,3 km/h (2 Bft) W 259 0 min 0,000 mm 1,6 UV-I 213 W/m 7,9 C 23,8 km/h (4 Bft)
18.06.2016 10:25 15,8 C 15,9 C 62 % 1017,4 hPa 0,2 mm 7,9 km/h (2 Bft) NW 304 0 min 0,000 mm 1,7 UV-I 227 W/m 8,5 C 17,9 km/h (3 Bft)
18.06.2016 10:30 15,6 C 15,8 C 62 % 1017,5 hPa 0,0 mm 9,8 km/h (2 Bft) NW 311 0 min 0,000 mm 1,5 UV-I 204 W/m 8,3 C 23,8 km/h (4 Bft)
18.06.2016 10:35 15,4 C 15,6 C 66 % 1017,4 hPa 0,0 mm 7,3 km/h (2 Bft) W 275 0 min 0,000 mm 1,7 UV-I 213 W/m 9,1 C 17,9 km/h (3 Bft)
18.06.2016 10:40 15,6 C 15,6 C 65 % 1017,4 hPa 0,0 mm 10,6 km/h (2 Bft) W 271 0 min 0,000 mm 1,5 UV-I 195 W/m 9,0 C 20,9 km/h (4 Bft)
18.06.2016 10:45 15,4 C 15,6 C 64 % 1017,5 hPa 0,0 mm 11,6 km/h (2 Bft) W-NW 286 0 min 0,000 mm 1,3 UV-I 176 W/m 8,6 C 20,9 km/h (4 Bft)
18.06.2016 10:50 15,3 C 15,4 C 69 % 1017,6 hPa 0,0 mm 6,7 km/h (2 Bft) W-NW 285 0 min 0,000 mm 1,3 UV-I 172 W/m 9,6 C 11,9 km/h (2 Bft)
18.06.2016 10:55 15,2 C 15,3 C 66 % 1017,5 hPa 0,0 mm 9,6 km/h (2 Bft) NW 312 0 min 0,000 mm 1,4 UV-I 188 W/m 8,9 C 20,9 km/h (4 Bft)
18.06.2016 11:00 15,3 C 15,3 C 69 % 1017,6 hPa 0,0 mm 8,2 km/h (2 Bft) W-NW 292 0 min 0,152 mm 1,3 UV-I 172 W/m 9,6 C 17,9 km/h (3 Bft)
18.06.2016 11:05 15,2 C 15,3 C 68 % 1017,6 hPa 0,0 mm 4,5 km/h (1 Bft) NW 306 0 min 0,000 mm 1,2 UV-I 146 W/m 9,3 C 17,9 km/h (3 Bft)
18.06.2016 11:10 15,1 C 15,2 C 69 % 1017,7 hPa 0,0 mm 2,6 km/h (1 Bft) W-SW 238 0 min 0,000 mm 1,2 UV-I 146 W/m 9,5 C 8,9 km/h (2 Bft)
18.06.2016 11:11 15,1 C 15,2 C 71 % 1017,7 hPa 0,0 mm 0,0 km/h (0 Bft) W-SW 247 0 min 0,000 mm 1,2 UV-I 149 W/m 9,9 C 3,0 km/h (1 Bft)
18.06.2016 11:12 15,1 C 15,1 C 70 % 1017,7 hPa 0,0 mm 0,0 km/h (0 Bft) W-SW 247 0 min 0,000 mm 1,2 UV-I 153 W/m 9,7 C 3,0 km/h (1 Bft)
18.06.2016 11:13 15,1 C 15,1 C 71 % 1017,7 hPa 0,0 mm 3,0 km/h (1 Bft) S-SW 202 0 min 0,000 mm 1,3 UV-I 160 W/m 9,9 C 6,0 km/h (2 Bft)
18.06.2016 11:14 15,0 C 15,0 C 68 % 1017,8 hPa 0,0 mm 6,0 km/h (2 Bft) W 270 0 min 0,000 mm 1,3 UV-I 165 W/m 9,1 C 8,9 km/h (2 Bft)
18.06.2016 11:15 14,9 C 15,0 C 70 % 1017,7 hPa 0,0 mm 0,0 km/h (0 Bft) W 270 0 min 0,000 mm 1,3 UV-I 169 W/m 9,5 C 3,0 km/h (1 Bft)
18.06.2016 11:16 14,8 C 14,9 C 71 % 1017,7 hPa 0,0 mm 0,0 km/h (0 Bft) W 270 0 min 0,000 mm 1,4 UV-I 171 W/m 9,6 C 3,0 km/h (1 Bft)
18.06.2016 11:17 14,8 C 14,8 C 72 % 1017,7 hPa 0,0 mm 0,0 km/h (0 Bft) W 270 0 min 0,000 mm 1,4 UV-I 172 W/m 9,8 C 6,0 km/h (2 Bft)
18.06.2016 11:18 14,7 C 14,8 C 75 % 1017,7 hPa 0,0 mm 3,0 km/h (1 Bft) W-SW 247 0 min 0,000 mm 1,3 UV-I 171 W/m 10,3 C 3,0 km/h (1 Bft)
18.06.2016 11:19 14,7 C 14,7 C 72 % 1017,7 hPa 0,0 mm 0,0 km/h (0 Bft) W-SW 247 0 min 0,000 mm 1,3 UV-I 169 W/m 9,7 C 3,0 km/h (1 Bft)
18.06.2016 11:20 14,7 C 14,7 C 77 % 1017,7 hPa 0,0 mm 0,0 km/h (0 Bft) W-SW 247 0 min 0,000 mm 1,3 UV-I 162 W/m 10,7 C 3,0 km/h (1 Bft)
18.06.2016 11:21 14,6 C 14,7 C 74 % 1017,7 hPa 0,0 mm 0,0 km/h (0 Bft) N 0 0 min 0,000 mm 1,2 UV-I 156 W/m 10,0 C 0,0 km/h (0 Bft)
18.06.2016 11:22 14,7 C 14,7 C 74 % 1017,7 hPa 0,0 mm 0,0 km/h (0 Bft) W-SW 247 0 min 0,000 mm 1,2 UV-I 151 W/m 10,1 C 3,0 km/h (1 Bft)
18.06.2016 11:23 14,7 C 14,7 C 74 % 1017,8 hPa 0,0 mm 0,0 km/h (0 Bft) W-SW 247 0 min 0,000 mm 1,1 UV-I 146 W/m 10,1 C 3,0 km/h (1 Bft)
18.06.2016 11:24 14,6 C 14,7 C 77 % 1017,8 hPa 0,0 mm 3,0 km/h (1 Bft) W-SW 247 0 min 0,000 mm 1,1 UV-I 139 W/m 10,6 C 3,0 km/h (1 Bft)
18.06.2016 11:25 14,6 C 14,7 C 77 % 1017,7 hPa 0,0 mm 1,0 km/h (0 Bft) W-SW 239 0 min 0,000 mm 1,0 UV-I 130 W/m 10,6 C 3,0 km/h (1 Bft)
18.06.2016 11:30 14,6 C 14,6 C 75 % 1017,8 hPa 0,0 mm 0,9 km/h (0 Bft) W-SW 239 0 min 0,000 mm 0,9 UV-I 113 W/m 10,2 C 3,0 km/h (1 Bft)
18.06.2016 11:35 14,4 C 14,6 C 76 % 1017,8 hPa 0,0 mm 0,9 km/h (0 Bft) W-SW 239 0 min 0,000 mm 1,0 UV-I 121 W/m 10,2 C 3,0 km/h (1 Bft)
18.06.2016 11:40 14,5 C 14,6 C 77 % 1017,8 hPa 0,0 mm 1,9 km/h (1 Bft) S-SW 192 0 min 0,000 mm 1,1 UV-I 148 W/m 10,5 C 6,0 km/h (2 Bft)
18.06.2016 11:45 14,4 C 14,6 C 76 % 1017,9 hPa 0,0 mm 4,7 km/h (1 Bft) W-SW 252 0 min 0,000 mm 1,2 UV-I 149 W/m 10,2 C 14,9 km/h (3 Bft)
18.06.2016 11:50 14,2 C 14,4 C 75 % 1017,9 hPa 0,0 mm 6,8 km/h (2 Bft) W-NW 298 0 min 0,000 mm 1,5 UV-I 183 W/m 9,8 C 11,9 km/h (2 Bft)
18.06.2016 11:55 14,1 C 14,2 C 76 % 1017,9 hPa 0,0 mm 6,1 km/h (2 Bft) W-NW 302 0 min 0,000 mm 1,7 UV-I 206 W/m 9,9 C 11,9 km/h (2 Bft)
18.06.2016 12:00 13,9 C 14,1 C 79 % 1017,9 hPa 0,0 mm 4,2 km/h (1 Bft) O 90 0 min 0,000 mm 1,7 UV-I 220 W/m 10,3 C 8,9 km/h (2 Bft)
18.06.2016 12:05 13,9 C 14,1 C 76 % 1017,9 hPa 0,0 mm 5,3 km/h (1 Bft) NO 44 0 min 0,102 mm 1,9 UV-I 227 W/m 9,7 C 11,9 km/h (2 Bft)
18.06.2016 12:10 14,0 C 14,0 C 78 % 1018,0 hPa 0,0 mm 2,2 km/h (1 Bft) O-NO 66 0 min 0,000 mm 2,0 UV-I 229 W/m 10,2 C 6,0 km/h (2 Bft)
18.06.2016 12:15 14,0 C 14,1 C 76 % 1017,9 hPa 0,0 mm 3,3 km/h (1 Bft) N-NO 32 0 min 0,000 mm 2,2 UV-I 246 W/m 9,8 C 6,0 km/h (2 Bft)
18.06.2016 12:20 14,2 C 14,2 C 78 % 1017,9 hPa 0,0 mm 4,6 km/h (1 Bft) S-SO 162 0 min 0,000 mm 2,3 UV-I 253 W/m 10,4 C 8,9 km/h (2 Bft)
18.06.2016 12:25 14,2 C 14,3 C 75 % 1017,8 hPa 0,0 mm 2,7 km/h (1 Bft) SO 135 0 min 0,000 mm 2,3 UV-I 253 W/m 9,8 C 8,9 km/h (2 Bft)
18.06.2016 12:30 14,2 C 14,2 C 76 % 1017,8 hPa 0,0 mm 8,0 km/h (2 Bft) S-SO 155 0 min 0,000 mm 2,7 UV-I 294 W/m 10,0 C 20,9 km/h (4 Bft)
18.06.2016 12:35 14,5 C 14,5 C 75 % 1017,7 hPa 0,0 mm 2,4 km/h (1 Bft) S-SW 192 0 min 0,000 mm 3,4 UV-I 411 W/m 10,1 C 6,0 km/h (2 Bft)
18.06.2016 12:40 14,6 C 14,7 C 72 % 1017,7 hPa 0,0 mm 5,9 km/h (2 Bft) S-SW 210 0 min 0,000 mm 3,4 UV-I 390 W/m 9,6 C 14,9 km/h (3 Bft)
18.06.2016 12:41 14,4 C 14,6 C 72 % 1017,7 hPa 0,0 mm 6,0 km/h (2 Bft) S 180 0 min 0,000 mm 3,4 UV-I 404 W/m 9,4 C 11,9 km/h (2 Bft)
18.06.2016 12:42 14,4 C 14,4 C 72 % 1017,7 hPa 0,0 mm 3,0 km/h (1 Bft) S-SO 157 0 min 0,000 mm 3,5 UV-I 413 W/m 9,4 C 6,0 km/h (2 Bft)
18.06.2016 12:43 14,5 C 14,5 C 74 % 1017,7 hPa 0,0 mm 3,0 km/h (1 Bft) O 90 0 min 0,000 mm 3,5 UV-I 427 W/m 9,9 C 6,0 km/h (2 Bft)
18.06.2016 12:45 14,4 C 14,5 C 73 % 1017,6 hPa 0,0 mm 1,9 km/h (1 Bft) N-NW 330 0 min 0,000 mm 3,4 UV-I 410 W/m 9,6 C 3,0 km/h (1 Bft)
18.06.2016 12:50 14,9 C 14,9 C 73 % 1017,7 hPa 0,0 mm 6,3 km/h (2 Bft) N-NO 29 0 min 0,000 mm 2,9 UV-I 360 W/m 10,1 C 11,9 km/h (2 Bft)
18.06.2016 12:55 14,9 C 14,9 C 75 % 1017,5 hPa 0,0 mm 4,1 km/h (1 Bft) W 265 0 min 0,000 mm 2,9 UV-I 345 W/m 10,5 C 8,9 km/h (2 Bft)
18.06.2016 13:00 14,9 C 15,1 C 74 % 1017,4 hPa 0,0 mm 3,3 km/h (1 Bft) NO 39 5 min 0,177 mm 3,9 UV-I 570 W/m 10,3 C 11,9 km/h (2 Bft)
18.06.2016 13:05 15,6 C 15,6 C 73 % 1017,4 hPa 0,0 mm 4,6 km/h (1 Bft) N 350 0 min 0,000 mm 6,2 UV-I 468 W/m 10,8 C 11,9 km/h (2 Bft)
18.06.2016 13:10 15,8 C 15,8 C 71 % 1017,3 hPa 0,0 mm 4,6 km/h (1 Bft) N-NW 337 0 min 0,000 mm 3,5 UV-I 329 W/m 10,6 C 17,9 km/h (3 Bft)
18.06.2016 13:15 15,6 C 15,8 C 71 % 1017,3 hPa 0,0 mm 7,5 km/h (2 Bft) W-SW 242 0 min 0,000 mm 2,9 UV-I 285 W/m 10,4 C 17,9 km/h (3 Bft)
18.06.2016 13:20 15,3 C 15,6 C 73 % 1017,3 hPa 0,0 mm 6,0 km/h (2 Bft) O-NO 70 0 min 0,000 mm 2,7 UV-I 301 W/m 10,5 C 11,9 km/h (2 Bft)
18.06.2016 13:25 15,2 C 15,3 C 73 % 1017,2 hPa 0,0 mm 3,9 km/h (1 Bft) O-NO 69 5 min 0,000 mm 4,0 UV-I 513 W/m 10,4 C 11,9 km/h (2 Bft)
18.06.2016 13:26 15,3 C 15,3 C 76 % 1017,2 hPa 0,0 mm 6,0 km/h (2 Bft) O 90 1 min 0,000 mm 4,9 UV-I 513 W/m 11,1 C 8,9 km/h (2 Bft)
18.06.2016 13:27 15,4 C 15,4 C 73 % 1017,2 hPa 0,0 mm 0,0 km/h (0 Bft) O 90 1 min 0,000 mm 5,1 UV-I 738 W/m 10,6 C 3,0 km/h (1 Bft)
18.06.2016 13:28 15,6 C 15,6 C 74 % 1017,2 hPa 0,0 mm 6,0 km/h (2 Bft) O-NO 67 1 min 0,000 mm 5,4 UV-I 793 W/m 11,0 C 11,9 km/h (2 Bft)
18.06.2016 13:29 15,9 C 15,9 C 75 % 1017,1 hPa 0,0 mm 8,9 km/h (2 Bft) O 90 1 min 0,000 mm 6,0 UV-I 828 W/m 11,5 C 11,9 km/h (2 Bft)
18.06.2016 13:31 16,3 C 16,3 C 72 % 1017,1 hPa 0,0 mm 4,2 km/h (1 Bft) W 259 2 min 0,000 mm 6,5 UV-I 824 W/m 11,2 C 6,0 km/h (2 Bft)
18.06.2016 13:32 16,4 C 16,4 C 72 % 1017,1 hPa 0,0 mm 1,5 km/h (1 Bft) W-SW 240 1 min 0,000 mm 6,6 UV-I 912 W/m 11,3 C 6,0 km/h (2 Bft)
18.06.2016 13:33 16,6 C 16,6 C 68 % 1017,0 hPa 0,0 mm 3,2 km/h (1 Bft) S-SW 209 1 min 0,000 mm 6,6 UV-I 916 W/m 10,7 C 6,0 km/h (2 Bft)
18.06.2016 13:34 16,6 C 16,6 C 69 % 1017,0 hPa 0,0 mm 3,1 km/h (1 Bft) N 360 1 min 0,000 mm 6,7 UV-I 888 W/m 10,9 C 6,0 km/h (2 Bft)
18.06.2016 13:35 16,7 C 16,7 C 69 % 1017,0 hPa 0,0 mm 5,0 km/h (1 Bft) O-NO 64 1 min 0,000 mm 6,9 UV-I 953 W/m 11,0 C 8,9 km/h (2 Bft)
18.06.2016 13:36 16,7 C 16,7 C 68 % 1017,0 hPa 0,0 mm 7,0 km/h (2 Bft) NO 46 1 min 0,000 mm 6,9 UV-I 937 W/m 10,8 C 11,9 km/h (2 Bft)
18.06.2016 13:37 17,0 C 17,0 C 71 % 1017,1 hPa 0,0 mm 8,5 km/h (2 Bft) W 269 1 min 0,000 mm 6,8 UV-I 926 W/m 11,7 C 11,9 km/h (2 Bft)
18.06.2016 13:38 17,2 C 17,2 C 65 % 1017,1 hPa 0,0 mm 6,3 km/h (2 Bft) SO 143 1 min 0,000 mm 6,8 UV-I 918 W/m 10,6 C 11,9 km/h (2 Bft)
18.06.2016 13:39 17,2 C 17,2 C 68 % 1017,0 hPa 0,0 mm 10,1 km/h (2 Bft) W-SW 241 1 min 0,000 mm 6,8 UV-I 921 W/m 11,2 C 11,9 km/h (2 Bft)
18.06.2016 13:40 17,3 C 17,3 C 68 % 1016,9 hPa 0,0 mm 8,1 km/h (2 Bft) N-NW 343 1 min 0,000 mm 6,7 UV-I 891 W/m 11,3 C 11,9 km/h (2 Bft)
18.06.2016 13:46 17,1 C 17,3 C 69 % 1016,9 hPa 0,0 mm 23,8 km/h (4 Bft) O-NO 77 5 min 0,000 mm 6,9 UV-I 947 W/m 11,4 C 23,8 km/h (4 Bft)
18.06.2016 13:47 17,1 C 17,1 C 66 % 1016,9 hPa 0,0 mm 8,9 km/h (2 Bft) O-NO 67 1 min 0,000 mm 6,9 UV-I 944 W/m 10,7 C 14,9 km/h (3 Bft)
18.06.2016 13:48 17,2 C 17,2 C 67 % 1016,9 hPa 0,0 mm 11,9 km/h (2 Bft) O-NO 67 1 min 0,000 mm 6,9 UV-I 958 W/m 11,0 C 17,9 km/h (3 Bft)
18.06.2016 13:49 17,1 C 17,2 C 63 % 1016,9 hPa 0,0 mm 8,9 km/h (2 Bft) SO 135 1 min 0,000 mm 7,0 UV-I 958 W/m 10,0 C 14,9 km/h (3 Bft)
18.06.2016 13:50 17,0 C 17,1 C 66 % 1016,9 hPa 0,0 mm 6,0 km/h (2 Bft) W-NW 292 1 min 0,000 mm 7,0 UV-I 969 W/m 10,6 C 11,9 km/h (2 Bft)
18.06.2016 13:51 16,8 C 17,0 C 64 % 1016,9 hPa 0,0 mm 8,9 km/h (2 Bft) N 360 1 min 0,000 mm 6,9 UV-I 986 W/m 10,0 C 11,9 km/h (2 Bft)
18.06.2016 13:52 16,7 C 16,8 C 64 % 1016,8 hPa 0,0 mm 8,9 km/h (2 Bft) N-NW 337 1 min 0,000 mm 6,6 UV-I 986 W/m 9,9 C 11,9 km/h (2 Bft)
18.06.2016 13:53 16,8 C 16,8 C 65 % 1016,8 hPa 0,0 mm 8,9 km/h (2 Bft) N-NW 337 1 min 0,000 mm 5,2 UV-I 986 W/m 10,2 C 11,9 km/h (2 Bft)
18.06.2016 13:54 16,9 C 16,9 C 65 % 1016,8 hPa 0,0 mm 6,0 km/h (2 Bft) N 360 1 min 0,000 mm 7,2 UV-I 986 W/m 10,3 C 11,9 km/h (2 Bft)
18.06.2016 13:55 17,2 C 17,2 C 67 % 1016,8 hPa 0,0 mm 6,0 km/h (2 Bft) N-NO 22 1 min 0,000 mm 7,1 UV-I 1048 W/m 11,0 C 11,9 km/h (2 Bft)
18.06.2016 13:56 17,3 C 17,3 C 63 % 1016,8 hPa 0,0 mm 8,9 km/h (2 Bft) O-NO 67 1 min 0,000 mm 7,1 UV-I 1041 W/m 10,2 C 11,9 km/h (2 Bft)
18.06.2016 13:57 17,3 C 17,4 C 61 % 1016,8 hPa 0,0 mm 11,9 km/h (2 Bft) O 90 1 min 0,000 mm 7,1 UV-I 1055 W/m 9,7 C 20,9 km/h (4 Bft)
18.06.2016 13:58 17,2 C 17,3 C 61 % 1016,8 hPa 0,0 mm 6,0 km/h (2 Bft) NO 45 1 min 0,000 mm 7,1 UV-I 1074 W/m 9,6 C 17,9 km/h (3 Bft)
18.06.2016 13:59 17,1 C 17,2 C 60 % 1016,8 hPa 0,0 mm 8,9 km/h (2 Bft) N-NW 337 1 min 0,000 mm 6,7 UV-I 993 W/m 9,3 C 11,9 km/h (2 Bft)
18.06.2016 14:00 17,3 C 17,3 C 62 % 1016,7 hPa 0,0 mm 6,0 km/h (2 Bft) N-NO 22 1 min 0,381 mm 6,7 UV-I 1035 W/m 9,9 C 11,9 km/h (2 Bft)
18.06.2016 14:01 17,4 C 17,4 C 61 % 1016,7 hPa 0,0 mm 6,0 km/h (2 Bft) N-NO 22 1 min 0,000 mm 3,1 UV-I 1035 W/m 9,8 C 8,9 km/h (2 Bft)
18.06.2016 14:03 17,3 C 17,4 C 60 % 1016,8 hPa 0,0 mm 13,0 km/h (3 Bft) W-SW 241 0 min 0,000 mm 3,0 UV-I 304 W/m 9,5 C 20,9 km/h (4 Bft)
18.06.2016 14:04 17,2 C 17,3 C 60 % 1016,7 hPa 0,0 mm 6,1 km/h (2 Bft) W 259 0 min 0,000 mm 3,1 UV-I 329 W/m 9,4 C 11,9 km/h (2 Bft)
18.06.2016 14:05 17,2 C 17,2 C 60 % 1016,7 hPa 0,0 mm 6,7 km/h (2 Bft) W 259 0 min 0,000 mm 3,1 UV-I 329 W/m 9,4 C 8,9 km/h (2 Bft)
18.06.2016 14:06 16,9 C 17,2 C 59 % 1016,7 hPa 0,0 mm 6,0 km/h (2 Bft) W 270 0 min 0,000 mm 3,2 UV-I 334 W/m 8,8 C 6,0 km/h (2 Bft)
18.06.2016 14:07 16,8 C 16,9 C 60 % 1016,7 hPa 0,0 mm 3,0 km/h (1 Bft) S-SW 194 0 min 0,000 mm 3,2 UV-I 334 W/m 9,0 C 3,0 km/h (1 Bft)
18.06.2016 14:08 16,7 C 16,8 C 62 % 1016,7 hPa 0,0 mm 0,0 km/h (0 Bft) SO 133 0 min 0,000 mm 3,2 UV-I 306 W/m 9,4 C 0,0 km/h (0 Bft)
18.06.2016 14:09 16,7 C 16,7 C 61 % 1016,7 hPa 0,0 mm 0,0 km/h (0 Bft) SO 133 0 min 0,000 mm 3,0 UV-I 294 W/m 9,1 C 0,0 km/h (0 Bft)
18.06.2016 14:10 16,7 C 16,7 C 64 % 1016,7 hPa 0,0 mm 3,0 km/h (1 Bft) SO 133 0 min 0,000 mm 3,0 UV-I 287 W/m 9,9 C 3,0 km/h (1 Bft)
18.06.2016 14:12 16,8 C 16,8 C 63 % 1016,7 hPa 0,0 mm 6,0 km/h (2 Bft) N-NW 343 0 min 0,000 mm 3,0 UV-I 274 W/m 9,7 C 6,0 km/h (2 Bft)
18.06.2016 14:15 17,0 C 17,0 C 64 % 1016,7 hPa 0,0 mm 6,0 km/h (2 Bft) W 270 0 min 0,000 mm 3,3 UV-I 278 W/m 10,1 C 6,0 km/h (2 Bft)
18.06.2016 14:18 17,2 C 17,2 C 61 % 1016,6 hPa 0,0 mm 10,4 km/h (2 Bft) W-NW 284 0 min 0,000 mm 4,8 UV-I 301 W/m 9,6 C 11,9 km/h (2 Bft)
18.06.2016 14:19 17,2 C 17,2 C 63 % 1016,6 hPa 0,0 mm 6,0 km/h (2 Bft) W 270 0 min 0,000 mm 3,0 UV-I 301 W/m 10,1 C 8,9 km/h (2 Bft)
18.06.2016 14:20 17,1 C 17,2 C 63 % 1016,6 hPa 0,0 mm 3,0 km/h (1 Bft) W-NW 292 0 min 0,000 mm 2,9 UV-I 241 W/m 10,0 C 6,0 km/h (2 Bft)
18.06.2016 14:22 16,9 C 17,2 C 61 % 1016,5 hPa 0,0 mm 8,2 km/h (2 Bft) S 184 0 min 0,000 mm 2,7 UV-I 225 W/m 9,3 C 11,9 km/h (2 Bft)
18.06.2016 14:23 16,8 C 16,9 C 59 % 1016,5 hPa 0,0 mm 6,2 km/h (2 Bft) S-SW 192 0 min 0,000 mm 2,7 UV-I 234 W/m 8,7 C 11,9 km/h (2 Bft)
18.06.2016 14:24 16,8 C 16,8 C 59 % 1016,5 hPa 0,0 mm 4,2 km/h (1 Bft) S-SW 192 0 min 0,000 mm 2,7 UV-I 234 W/m 8,7 C 6,0 km/h (2 Bft)
18.06.2016 14:25 16,6 C 16,8 C 60 % 1016,5 hPa 0,0 mm 4,5 km/h (1 Bft) S-SW 207 0 min 0,000 mm 2,9 UV-I 264 W/m 8,8 C 6,0 km/h (2 Bft)
18.06.2016 14:28 16,6 C 16,6 C 60 % 1016,5 hPa 0,0 mm 3,0 km/h (1 Bft) S-SW 205 0 min 0,000 mm 3,0 UV-I 290 W/m 8,8 C 3,0 km/h (1 Bft)
18.06.2016 14:30 16,6 C 16,6 C 59 % 1016,5 hPa 0,0 mm 3,0 km/h (1 Bft) S 177 0 min 0,000 mm 3,1 UV-I 288 W/m 8,6 C 3,0 km/h (1 Bft)
18.06.2016 14:31 16,5 C 16,6 C 63 % 1016,5 hPa 0,0 mm 1,0 km/h (0 Bft) S 184 0 min 0,000 mm 3,0 UV-I 287 W/m 9,4 C 3,0 km/h (1 Bft)
18.06.2016 14:41 16,6 C 16,6 C 64 % 1016,5 hPa 0,0 mm 0,6 km/h (0 Bft) S-SO 157 0 min 0,000 mm 3,1 UV-I 332 W/m 9,8 C 3,0 km/h (1 Bft)
18.06.2016 14:42 16,7 C 16,7 C 64 % 1016,5 hPa 0,0 mm 0,9 km/h (0 Bft) O-SO 102 0 min 0,000 mm 6,6 UV-I 332 W/m 9,9 C 6,0 km/h (2 Bft)
18.06.2016 14:43 16,9 C 16,9 C 66 % 1016,4 hPa 0,0 mm 3,3 km/h (1 Bft) O 96 0 min 0,000 mm 5,4 UV-I 332 W/m 10,5 C 6,0 km/h (2 Bft)
18.06.2016 14:44 17,0 C 17,0 C 59 % 1016,4 hPa 0,0 mm 7,6 km/h (2 Bft) O-NO 68 0 min 0,000 mm 2,9 UV-I 320 W/m 8,9 C 11,9 km/h (2 Bft)
18.06.2016 14:45 17,0 C 17,0 C 63 % 1016,5 hPa 0,0 mm 3,9 km/h (1 Bft) NO 56 0 min 0,000 mm 2,6 UV-I 295 W/m 9,9 C 6,0 km/h (2 Bft)
18.06.2016 14:46 17,0 C 17,1 C 61 % 1016,5 hPa 0,0 mm 4,9 km/h (1 Bft) O-NO 71 0 min 0,000 mm 2,5 UV-I 281 W/m 9,4 C 8,9 km/h (2 Bft)
18.06.2016 14:47 17,0 C 17,0 C 56 % 1016,4 hPa 0,0 mm 6,9 km/h (2 Bft) SO 131 0 min 0,000 mm 2,4 UV-I 267 W/m 8,2 C 8,9 km/h (2 Bft)
18.06.2016 14:48 16,9 C 17,0 C 58 % 1016,5 hPa 0,0 mm 4,7 km/h (1 Bft) O-SO 105 0 min 0,000 mm 2,3 UV-I 260 W/m 8,6 C 8,9 km/h (2 Bft)
18.06.2016 14:49 16,9 C 16,9 C 60 % 1016,5 hPa 0,0 mm 4,2 km/h (1 Bft) O 94 0 min 0,000 mm 2,3 UV-I 258 W/m 9,1 C 6,0 km/h (2 Bft)
18.06.2016 14:50 16,9 C 16,9 C 58 % 1016,5 hPa 0,0 mm 8,4 km/h (2 Bft) O-NO 75 0 min 0,000 mm 2,2 UV-I 251 W/m 8,6 C 11,9 km/h (2 Bft)
18.06.2016 14:51 16,8 C 16,9 C 58 % 1016,5 hPa 0,0 mm 9,4 km/h (2 Bft) O-NO 61 0 min 0,000 mm 2,2 UV-I 253 W/m 8,5 C 11,9 km/h (2 Bft)
18.06.2016 14:52 16,8 C 16,8 C 55 % 1016,4 hPa 0,0 mm 5,2 km/h (1 Bft) O-NO 73 0 min 0,000 mm 2,2 UV-I 257 W/m 7,7 C 11,9 km/h (2 Bft)
18.06.2016 14:53 16,8 C 16,8 C 60 % 1016,5 hPa 0,0 mm 7,5 km/h (2 Bft) O-NO 74 0 min 0,000 mm 2,2 UV-I 260 W/m 9,0 C 8,9 km/h (2 Bft)
18.06.2016 14:54 16,8 C 16,8 C 60 % 1016,5 hPa 0,0 mm 3,9 km/h (1 Bft) O-NO 74 0 min 0,000 mm 2,2 UV-I 265 W/m 9,0 C 6,0 km/h (2 Bft)
18.06.2016 14:55 16,8 C 16,8 C 57 % 1016,4 hPa 0,0 mm 5,2 km/h (1 Bft) O-SO 122 0 min 0,000 mm 2,3 UV-I 269 W/m 8,2 C 8,9 km/h (2 Bft)
18.06.2016 14:56 16,7 C 16,8 C 56 % 1016,5 hPa 0,0 mm 3,9 km/h (1 Bft) O-SO 123 0 min 0,000 mm 2,3 UV-I 278 W/m 7,9 C 8,9 km/h (2 Bft)
18.06.2016 14:57 16,7 C 16,7 C 56 % 1016,4 hPa 0,0 mm 0,9 km/h (0 Bft) SO 130 0 min 0,000 mm 2,4 UV-I 283 W/m 7,9 C 3,0 km/h (1 Bft)
18.06.2016 14:58 16,7 C 16,7 C 59 % 1016,4 hPa 0,0 mm 0,5 km/h (0 Bft) SO 130 0 min 0,000 mm 2,5 UV-I 294 W/m 8,6 C 3,0 km/h (1 Bft)
18.06.2016 14:59 16,8 C 16,8 C 58 % 1016,4 hPa 0,0 mm 1,4 km/h (1 Bft) SO 130 0 min 0,000 mm 2,6 UV-I 308 W/m 8,5 C 3,0 km/h (1 Bft)
18.06.2016 15:00 16,9 C 16,9 C 57 % 1016,4 hPa 0,0 mm 0,6 km/h (0 Bft) SO 130 0 min 0,000 mm 2,7 UV-I 320 W/m 8,3 C 3,0 km/h (1 Bft)
18.06.2016 15:01 17,0 C 17,0 C 60 % 1016,4 hPa 0,0 mm 1,2 km/h (1 Bft) SO 130 0 min 0,203 mm 4,0 UV-I 392 W/m 9,2 C 3,0 km/h (1 Bft)
18.06.2016 15:02 17,1 C 17,1 C 60 % 1016,4 hPa 0,0 mm 4,0 km/h (1 Bft) SO 135 1 min 0,001 mm 4,0 UV-I 817 W/m 9,3 C 6,0 km/h (2 Bft)
18.06.2016 15:03 17,2 C 17,2 C 58 % 1016,3 hPa 0,0 mm 3,6 km/h (1 Bft) SO 137 1 min 0,000 mm 2,9 UV-I 817 W/m 8,9 C 6,0 km/h (2 Bft)
18.06.2016 15:04 17,3 C 17,3 C 55 % 1016,3 hPa 0,0 mm 3,3 km/h (1 Bft) S-SO 160 0 min 0,000 mm 2,8 UV-I 308 W/m 8,2 C 6,0 km/h (2 Bft)
18.06.2016 15:05 17,3 C 17,3 C 56 % 1016,3 hPa 0,0 mm 1,3 km/h (1 Bft) S-SO 160 0 min 0,000 mm 5,6 UV-I 308 W/m 8,4 C 3,0 km/h (1 Bft)
18.06.2016 15:06 17,3 C 17,3 C 57 % 1016,3 hPa 0,0 mm 3,8 km/h (1 Bft) O-NO 63 0 min 0,000 mm 3,1 UV-I 308 W/m 8,7 C 6,0 km/h (2 Bft)
18.06.2016 15:07 17,2 C 17,3 C 56 % 1016,3 hPa 0,0 mm 6,6 km/h (2 Bft) N 355 0 min 0,000 mm 2,9 UV-I 318 W/m 8,3 C 11,9 km/h (2 Bft)
18.06.2016 15:08 17,2 C 17,2 C 56 % 1016,3 hPa 0,0 mm 9,4 km/h (2 Bft) N 5 0 min 0,000 mm 2,9 UV-I 294 W/m 8,3 C 11,9 km/h (2 Bft)
18.06.2016 15:09 17,3 C 17,3 C 56 % 1016,3 hPa 0,0 mm 6,0 km/h (2 Bft) NW 315 0 min 0,000 mm 3,5 UV-I 352 W/m 8,4 C 8,9 km/h (2 Bft)
18.06.2016 15:10 17,3 C 17,3 C 58 % 1016,2 hPa 0,0 mm 3,0 km/h (1 Bft) N-NW 347 0 min 0,000 mm 5,8 UV-I 352 W/m 9,0 C 6,0 km/h (2 Bft)
18.06.2016 15:11 17,4 C 17,4 C 54 % 1016,2 hPa 0,0 mm 7,5 km/h (2 Bft) NW 311 0 min 0,000 mm 3,2 UV-I 352 W/m 8,0 C 11,9 km/h (2 Bft)
18.06.2016 15:12 17,4 C 17,4 C 52 % 1016,3 hPa 0,0 mm 4,2 km/h (1 Bft) NW 311 0 min 0,000 mm 3,1 UV-I 315 W/m 7,4 C 6,0 km/h (2 Bft)
18.06.2016 15:13 17,4 C 17,4 C 52 % 1016,2 hPa 0,0 mm 2,2 km/h (1 Bft) NW 311 0 min 0,000 mm 4,6 UV-I 345 W/m 7,4 C 3,0 km/h (1 Bft)
18.06.2016 15:14 17,5 C 17,5 C 53 % 1016,2 hPa 0,0 mm 5,0 km/h (1 Bft) O-NO 69 1 min 0,000 mm 5,1 UV-I 823 W/m 7,8 C 8,9 km/h (2 Bft)
18.06.2016 15:15 17,7 C 17,7 C 67 % 1016,2 hPa 0,0 mm 7,2 km/h (2 Bft) N-NO 27 1 min 0,000 mm 5,3 UV-I 821 W/m 11,5 C 8,9 km/h (2 Bft)
18.06.2016 15:16 17,8 C 17,8 C 58 % 1016,1 hPa 0,0 mm 6,0 km/h (2 Bft) N-NO 26 1 min 0,000 mm 5,3 UV-I 766 W/m 9,4 C 11,9 km/h (2 Bft)
18.06.2016 15:17 17,9 C 17,9 C 54 % 1016,1 hPa 0,0 mm 10,8 km/h (2 Bft) O-NO 72 1 min 0,000 mm 5,2 UV-I 738 W/m 8,5 C 14,9 km/h (3 Bft)
18.06.2016 15:18 17,9 C 17,9 C 55 % 1016,1 hPa 0,0 mm 7,7 km/h (2 Bft) O 88 1 min 0,000 mm 5,2 UV-I 749 W/m 8,7 C 8,9 km/h (2 Bft)
18.06.2016 15:19 17,9 C 17,9 C 52 % 1016,1 hPa 0,0 mm 4,2 km/h (1 Bft) SO 146 1 min 0,000 mm 5,3 UV-I 800 W/m 7,9 C 6,0 km/h (2 Bft)
18.06.2016 15:20 17,9 C 17,9 C 51 % 1016,1 hPa 0,0 mm 5,3 km/h (1 Bft) O-NO 76 1 min 0,000 mm 5,5 UV-I 837 W/m 7,6 C 8,9 km/h (2 Bft)
18.06.2016 15:21 17,9 C 17,9 C 53 % 1016,1 hPa 0,0 mm 11,8 km/h (2 Bft) O-NO 61 1 min 0,000 mm 5,7 UV-I 870 W/m 8,2 C 14,9 km/h (3 Bft)
18.06.2016 15:22 17,8 C 17,9 C 52 % 1016,1 hPa 0,0 mm 13,0 km/h (3 Bft) O 82 1 min 0,000 mm 4,4 UV-I 842 W/m 7,8 C 14,9 km/h (3 Bft)
18.06.2016 15:23 17,7 C 17,8 C 53 % 1016,1 hPa 0,0 mm 6,8 km/h (2 Bft) O-SO 117 1 min 0,000 mm 4,1 UV-I 842 W/m 8,0 C 11,9 km/h (2 Bft)
18.06.2016 15:24 17,6 C 17,7 C 52 % 1016,1 hPa 0,0 mm 3,5 km/h (1 Bft) NO 56 1 min 0,000 mm 4,9 UV-I 842 W/m 7,6 C 6,0 km/h (2 Bft)
18.06.2016 15:25 17,6 C 17,6 C 55 % 1016,0 hPa 0,0 mm 7,6 km/h (2 Bft) S-SO 150 1 min 0,000 mm 4,7 UV-I 766 W/m 8,5 C 14,9 km/h (3 Bft)
18.06.2016 15:26 17,7 C 17,7 C 59 % 1016,1 hPa 0,0 mm 4,7 km/h (1 Bft) SO 139 1 min 0,000 mm 5,4 UV-I 766 W/m 9,6 C 11,9 km/h (2 Bft)
18.06.2016 15:27 17,6 C 17,7 C 52 % 1016,1 hPa 0,0 mm 6,0 km/h (2 Bft) NO 42 1 min 0,000 mm 5,4 UV-I 902 W/m 7,6 C 14,9 km/h (3 Bft)
18.06.2016 15:28 17,7 C 17,7 C 54 % 1016,1 hPa 0,0 mm 6,8 km/h (2 Bft) N 360 1 min 0,000 mm 5,6 UV-I 861 W/m 8,3 C 11,9 km/h (2 Bft)
18.06.2016 15:29 17,8 C 17,8 C 52 % 1016,0 hPa 0,0 mm 8,6 km/h (2 Bft) N-NW 328 1 min 0,000 mm 3,8 UV-I 861 W/m 7,8 C 11,9 km/h (2 Bft)
18.06.2016 15:30 17,8 C 17,8 C 53 % 1016,0 hPa 0,0 mm 9,1 km/h (2 Bft) N-NO 14 1 min 0,000 mm 2,8 UV-I 861 W/m 8,1 C 11,9 km/h (2 Bft)
18.06.2016 15:31 17,8 C 17,9 C 52 % 1016,0 hPa 0,0 mm 10,0 km/h (2 Bft) NO 53 0 min 0,000 mm 2,7 UV-I 223 W/m 7,8 C 11,9 km/h (2 Bft)
18.06.2016 15:32 17,8 C 17,8 C 52 % 1016,1 hPa 0,0 mm 9,1 km/h (2 Bft) O-NO 65 0 min 0,000 mm 2,6 UV-I 225 W/m 7,8 C 11,9 km/h (2 Bft)
18.06.2016 15:33 17,6 C 17,8 C 56 % 1016,1 hPa 0,0 mm 8,7 km/h (2 Bft) O-SO 105 0 min 0,000 mm 2,6 UV-I 230 W/m 8,7 C 11,9 km/h (2 Bft)
18.06.2016 15:34 17,4 C 17,6 C 51 % 1016,1 hPa 0,0 mm 4,4 km/h (1 Bft) O-SO 104 0 min 0,000 mm 2,6 UV-I 243 W/m 7,2 C 8,9 km/h (2 Bft)
18.06.2016 15:35 17,3 C 17,4 C 52 % 1016,0 hPa 0,0 mm 3,7 km/h (1 Bft) O 83 0 min 0,000 mm 2,5 UV-I 244 W/m 7,3 C 6,0 km/h (2 Bft)
18.06.2016 15:36 17,3 C 17,3 C 54 % 1016,1 hPa 0,0 mm 2,4 km/h (1 Bft) O 83 0 min 0,000 mm 2,5 UV-I 239 W/m 7,9 C 3,0 km/h (1 Bft)
18.06.2016 15:37 17,3 C 17,3 C 53 % 1016,1 hPa 0,0 mm 0,7 km/h (0 Bft) O 83 0 min 0,000 mm 2,4 UV-I 232 W/m 7,6 C 3,0 km/h (1 Bft)
18.06.2016 15:38 17,3 C 17,3 C 54 % 1016,1 hPa 0,0 mm 0,8 km/h (0 Bft) O 83 0 min 0,000 mm 2,3 UV-I 230 W/m 7,9 C 3,0 km/h (1 Bft)
18.06.2016 15:39 17,3 C 17,3 C 55 % 1016,1 hPa 0,0 mm 1,3 km/h (1 Bft) O 83 0 min 0,000 mm 2,3 UV-I 232 W/m 8,2 C 3,0 km/h (1 Bft)
18.06.2016 15:40 17,2 C 17,3 C 61 % 1016,1 hPa 0,0 mm 3,9 km/h (1 Bft) O-NO 59 0 min 0,000 mm 2,2 UV-I 239 W/m 9,6 C 8,9 km/h (2 Bft)
18.06.2016 15:41 17,2 C 17,2 C 63 % 1016,1 hPa 0,0 mm 5,7 km/h (1 Bft) O-NO 61 0 min 0,000 mm 2,2 UV-I 243 W/m 10,1 C 6,0 km/h (2 Bft)
18.06.2016 15:42 17,2 C 17,2 C 55 % 1016,1 hPa 0,0 mm 4,4 km/h (1 Bft) O-NO 61 0 min 0,000 mm 2,2 UV-I 243 W/m 8,1 C 6,0 km/h (2 Bft)
18.06.2016 15:43 17,2 C 17,2 C 58 % 1016,1 hPa 0,0 mm 3,2 km/h (1 Bft) O-NO 61 0 min 0,000 mm 2,1 UV-I 220 W/m 8,9 C 6,0 km/h (2 Bft)
18.06.2016 15:44 17,2 C 17,2 C 54 % 1016,1 hPa 0,0 mm 2,9 km/h (1 Bft) O-NO 76 0 min 0,000 mm 1,8 UV-I 206 W/m 7,8 C 6,0 km/h (2 Bft)
18.06.2016 15:45 17,2 C 17,2 C 55 % 1016,0 hPa 0,0 mm 2,6 km/h (1 Bft) O-NO 62 0 min 0,000 mm 1,7 UV-I 195 W/m 8,1 C 6,0 km/h (2 Bft)
18.06.2016 15:46 17,3 C 17,3 C 55 % 1016,0 hPa 0,0 mm 0,9 km/h (0 Bft) O-NO 62 0 min 0,000 mm 1,6 UV-I 188 W/m 8,2 C 3,0 km/h (1 Bft)
18.06.2016 15:47 17,3 C 17,3 C 55 % 1016,1 hPa 0,0 mm 1,2 km/h (1 Bft) O-NO 62 0 min 0,000 mm 1,5 UV-I 181 W/m 8,2 C 3,0 km/h (1 Bft)
18.06.2016 15:48 17,3 C 17,3 C 61 % 1016,1 hPa 0,0 mm 1,7 km/h (1 Bft) O 89 0 min 0,000 mm 1,5 UV-I 178 W/m 9,7 C 6,0 km/h (2 Bft)
18.06.2016 15:49 17,2 C 17,3 C 58 % 1016,1 hPa 0,0 mm 3,0 km/h (1 Bft) O 90 0 min 0,000 mm 1,4 UV-I 174 W/m 8,9 C 6,0 km/h (2 Bft)
18.06.2016 15:50 17,1 C 17,1 C 61 % 1016,1 hPa 0,0 mm 3,0 km/h (1 Bft) O-NO 67 0 min 0,000 mm 1,4 UV-I 171 W/m 9,5 C 6,0 km/h (2 Bft)
18.06.2016 15:51 16,9 C 17,1 C 63 % 1016,1 hPa 0,0 mm 3,0 km/h (1 Bft) O-NO 67 0 min 0,000 mm 1,3 UV-I 171 W/m 9,8 C 6,0 km/h (2 Bft)
18.06.2016 15:52 16,9 C 16,9 C 63 % 1016,1 hPa 0,0 mm 0,0 km/h (0 Bft) O-NO 67 0 min 0,000 mm 1,3 UV-I 171 W/m 9,8 C 3,0 km/h (1 Bft)
18.06.2016 15:53 16,9 C 16,9 C 63 % 1016,1 hPa 0,0 mm 6,0 km/h (2 Bft) O-NO 67 0 min 0,000 mm 1,3 UV-I 167 W/m 9,8 C 8,9 km/h (2 Bft)
18.06.2016 15:54 16,9 C 16,9 C 58 % 1016,1 hPa 0,0 mm 6,0 km/h (2 Bft) N-NO 22 0 min 0,000 mm 1,3 UV-I 163 W/m 8,6 C 8,9 km/h (2 Bft)
18.06.2016 15:55 16,9 C 16,9 C 58 % 1016,1 hPa 0,0 mm 3,0 km/h (1 Bft) N 360 0 min 0,000 mm 1,3 UV-I 162 W/m 8,6 C 3,0 km/h (1 Bft)
18.06.2016 15:56 17,1 C 17,1 C 58 % 1016,1 hPa 0,0 mm 0,0 km/h (0 Bft) N 360 0 min 0,000 mm 1,3 UV-I 162 W/m 8,8 C 3,0 km/h (1 Bft)
18.06.2016 15:57 17,1 C 17,1 C 58 % 1016,1 hPa 0,0 mm 3,0 km/h (1 Bft) N 360 0 min 0,000 mm 1,3 UV-I 160 W/m 8,8 C 6,0 km/h (2 Bft)
18.06.2016 15:58 17,1 C 17,2 C 64 % 1016,1 hPa 0,0 mm 3,0 km/h (1 Bft) N 360 0 min 0,000 mm 1,2 UV-I 155 W/m 10,2 C 3,0 km/h (1 Bft)
18.06.2016 15:59 17,1 C 17,2 C 65 % 1016,2 hPa 0,0 mm 3,0 km/h (1 Bft) N-NO 22 0 min 0,000 mm 1,2 UV-I 148 W/m 10,5 C 6,0 km/h (2 Bft)
18.06.2016 16:00 17,1 C 17,1 C 65 % 1016,2 hPa 0,0 mm 3,0 km/h (1 Bft) NO 45 0 min 0,229 mm 1,1 UV-I 142 W/m 10,5 C 3,0 km/h (1 Bft)
18.06.2016 16:01 17,0 C 17,1 C 61 % 1016,1 hPa 0,0 mm 0,0 km/h (0 Bft) NO 45 0 min 0,000 mm 1,1 UV-I 135 W/m 9,4 C 3,0 km/h (1 Bft)
18.06.2016 16:02 16,9 C 17,0 C 61 % 1016,1 hPa 0,0 mm 0,0 km/h (0 Bft) NO 45 0 min 0,000 mm 1,1 UV-I 134 W/m 9,3 C 3,0 km/h (1 Bft)
18.06.2016 16:03 16,9 C 16,9 C 59 % 1016,2 hPa 0,0 mm 0,0 km/h (0 Bft) NO 45 0 min 0,000 mm 1,0 UV-I 132 W/m 8,8 C 3,0 km/h (1 Bft)
18.06.2016 16:04 16,9 C 16,9 C 63 % 1016,1 hPa 0,0 mm 0,0 km/h (0 Bft) NO 45 0 min 0,000 mm 1,0 UV-I 132 W/m 9,8 C 3,0 km/h (1 Bft)
18.06.2016 16:05 16,9 C 16,9 C 63 % 1016,1 hPa 0,0 mm 0,0 km/h (0 Bft) NO 45 0 min 0,000 mm 0,9 UV-I 132 W/m 9,8 C 3,0 km/h (1 Bft)
18.06.2016 16:06 16,9 C 16,9 C 59 % 1016,2 hPa 0,0 mm 0,0 km/h (0 Bft) NO 45 0 min 0,000 mm 0,9 UV-I 132 W/m 8,8 C 3,0 km/h (1 Bft)
18.06.2016 16:07 16,8 C 16,9 C 59 % 1016,1 hPa 0,0 mm 0,0 km/h (0 Bft) NO 45 0 min 0,000 mm 0,9 UV-I 120 W/m 8,7 C 3,0 km/h (1 Bft)
18.06.2016 16:08 16,8 C 16,8 C 64 % 1016,1 hPa 0,0 mm 0,0 km/h (0 Bft) NO 45 0 min 0,000 mm 0,9 UV-I 120 W/m 10,0 C 3,0 km/h (1 Bft)
18.06.2016 16:09 16,9 C 16,9 C 61 % 1016,1 hPa 0,0 mm 0,0 km/h (0 Bft) N 0 0 min 0,000 mm 0,9 UV-I 121 W/m 9,3 C 0,0 km/h (0 Bft)
18.06.2016 16:10 16,9 C 16,9 C 66 % 1016,1 hPa 0,0 mm 0,0 km/h (0 Bft) NO 45 0 min 0,000 mm 0,9 UV-I 123 W/m 10,5 C 3,0 km/h (1 Bft)
18.06.2016 16:11 16,8 C 16,9 C 66 % 1016,0 hPa 0,0 mm 3,0 km/h (1 Bft) NO 45 0 min 0,000 mm 1,0 UV-I 127 W/m 10,4 C 6,0 km/h (2 Bft)
18.06.2016 16:12 16,6 C 16,8 C 66 % 1015,8 hPa 0,0 mm 3,0 km/h (1 Bft) NO 45 0 min 0,000 mm 1,0 UV-I 132 W/m 10,2 C 6,0 km/h (2 Bft)
18.06.2016 16:13 16,5 C 16,6 C 67 % 1015,8 hPa 0,0 mm 3,0 km/h (1 Bft) NO 45 0 min 0,000 mm 1,0 UV-I 134 W/m 10,4 C 6,0 km/h (2 Bft)
18.06.2016 16:14 16,4 C 16,5 C 65 % 1015,8 hPa 0,0 mm 3,0 km/h (1 Bft) NO 45 0 min 0,000 mm 1,0 UV-I 135 W/m 9,8 C 6,0 km/h (2 Bft)
18.06.2016 16:15 16,5 C 16,5 C 66 % 1015,8 hPa 0,0 mm 3,0 km/h (1 Bft) N-NO 22 0 min 0,000 mm 1,0 UV-I 135 W/m 10,1 C 6,0 km/h (2 Bft)
18.06.2016 16:16 16,6 C 16,6 C 69 % 1015,8 hPa 0,0 mm 3,0 km/h (1 Bft) O-NO 67 0 min 0,000 mm 1,0 UV-I 135 W/m 10,9 C 6,0 km/h (2 Bft)
18.06.2016 16:17 16,6 C 16,6 C 70 % 1015,8 hPa 0,0 mm 6,0 km/h (2 Bft) N-NO 22 0 min 0,000 mm 1,0 UV-I 134 W/m 11,1 C 6,0 km/h (2 Bft)
18.06.2016 16:19 16,6 C 16,6 C 65 % 1015,8 hPa 0,0 mm 1,7 km/h (1 Bft) O-NO 78 0 min 0,000 mm 0,9 UV-I 127 W/m 10,0 C 3,0 km/h (1 Bft)
18.06.2016 16:20 16,6 C 16,6 C 63 % 1015,9 hPa 0,0 mm 1,4 km/h (1 Bft) O-NO 78 0 min 0,000 mm 0,9 UV-I 123 W/m 9,5 C 3,0 km/h (1 Bft)
18.06.2016 16:21 16,6 C 16,6 C 64 % 1015,9 hPa 0,0 mm 4,0 km/h (1 Bft) O-NO 66 0 min 0,000 mm 0,9 UV-I 120 W/m 9,8 C 8,9 km/h (2 Bft)
18.06.2016 16:22 16,7 C 16,7 C 60 % 1015,8 hPa 0,0 mm 3,7 km/h (1 Bft) O-NO 68 0 min 0,000 mm 0,9 UV-I 118 W/m 8,9 C 6,0 km/h (2 Bft)
18.06.2016 16:23 16,7 C 16,7 C 62 % 1015,8 hPa 0,0 mm 3,0 km/h (1 Bft) NO 40 0 min 0,000 mm 0,9 UV-I 116 W/m 9,4 C 6,0 km/h (2 Bft)
18.06.2016 16:24 16,7 C 16,7 C 63 % 1015,8 hPa 0,0 mm 4,8 km/h (1 Bft) O-NO 77 0 min 0,000 mm 0,9 UV-I 120 W/m 9,6 C 8,9 km/h (2 Bft)
18.06.2016 16:25 16,7 C 16,7 C 62 % 1015,8 hPa 0,0 mm 8,3 km/h (2 Bft) O-NO 67 0 min 0,000 mm 0,9 UV-I 120 W/m 9,4 C 8,9 km/h (2 Bft)
18.06.2016 16:26 16,6 C 16,7 C 70 % 1015,8 hPa 0,0 mm 5,1 km/h (1 Bft) O-NO 72 0 min 0,000 mm 0,9 UV-I 123 W/m 11,1 C 8,9 km/h (2 Bft)
18.06.2016 16:27 16,5 C 16,6 C 64 % 1015,8 hPa 0,0 mm 2,5 km/h (1 Bft) O-NO 72 0 min 0,000 mm 0,9 UV-I 123 W/m 9,7 C 6,0 km/h (2 Bft)
18.06.2016 16:28 16,4 C 16,6 C 62 % 1015,8 hPa 0,0 mm 2,5 km/h (1 Bft) O-NO 72 0 min 0,000 mm 0,9 UV-I 123 W/m 9,1 C 6,0 km/h (2 Bft)
18.06.2016 16:29 16,5 C 16,5 C 62 % 1015,8 hPa 0,0 mm 3,0 km/h (1 Bft) O-NO 72 0 min 0,000 mm 0,9 UV-I 121 W/m 9,2 C 6,0 km/h (2 Bft)
18.06.2016 16:30 16,5 C 16,5 C 62 % 1015,8 hPa 0,0 mm 3,0 km/h (1 Bft) O-NO 72 0 min 0,000 mm 0,9 UV-I 121 W/m 9,2 C 6,0 km/h (2 Bft)
18.06.2016 16:31 16,5 C 16,5 C 63 % 1015,8 hPa 0,0 mm 1,6 km/h (1 Bft) O-NO 72 0 min 0,000 mm 1,0 UV-I 121 W/m 9,4 C 3,0 km/h (1 Bft)
18.06.2016 16:32 16,4 C 16,5 C 67 % 1015,8 hPa 0,0 mm 4,0 km/h (1 Bft) O-SO 102 0 min 0,000 mm 1,0 UV-I 121 W/m 10,3 C 6,0 km/h (2 Bft)
18.06.2016 16:33 16,4 C 16,4 C 63 % 1015,8 hPa 0,0 mm 0,2 km/h (0 Bft) O-SO 102 0 min 0,000 mm 1,0 UV-I 125 W/m 9,3 C 3,0 km/h (1 Bft)
18.06.2016 16:34 16,4 C 16,4 C 63 % 1015,8 hPa 0,0 mm 2,6 km/h (1 Bft) O-SO 102 0 min 0,000 mm 1,0 UV-I 128 W/m 9,3 C 6,0 km/h (2 Bft)
18.06.2016 16:35 16,4 C 16,4 C 63 % 1015,8 hPa 0,0 mm 2,0 km/h (1 Bft) O-SO 102 0 min 0,000 mm 1,0 UV-I 128 W/m 9,3 C 6,0 km/h (2 Bft)
18.06.2016 16:36 16,4 C 16,4 C 62 % 1015,8 hPa 0,0 mm 3,4 km/h (1 Bft) O-SO 102 0 min 0,000 mm 1,0 UV-I 127 W/m 9,1 C 6,0 km/h (2 Bft)
18.06.2016 16:37 16,4 C 16,4 C 63 % 1015,8 hPa 0,0 mm 1,4 km/h (1 Bft) O-SO 102 0 min 0,000 mm 1,0 UV-I 125 W/m 9,3 C 3,0 km/h (1 Bft)
18.06.2016 16:38 16,4 C 16,4 C 65 % 1015,8 hPa 0,0 mm 1,1 km/h (1 Bft) O-SO 102 0 min 0,000 mm 1,0 UV-I 121 W/m 9,8 C 3,0 km/h (1 Bft)
18.06.2016 16:39 16,3 C 16,4 C 63 % 1015,8 hPa 0,0 mm 3,4 km/h (1 Bft) O-SO 102 0 min 0,000 mm 1,0 UV-I 114 W/m 9,2 C 6,0 km/h (2 Bft)
18.06.2016 16:40 16,3 C 16,3 C 66 % 1015,8 hPa 0,0 mm 5,2 km/h (1 Bft) O-SO 106 0 min 0,000 mm 0,9 UV-I 109 W/m 9,9 C 8,9 km/h (2 Bft)
18.06.2016 16:41 16,2 C 16,3 C 67 % 1015,8 hPa 0,0 mm 4,8 km/h (1 Bft) SO 125 0 min 0,000 mm 0,9 UV-I 104 W/m 10,1 C 6,0 km/h (2 Bft)
18.06.2016 16:42 16,3 C 16,3 C 65 % 1015,8 hPa 0,0 mm 4,8 km/h (1 Bft) SO 125 0 min 0,000 mm 0,9 UV-I 102 W/m 9,7 C 6,0 km/h (2 Bft)
18.06.2016 16:43 16,2 C 16,3 C 66 % 1015,8 hPa 0,0 mm 4,3 km/h (1 Bft) SO 125 0 min 0,000 mm 0,9 UV-I 98 W/m 9,8 C 8,9 km/h (2 Bft)
18.06.2016 16:44 16,1 C 16,2 C 72 % 1015,8 hPa 0,0 mm 3,2 km/h (1 Bft) SO 125 0 min 0,000 mm 0,8 UV-I 95 W/m 11,0 C 6,0 km/h (2 Bft)
18.06.2016 16:45 16,1 C 16,1 C 73 % 1015,8 hPa 0,0 mm 1,6 km/h (1 Bft) SO 125 0 min 0,000 mm 0,8 UV-I 91 W/m 11,3 C 3,0 km/h (1 Bft)
18.06.2016 16:46 16,0 C 16,1 C 72 % 1015,8 hPa 0,0 mm 1,7 km/h (1 Bft) SO 125 0 min 0,000 mm 0,8 UV-I 88 W/m 11,0 C 3,0 km/h (1 Bft)
18.06.2016 16:47 15,9 C 16,0 C 67 % 1015,8 hPa 0,0 mm 1,6 km/h (1 Bft) SO 125 0 min 0,000 mm 0,8 UV-I 84 W/m 9,8 C 3,0 km/h (1 Bft)
18.06.2016 16:48 15,9 C 16,0 C 69 % 1015,8 hPa 0,0 mm 0,2 km/h (0 Bft) SO 125 0 min 0,000 mm 0,8 UV-I 84 W/m 10,2 C 3,0 km/h (1 Bft)
18.06.2016 16:49 15,9 C 15,9 C 69 % 1015,8 hPa 0,0 mm 0,9 km/h (0 Bft) SO 125 0 min 0,000 mm 0,8 UV-I 84 W/m 10,2 C 3,0 km/h (1 Bft)
18.06.2016 16:50 15,9 C 15,9 C 71 % 1015,8 hPa 0,0 mm 0,9 km/h (0 Bft) SO 125 0 min 0,000 mm 0,8 UV-I 84 W/m 10,6 C 3,0 km/h (1 Bft)
18.06.2016 16:51 15,9 C 15,9 C 70 % 1015,8 hPa 0,0 mm 0,9 km/h (0 Bft) SO 125 0 min 0,000 mm 0,8 UV-I 84 W/m 10,4 C 3,0 km/h (1 Bft)
18.06.2016 16:52 15,8 C 15,9 C 70 % 1015,8 hPa 0,0 mm 2,3 km/h (1 Bft) SO 125 0 min 0,000 mm 0,8 UV-I 83 W/m 10,3 C 3,0 km/h (1 Bft)
18.06.2016 16:53 15,8 C 15,8 C 72 % 1015,8 hPa 0,0 mm 0,0 km/h (0 Bft) SO 125 0 min 0,000 mm 0,7 UV-I 77 W/m 10,8 C 0,0 km/h (0 Bft)
18.06.2016 16:54 15,7 C 15,8 C 71 % 1015,8 hPa 0,0 mm 0,2 km/h (0 Bft) SO 125 0 min 0,000 mm 0,7 UV-I 76 W/m 10,5 C 3,0 km/h (1 Bft)
18.06.2016 16:55 15,7 C 15,7 C 70 % 1015,8 hPa 0,0 mm 0,0 km/h (0 Bft) SO 125 0 min 0,000 mm 0,7 UV-I 72 W/m 10,2 C 0,0 km/h (0 Bft)
18.06.2016 16:56 15,6 C 15,7 C 74 % 1015,8 hPa 0,0 mm 1,6 km/h (1 Bft) SO 125 0 min 0,000 mm 0,6 UV-I 70 W/m 11,0 C 3,0 km/h (1 Bft)
18.06.2016 16:57 15,5 C 15,6 C 74 % 1015,8 hPa 0,0 mm 0,4 km/h (0 Bft) SO 125 0 min 0,000 mm 0,6 UV-I 67 W/m 10,9 C 3,0 km/h (1 Bft)
18.06.2016 16:58 15,4 C 15,5 C 73 % 1015,8 hPa 0,0 mm 0,9 km/h (0 Bft) SO 125 0 min 0,000 mm 0,6 UV-I 63 W/m 10,6 C 3,0 km/h (1 Bft)
18.06.2016 16:59 15,4 C 15,4 C 74 % 1015,8 hPa 0,0 mm 0,9 km/h (0 Bft) SO 125 0 min 0,000 mm 0,5 UV-I 54 W/m 10,8 C 3,0 km/h (1 Bft)
18.06.2016 17:00 15,4 C 15,4 C 73 % 1015,8 hPa 0,0 mm 0,7 km/h (0 Bft) SO 125 0 min 0,000 mm 0,0 UV-I 49 W/m 10,6 C 3,0 km/h (1 Bft)
18.06.2016 17:01 15,3 C 15,4 C 72 % 1015,8 hPa 0,0 mm 1,1 km/h (1 Bft) SO 125 0 min 0,075 mm 0,0 UV-I 46 W/m 10,3 C 3,0 km/h (1 Bft)
18.06.2016 17:02 15,3 C 15,3 C 71 % 1015,8 hPa 0,0 mm 0,0 km/h (0 Bft) SO 125 0 min 0,000 mm 0,0 UV-I 40 W/m 10,1 C 0,0 km/h (0 Bft)
18.06.2016 17:03 15,3 C 15,3 C 73 % 1015,8 hPa 0,0 mm 0,4 km/h (0 Bft) SO 125 0 min 0,000 mm 0,0 UV-I 35 W/m 10,5 C 3,0 km/h (1 Bft)
18.06.2016 17:04 15,3 C 15,3 C 73 % 1015,8 hPa 0,0 mm 0,5 km/h (0 Bft) SO 125 0 min 0,000 mm 0,0 UV-I 32 W/m 10,5 C 3,0 km/h (1 Bft)
18.06.2016 17:05 15,3 C 15,3 C 74 % 1015,8 hPa 0,0 mm 0,7 km/h (0 Bft) SO 125 0 min 0,000 mm 0,0 UV-I 25 W/m 10,7 C 3,0 km/h (1 Bft)
18.06.2016 17:06 15,3 C 15,3 C 73 % 1015,8 hPa 0,0 mm 0,4 km/h (0 Bft) SO 125 0 min 0,000 mm 0,0 UV-I 21 W/m 10,5 C 3,0 km/h (1 Bft)
18.06.2016 17:07 15,2 C 15,3 C 75 % 1015,8 hPa 0,0 mm 1,9 km/h (1 Bft) SO 125 0 min 0,000 mm 0,0 UV-I 19 W/m 10,8 C 3,0 km/h (1 Bft)
18.06.2016 17:08 15,2 C 15,2 C 73 % 1015,8 hPa 0,0 mm 3,1 km/h (1 Bft) SO 125 0 min 0,000 mm 0,0 UV-I 19 W/m 10,4 C 6,0 km/h (2 Bft)
18.06.2016 17:09 15,2 C 15,2 C 73 % 1015,9 hPa 0,0 mm 3,0 km/h (1 Bft) S-SO 158 0 min 0,000 mm 0,0 UV-I 16 W/m 10,4 C 6,0 km/h (2 Bft)
18.06.2016 17:10 15,2 C 15,2 C 75 % 1015,9 hPa 0,0 mm 5,3 km/h (1 Bft) W-SW 241 0 min 0,000 mm 0,0 UV-I 14 W/m 10,8 C 8,9 km/h (2 Bft)
18.06.2016 17:11 15,2 C 15,2 C 72 % 1016,0 hPa 0,0 mm 12,0 km/h (2 Bft) S-SO 167 0 min 0,000 mm 0,0 UV-I 12 W/m 10,2 C 20,9 km/h (4 Bft)
18.06.2016 17:12 15,2 C 15,2 C 69 % 1016,1 hPa 0,0 mm 8,2 km/h (2 Bft) W-NW 283 0 min 0,000 mm 0,0 UV-I 12 W/m 9,6 C 17,9 km/h (3 Bft)
18.06.2016 17:13 15,2 C 15,2 C 71 % 1016,1 hPa 0,0 mm 10,4 km/h (2 Bft) W-SW 239 0 min 0,000 mm 0,0 UV-I 12 W/m 10,0 C 20,9 km/h (4 Bft)
18.06.2016 17:14 15,2 C 15,2 C 72 % 1016,1 hPa 0,0 mm 16,5 km/h (3 Bft) W 279 0 min 0,000 mm 0,0 UV-I 12 W/m 10,2 C 20,9 km/h (4 Bft)
18.06.2016 17:15 15,1 C 15,2 C 70 % 1016,2 hPa 0,0 mm 14,3 km/h (3 Bft) W 273 0 min 0,000 mm 0,0 UV-I 12 W/m 9,7 C 20,9 km/h (4 Bft)
18.06.2016 17:16 15,0 C 15,1 C 74 % 1016,2 hPa 0,0 mm 6,6 km/h (2 Bft) SW 223 0 min 0,000 mm 0,0 UV-I 12 W/m 10,4 C 14,9 km/h (3 Bft)
18.06.2016 17:17 14,9 C 15,0 C 73 % 1016,2 hPa 0,2 mm 8,2 km/h (2 Bft) W 273 0 min 0,000 mm 0,0 UV-I 12 W/m 10,1 C 20,9 km/h (4 Bft)
18.06.2016 17:18 14,7 C 14,9 C 76 % 1016,3 hPa 0,2 mm 14,4 km/h (3 Bft) SW 216 0 min 0,000 mm 0,0 UV-I 12 W/m 10,5 C 26,8 km/h (4 Bft)
18.06.2016 17:19 14,5 C 14,7 C 76 % 1016,4 hPa 0,2 mm 9,2 km/h (2 Bft) W-SW 253 0 min 0,000 mm 0,0 UV-I 12 W/m 10,3 C 11,9 km/h (2 Bft)
18.06.2016 17:20 14,3 C 14,5 C 78 % 1016,5 hPa 0,0 mm 11,8 km/h (2 Bft) W 278 0 min 0,000 mm 0,0 UV-I 14 W/m 10,5 C 20,9 km/h (4 Bft)
18.06.2016 17:21 14,1 C 14,3 C 81 % 1016,5 hPa 0,8 mm 8,9 km/h (2 Bft) W 270 0 min 0,000 mm 0,0 UV-I 16 W/m 10,9 C 17,9 km/h (3 Bft)
18.06.2016 17:22 13,8 C 14,0 C 80 % 1016,5 hPa 0,4 mm 6,0 km/h (2 Bft) W-SW 247 0 min 0,000 mm 0,0 UV-I 18 W/m 10,4 C 11,9 km/h (2 Bft)
18.06.2016 17:23 13,7 C 13,8 C 82 % 1016,6 hPa 0,4 mm 11,9 km/h (2 Bft) SW 225 0 min 0,000 mm 0,0 UV-I 19 W/m 10,7 C 23,8 km/h (4 Bft)
18.06.2016 17:24 13,5 C 13,6 C 81 % 1016,6 hPa 0,6 mm 8,9 km/h (2 Bft) S-SW 202 0 min 0,000 mm 0,0 UV-I 19 W/m 10,3 C 17,9 km/h (3 Bft)
18.06.2016 17:25 13,3 C 13,4 C 81 % 1016,6 hPa 0,8 mm 6,0 km/h (2 Bft) SW 225 0 min 0,000 mm 0,0 UV-I 21 W/m 10,1 C 11,9 km/h (2 Bft)
18.06.2016 17:26 13,1 C 13,3 C 83 % 1016,6 hPa 0,4 mm 6,0 km/h (2 Bft) SW 225 0 min 0,000 mm 0,0 UV-I 21 W/m 10,3 C 8,9 km/h (2 Bft)
18.06.2016 17:27 12,9 C 13,1 C 84 % 1016,7 hPa 0,2 mm 3,0 km/h (1 Bft) S 180 0 min 0,000 mm 0,0 UV-I 23 W/m 10,3 C 6,0 km/h (2 Bft)
18.06.2016 17:28 12,7 C 12,8 C 84 % 1016,6 hPa 0,2 mm 3,0 km/h (1 Bft) S-SW 202 0 min 0,000 mm 0,0 UV-I 23 W/m 10,1 C 6,0 km/h (2 Bft)
18.06.2016 17:29 12,6 C 12,7 C 85 % 1016,7 hPa 0,2 mm 3,0 km/h (1 Bft) SW 225 0 min 0,000 mm 0,0 UV-I 25 W/m 10,1 C 6,0 km/h (2 Bft)
18.06.2016 17:30 12,4 C 12,6 C 85 % 1016,7 hPa 0,0 mm 0,0 km/h (0 Bft) S 180 0 min 0,000 mm 0,0 UV-I 26 W/m 9,9 C 3,0 km/h (1 Bft)
18.06.2016 17:31 12,3 C 12,4 C 86 % 1016,8 hPa 0,2 mm 6,0 km/h (2 Bft) W 270 0 min 0,000 mm 0,0 UV-I 28 W/m 10,0 C 8,9 km/h (2 Bft)
18.06.2016 17:32 12,2 C 12,3 C 87 % 1016,8 hPa 0,2 mm 3,0 km/h (1 Bft) S 180 0 min 0,000 mm 0,0 UV-I 30 W/m 10,1 C 6,0 km/h (2 Bft)
18.06.2016 17:33 12,1 C 12,2 C 88 % 1016,9 hPa 0,2 mm 3,0 km/h (1 Bft) S 180 0 min 0,000 mm 0,0 UV-I 32 W/m 10,2 C 6,0 km/h (2 Bft)
18.06.2016 17:34 12,0 C 12,1 C 89 % 1016,9 hPa 0,4 mm 3,0 km/h (1 Bft) S-SO 157 0 min 0,000 mm 0,0 UV-I 35 W/m 10,2 C 6,0 km/h (2 Bft)
18.06.2016 17:35 11,9 C 12,0 C 90 % 1016,9 hPa 0,6 mm 6,0 km/h (2 Bft) O-SO 112 0 min 0,000 mm 0,0 UV-I 39 W/m 10,3 C 8,9 km/h (2 Bft)
18.06.2016 17:36 11,9 C 11,9 C 91 % 1016,8 hPa 0,4 mm 6,0 km/h (2 Bft) SO 135 0 min 0,000 mm 0,0 UV-I 42 W/m 10,5 C 6,0 km/h (2 Bft)
18.06.2016 17:37 11,8 C 11,8 C 90 % 1016,8 hPa 0,6 mm 6,0 km/h (2 Bft) S 180 0 min 0,000 mm 0,0 UV-I 46 W/m 10,2 C 8,9 km/h (2 Bft)
18.06.2016 17:38 11,7 C 11,8 C 91 % 1016,9 hPa 0,2 mm 8,9 km/h (2 Bft) SO 135 0 min 0,000 mm 0,0 UV-I 51 W/m 10,3 C 11,9 km/h (2 Bft)
18.06.2016 17:39 11,7 C 11,7 C 89 % 1016,8 hPa 0,6 mm 8,9 km/h (2 Bft) O 90 0 min 0,000 mm 0,0 UV-I 56 W/m 9,9 C 11,9 km/h (2 Bft)
18.06.2016 17:40 11,7 C 11,7 C 91 % 1016,8 hPa 0,2 mm 8,9 km/h (2 Bft) O 90 0 min 0,000 mm 0,0 UV-I 65 W/m 10,3 C 11,9 km/h (2 Bft)
18.06.2016 17:41 11,6 C 11,6 C 91 % 1016,8 hPa 0,0 mm 8,9 km/h (2 Bft) O-NO 67 0 min 0,000 mm 0,0 UV-I 67 W/m 10,2 C 11,9 km/h (2 Bft)
18.06.2016 17:42 11,6 C 11,6 C 91 % 1016,8 hPa 0,0 mm 8,9 km/h (2 Bft) O-SO 112 0 min 0,000 mm 0,0 UV-I 69 W/m 10,2 C 11,9 km/h (2 Bft)
18.06.2016 17:43 11,5 C 11,5 C 91 % 1016,9 hPa 0,0 mm 6,0 km/h (2 Bft) SO 135 0 min 0,000 mm 0,0 UV-I 69 W/m 10,1 C 8,9 km/h (2 Bft)
18.06.2016 17:44 11,5 C 11,5 C 91 % 1016,9 hPa 0,0 mm 3,0 km/h (1 Bft) SO 135 0 min 0,000 mm 0,0 UV-I 70 W/m 10,1 C 6,0 km/h (2 Bft)
18.06.2016 17:45 11,4 C 11,4 C 89 % 1016,9 hPa 0,0 mm 6,0 km/h (2 Bft) O-SO 112 0 min 0,000 mm 0,0 UV-I 69 W/m 9,7 C 8,9 km/h (2 Bft)
18.06.2016 17:46 11,4 C 11,5 C 90 % 1016,9 hPa 0,0 mm 6,0 km/h (2 Bft) O-SO 112 0 min 0,000 mm 0,0 UV-I 69 W/m 9,8 C 8,9 km/h (2 Bft)
18.06.2016 17:47 11,4 C 11,5 C 91 % 1016,9 hPa 0,0 mm 3,0 km/h (1 Bft) O-SO 112 0 min 0,000 mm 0,0 UV-I 69 W/m 10,0 C 6,0 km/h (2 Bft)
18.06.2016 17:48 11,5 C 11,5 C 91 % 1016,9 hPa 0,0 mm 3,0 km/h (1 Bft) SO 135 0 min 0,000 mm 0,0 UV-I 70 W/m 10,1 C 6,0 km/h (2 Bft)
18.06.2016 17:49 11,4 C 11,4 C 92 % 1016,8 hPa 0,2 mm 3,0 km/h (1 Bft) SO 135 0 min 0,000 mm 0,0 UV-I 70 W/m 10,1 C 6,0 km/h (2 Bft)
18.06.2016 17:50 11,4 C 11,4 C 92 % 1016,9 hPa 0,0 mm 6,0 km/h (2 Bft) SO 135 0 min 0,000 mm 0,0 UV-I 72 W/m 10,1 C 8,9 km/h (2 Bft)
18.06.2016 17:51 11,4 C 11,4 C 93 % 1016,8 hPa 0,0 mm 6,0 km/h (2 Bft) O-NO 67 0 min 0,000 mm 0,0 UV-I 72 W/m 10,3 C 8,9 km/h (2 Bft)
18.06.2016 17:52 11,4 C 11,4 C 93 % 1016,8 hPa 0,0 mm 6,0 km/h (2 Bft) O-NO 67 0 min 0,000 mm 0,0 UV-I 74 W/m 10,3 C 6,0 km/h (2 Bft)
18.06.2016 17:53 11,4 C 11,4 C 93 % 1016,8 hPa 0,0 mm 6,0 km/h (2 Bft) O 90 0 min 0,000 mm 0,0 UV-I 74 W/m 10,3 C 8,9 km/h (2 Bft)
18.06.2016 17:54 11,4 C 11,5 C 92 % 1016,8 hPa 0,0 mm 8,9 km/h (2 Bft) SO 135 0 min 0,000 mm 0,0 UV-I 74 W/m 10,1 C 11,9 km/h (2 Bft)
18.06.2016 17:55 11,5 C 11,5 C 91 % 1016,8 hPa 0,0 mm 6,0 km/h (2 Bft) SO 135 0 min 0,000 mm 0,0 UV-I 76 W/m 10,1 C 8,9 km/h (2 Bft)
18.06.2016 17:56 11,5 C 11,5 C 92 % 1016,8 hPa 0,0 mm 6,0 km/h (2 Bft) SO 135 0 min 0,000 mm 0,0 UV-I 76 W/m 10,2 C 8,9 km/h (2 Bft)
18.06.2016 17:57 11,6 C 11,6 C 92 % 1016,7 hPa 0,0 mm 6,0 km/h (2 Bft) S-SO 157 0 min 0,000 mm 0,0 UV-I 77 W/m 10,3 C 8,9 km/h (2 Bft)
18.06.2016 17:58 11,6 C 11,6 C 92 % 1016,7 hPa 0,0 mm 3,0 km/h (1 Bft) S-SO 157 0 min 0,000 mm 0,0 UV-I 77 W/m 10,3 C 6,0 km/h (2 Bft)
18.06.2016 17:59 11,6 C 11,6 C 92 % 1016,7 hPa 0,0 mm 3,0 km/h (1 Bft) S-SO 157 0 min 0,000 mm 0,5 UV-I 77 W/m 10,3 C 6,0 km/h (2 Bft)
18.06.2016 18:00 11,6 C 11,6 C 92 % 1016,7 hPa 0,0 mm 3,0 km/h (1 Bft) SO 135 0 min 0,025 mm 0,5 UV-I 77 W/m 10,3 C 6,0 km/h (2 Bft)
18.06.2016 18:01 11,6 C 11,6 C 92 % 1016,7 hPa 0,0 mm 3,0 km/h (1 Bft) SO 135 0 min 0,000 mm 0,5 UV-I 77 W/m 10,3 C 6,0 km/h (2 Bft)
18.06.2016 18:02 11,6 C 11,6 C 92 % 1016,8 hPa 0,0 mm 3,0 km/h (1 Bft) SO 135 0 min 0,000 mm 0,5 UV-I 77 W/m 10,3 C 6,0 km/h (2 Bft)
18.06.2016 18:03 11,6 C 11,6 C 92 % 1016,8 hPa 0,0 mm 6,0 km/h (2 Bft) S-SO 157 0 min 0,000 mm 0,5 UV-I 79 W/m 10,3 C 11,9 km/h (2 Bft)
18.06.2016 18:04 11,6 C 11,6 C 92 % 1016,8 hPa 0,0 mm 8,9 km/h (2 Bft) S 180 0 min 0,000 mm 0,5 UV-I 81 W/m 10,3 C 11,9 km/h (2 Bft)
18.06.2016 18:05 11,6 C 11,6 C 91 % 1016,8 hPa 0,0 mm 3,0 km/h (1 Bft) S 180 0 min 0,000 mm 0,5 UV-I 83 W/m 10,2 C 8,9 km/h (2 Bft)
18.06.2016 18:06 11,6 C 11,6 C 92 % 1016,8 hPa 0,0 mm 0,0 km/h (0 Bft) S 180 0 min 0,000 mm 0,5 UV-I 84 W/m 10,3 C 3,0 km/h (1 Bft)
18.06.2016 18:07 11,6 C 11,6 C 92 % 1016,8 hPa 0,0 mm 3,0 km/h (1 Bft) S 180 0 min 0,000 mm 0,5 UV-I 86 W/m 10,3 C 3,0 km/h (1 Bft)
18.06.2016 18:08 11,6 C 11,6 C 92 % 1016,8 hPa 0,0 mm 3,0 km/h (1 Bft) S 180 0 min 0,000 mm 0,5 UV-I 86 W/m 10,3 C 3,0 km/h (1 Bft)
18.06.2016 18:09 11,6 C 11,6 C 92 % 1016,8 hPa 0,0 mm 3,0 km/h (1 Bft) S 180 0 min 0,000 mm 0,5 UV-I 88 W/m 10,3 C 6,0 km/h (2 Bft)
18.06.2016 18:10 11,7 C 11,7 C 93 % 1016,8 hPa 0,0 mm 3,0 km/h (1 Bft) S 180 0 min 0,000 mm 0,6 UV-I 90 W/m 10,6 C 3,0 km/h (1 Bft)
18.06.2016 18:11 11,7 C 11,7 C 93 % 1016,8 hPa 0,0 mm 3,0 km/h (1 Bft) S 180 0 min 0,000 mm 0,6 UV-I 90 W/m 10,6 C 6,0 km/h (2 Bft)
18.06.2016 18:12 11,7 C 11,7 C 93 % 1016,8 hPa 0,0 mm 3,0 km/h (1 Bft) S-SO 157 0 min 0,000 mm 0,6 UV-I 90 W/m 10,6 C 6,0 km/h (2 Bft)
18.06.2016 18:13 11,7 C 11,7 C 94 % 1016,8 hPa 0,0 mm 6,0 km/h (2 Bft) S-SO 157 0 min 0,000 mm 0,6 UV-I 90 W/m 10,8 C 6,0 km/h (2 Bft)
18.06.2016 18:14 11,7 C 11,7 C 93 % 1016,7 hPa 0,0 mm 6,0 km/h (2 Bft) S-SO 157 0 min 0,000 mm 0,6 UV-I 90 W/m 10,6 C 6,0 km/h (2 Bft)
18.06.2016 18:15 11,7 C 11,7 C 93 % 1016,8 hPa 0,0 mm 3,0 km/h (1 Bft) S-SO 157 0 min 0,000 mm 0,6 UV-I 90 W/m 10,6 C 6,0 km/h (2 Bft)
18.06.2016 18:16 11,7 C 11,7 C 92 % 1016,8 hPa 0,0 mm 3,0 km/h (1 Bft) S-SO 157 0 min 0,000 mm 0,6 UV-I 88 W/m 10,4 C 6,0 km/h (2 Bft)
18.06.2016 18:17 11,7 C 11,7 C 92 % 1016,8 hPa 0,0 mm 3,0 km/h (1 Bft) S-SO 157 0 min 0,000 mm 0,6 UV-I 88 W/m 10,4 C 6,0 km/h (2 Bft)
18.06.2016 18:18 11,7 C 11,7 C 92 % 1016,8 hPa 0,0 mm 6,0 km/h (2 Bft) S-SO 157 0 min 0,000 mm 0,6 UV-I 88 W/m 10,4 C 8,9 km/h (2 Bft)
18.06.2016 18:19 11,7 C 11,7 C 93 % 1016,8 hPa 0,0 mm 3,0 km/h (1 Bft) S-SW 202 0 min 0,000 mm 0,6 UV-I 88 W/m 10,6 C 6,0 km/h (2 Bft)
18.06.2016 18:20 11,8 C 11,8 C 93 % 1016,8 hPa 0,0 mm 3,0 km/h (1 Bft) S-SW 202 0 min 0,000 mm 0,6 UV-I 88 W/m 10,7 C 6,0 km/h (2 Bft)
18.06.2016 18:21 11,8 C 11,8 C 92 % 1016,7 hPa 0,0 mm 3,0 km/h (1 Bft) W-NW 292 0 min 0,000 mm 0,6 UV-I 88 W/m 10,5 C 6,0 km/h (2 Bft)
18.06.2016 18:22 11,8 C 11,8 C 93 % 1016,8 hPa 0,0 mm 3,0 km/h (1 Bft) W-SW 247 0 min 0,000 mm 0,5 UV-I 88 W/m 10,7 C 6,0 km/h (2 Bft)
18.06.2016 18:23 11,8 C 11,8 C 92 % 1016,8 hPa 0,0 mm 0,0 km/h (0 Bft) W-SW 247 0 min 0,000 mm 0,5 UV-I 86 W/m 10,5 C 3,0 km/h (1 Bft)
18.06.2016 18:24 11,8 C 11,8 C 92 % 1016,8 hPa 0,0 mm 3,0 km/h (1 Bft) SO 135 0 min 0,000 mm 0,5 UV-I 86 W/m 10,5 C 6,0 km/h (2 Bft)
18.06.2016 18:25 11,8 C 11,8 C 93 % 1016,6 hPa 0,0 mm 0,0 km/h (0 Bft) SO 135 0 min 0,000 mm 0,5 UV-I 84 W/m 10,7 C 3,0 km/h (1 Bft)
18.06.2016 18:26 11,8 C 11,8 C 93 % 1016,7 hPa 0,0 mm 3,0 km/h (1 Bft) SO 135 0 min 0,000 mm 0,5 UV-I 84 W/m 10,7 C 3,0 km/h (1 Bft)
18.06.2016 18:27 11,8 C 11,8 C 93 % 1016,6 hPa 0,0 mm 3,0 km/h (1 Bft) SO 135 0 min 0,000 mm 0,5 UV-I 84 W/m 10,7 C 6,0 km/h (2 Bft)
18.06.2016 18:28 11,8 C 11,8 C 91 % 1016,6 hPa 0,0 mm 3,0 km/h (1 Bft) SO 135 0 min 0,000 mm 0,5 UV-I 83 W/m 10,4 C 6,0 km/h (2 Bft)
18.06.2016 18:29 11,8 C 11,8 C 93 % 1016,6 hPa 0,0 mm 3,0 km/h (1 Bft) SO 135 0 min 0,000 mm 0,5 UV-I 83 W/m 10,7 C 3,0 km/h (1 Bft)
18.06.2016 18:30 11,8 C 11,8 C 93 % 1016,6 hPa 0,0 mm 3,0 km/h (1 Bft) SO 135 0 min 0,000 mm 0,5 UV-I 83 W/m 10,7 C 6,0 km/h (2 Bft)
18.06.2016 18:31 11,8 C 11,8 C 93 % 1016,5 hPa 0,0 mm 0,0 km/h (0 Bft) SO 135 0 min 0,000 mm 0,5 UV-I 81 W/m 10,7 C 3,0 km/h (1 Bft)
18.06.2016 18:32 11,7 C 11,8 C 93 % 1016,5 hPa 0,0 mm 3,0 km/h (1 Bft) SO 135 0 min 0,000 mm 0,5 UV-I 81 W/m 10,6 C 3,0 km/h (1 Bft)
18.06.2016 18:33 11,7 C 11,8 C 93 % 1016,5 hPa 0,0 mm 0,0 km/h (0 Bft) N 0 0 min 0,000 mm 0,5 UV-I 79 W/m 10,6 C 0,0 km/h (0 Bft)
18.06.2016 18:34 11,7 C 11,8 C 93 % 1016,5 hPa 0,0 mm 0,0 km/h (0 Bft) SO 135 0 min 0,000 mm 0,5 UV-I 79 W/m 10,6 C 3,0 km/h (1 Bft)
18.06.2016 18:35 11,7 C 11,7 C 93 % 1016,5 hPa 0,0 mm 0,0 km/h (0 Bft) SO 135 0 min 0,000 mm 0,5 UV-I 79 W/m 10,6 C 3,0 km/h (1 Bft)
18.06.2016 18:36 11,7 C 11,7 C 93 % 1016,4 hPa 0,0 mm 0,0 km/h (0 Bft) SO 135 0 min 0,000 mm 0,5 UV-I 77 W/m 10,6 C 3,0 km/h (1 Bft)
18.06.2016 18:37 11,7 C 11,7 C 93 % 1016,4 hPa 0,0 mm 0,0 km/h (0 Bft) SO 135 0 min 0,000 mm 0,5 UV-I 77 W/m 10,6 C 3,0 km/h (1 Bft)
18.06.2016 18:38 11,7 C 11,7 C 93 % 1016,5 hPa 0,0 mm 0,0 km/h (0 Bft) SO 135 0 min 0,000 mm 0,5 UV-I 79 W/m 10,6 C 3,0 km/h (1 Bft)
18.06.2016 18:39 11,7 C 11,7 C 93 % 1016,4 hPa 0,0 mm 0,0 km/h (0 Bft) SO 135 0 min 0,000 mm 0,5 UV-I 79 W/m 10,6 C 3,0 km/h (1 Bft)
18.06.2016 18:40 11,7 C 11,7 C 94 % 1016,5 hPa 0,0 mm 0,0 km/h (0 Bft) SO 135 0 min 0,000 mm 0,5 UV-I 79 W/m 10,8 C 3,0 km/h (1 Bft)
18.06.2016 18:41 11,7 C 11,7 C 93 % 1016,4 hPa 0,0 mm 3,0 km/h (1 Bft) S-SO 157 0 min 0,000 mm 0,5 UV-I 79 W/m 10,6 C 3,0 km/h (1 Bft)
18.06.2016 18:42 11,8 C 11,8 C 92 % 1016,5 hPa 0,0 mm 3,0 km/h (1 Bft) W-NW 292 0 min 0,000 mm 0,5 UV-I 79 W/m 10,5 C 6,0 km/h (2 Bft)
18.06.2016 18:43 11,8 C 11,8 C 92 % 1016,6 hPa 0,0 mm 6,0 km/h (2 Bft) W-NW 292 0 min 0,000 mm 0,5 UV-I 79 W/m 10,5 C 6,0 km/h (2 Bft)
18.06.2016 18:44 11,9 C 11,9 C 93 % 1016,5 hPa 0,0 mm 3,0 km/h (1 Bft) W-NW 292 0 min 0,000 mm 0,5 UV-I 79 W/m 10,8 C 6,0 km/h (2 Bft)
18.06.2016 18:45 11,9 C 11,9 C 92 % 1016,6 hPa 0,0 mm 3,0 km/h (1 Bft) NW 315 0 min 0,000 mm 0,5 UV-I 79 W/m 10,6 C 3,0 km/h (1 Bft)
18.06.2016 18:46 12,0 C 12,0 C 92 % 1016,6 hPa 0,0 mm 3,0 km/h (1 Bft) NW 315 0 min 0,000 mm 0,5 UV-I 79 W/m 10,7 C 6,0 km/h (2 Bft)
18.06.2016 18:47 12,0 C 12,0 C 92 % 1016,6 hPa 0,0 mm 3,0 km/h (1 Bft) NW 315 0 min 0,000 mm 0,5 UV-I 79 W/m 10,7 C 6,0 km/h (2 Bft)
18.06.2016 18:48 12,0 C 12,0 C 91 % 1016,6 hPa 0,0 mm 3,0 km/h (1 Bft) NW 315 0 min 0,000 mm 0,5 UV-I 79 W/m 10,6 C 6,0 km/h (2 Bft)
18.06.2016 18:49 12,0 C 12,0 C 92 % 1016,6 hPa 0,0 mm 3,0 km/h (1 Bft) NW 315 0 min 0,000 mm 0,5 UV-I 79 W/m 10,7 C 3,0 km/h (1 Bft)
18.06.2016 18:50 12,1 C 12,1 C 93 % 1016,6 hPa 0,0 mm 0,0 km/h (0 Bft) NW 315 0 min 0,000 mm 0,5 UV-I 79 W/m 11,0 C 3,0 km/h (1 Bft)
18.06.2016 18:51 12,1 C 12,1 C 92 % 1016,6 hPa 0,0 mm 0,0 km/h (0 Bft) NW 315 0 min 0,000 mm 0,5 UV-I 77 W/m 10,8 C 3,0 km/h (1 Bft)
18.06.2016 18:52 12,1 C 12,1 C 92 % 1016,7 hPa 0,0 mm 0,0 km/h (0 Bft) NW 315 0 min 0,000 mm 0,5 UV-I 77 W/m 10,8 C 3,0 km/h (1 Bft)
18.06.2016 18:54 12,1 C 12,1 C 91 % 1016,6 hPa 0,0 mm 1,1 km/h (1 Bft) NW 325 0 min 0,001 mm 0,5 UV-I 76 W/m 10,7 C 3,0 km/h (1 Bft)
18.06.2016 18:55 12,1 C 12,1 C 92 % 1016,6 hPa 0,0 mm 1,3 km/h (1 Bft) NW 325 0 min 0,000 mm 0,0 UV-I 72 W/m 10,8 C 3,0 km/h (1 Bft)
18.06.2016 18:56 12,1 C 12,1 C 92 % 1016,6 hPa 0,0 mm 0,2 km/h (0 Bft) NW 325 0 min 0,000 mm 0,0 UV-I 67 W/m 10,8 C 3,0 km/h (1 Bft)
18.06.2016 18:57 12,1 C 12,1 C 92 % 1016,7 hPa 0,0 mm 2,3 km/h (1 Bft) NW 325 0 min 0,000 mm 0,0 UV-I 63 W/m 10,8 C 6,0 km/h (2 Bft)
18.06.2016 18:58 12,1 C 12,1 C 92 % 1016,6 hPa 0,0 mm 2,0 km/h (1 Bft) NW 325 0 min 0,000 mm 0,0 UV-I 60 W/m 10,8 C 3,0 km/h (1 Bft)
18.06.2016 18:59 12,1 C 12,1 C 92 % 1016,7 hPa 0,0 mm 0,5 km/h (0 Bft) NW 325 0 min 0,000 mm 0,0 UV-I 58 W/m 10,8 C 3,0 km/h (1 Bft)
18.06.2016 19:00 12,1 C 12,1 C 92 % 1016,7 hPa 0,0 mm 0,7 km/h (0 Bft) NW 325 0 min 0,000 mm 0,0 UV-I 58 W/m 10,8 C 3,0 km/h (1 Bft)
18.06.2016 19:01 12,1 C 12,2 C 92 % 1016,7 hPa 0,0 mm 0,2 km/h (0 Bft) NW 325 0 min 0,051 mm 0,0 UV-I 56 W/m 10,8 C 3,0 km/h (1 Bft)
18.06.2016 19:02 12,1 C 12,1 C 93 % 1016,7 hPa 0,0 mm 0,0 km/h (0 Bft) NW 325 0 min 0,000 mm 0,0 UV-I 54 W/m 11,0 C 0,0 km/h (0 Bft)
18.06.2016 19:03 12,1 C 12,1 C 93 % 1016,7 hPa 0,0 mm 0,0 km/h (0 Bft) NW 325 0 min 0,000 mm 0,0 UV-I 56 W/m 11,0 C 0,0 km/h (0 Bft)
18.06.2016 19:04 12,1 C 12,1 C 92 % 1016,6 hPa 0,0 mm 0,4 km/h (0 Bft) NW 325 0 min 0,000 mm 0,0 UV-I 58 W/m 10,8 C 3,0 km/h (1 Bft)
18.06.2016 19:05 12,1 C 12,1 C 92 % 1016,6 hPa 0,0 mm 1,0 km/h (0 Bft) NW 325 0 min 0,000 mm 0,0 UV-I 62 W/m 10,8 C 3,0 km/h (1 Bft)
18.06.2016 19:06 12,0 C 12,1 C 93 % 1016,7 hPa 0,0 mm 0,0 km/h (0 Bft) NW 325 0 min 0,000 mm 0,0 UV-I 65 W/m 10,9 C 0,0 km/h (0 Bft)
18.06.2016 19:07 12,0 C 12,0 C 93 % 1016,6 hPa 0,0 mm 0,4 km/h (0 Bft) NW 325 0 min 0,000 mm 0,0 UV-I 69 W/m 10,9 C 3,0 km/h (1 Bft)
18.06.2016 19:08 11,9 C 12,0 C 93 % 1016,7 hPa 0,0 mm 0,2 km/h (0 Bft) NW 325 0 min 0,000 mm 0,0 UV-I 74 W/m 10,8 C 3,0 km/h (1 Bft)
18.06.2016 19:09 11,9 C 12,0 C 94 % 1016,6 hPa 0,0 mm 0,9 km/h (0 Bft) N-NW 329 0 min 0,000 mm 0,0 UV-I 76 W/m 11,0 C 3,0 km/h (1 Bft)
18.06.2016 19:10 11,9 C 12,0 C 93 % 1016,6 hPa 0,0 mm 0,5 km/h (0 Bft) N-NW 329 0 min 0,000 mm 0,0 UV-I 76 W/m 10,8 C 3,0 km/h (1 Bft)
18.06.2016 19:11 11,9 C 12,0 C 93 % 1016,7 hPa 0,0 mm 0,6 km/h (0 Bft) N-NW 329 0 min 0,000 mm 0,0 UV-I 77 W/m 10,8 C 3,0 km/h (1 Bft)
18.06.2016 19:12 11,9 C 11,9 C 93 % 1016,6 hPa 0,0 mm 2,4 km/h (1 Bft) O-NO 71 0 min 0,000 mm 0,0 UV-I 79 W/m 10,8 C 6,0 km/h (2 Bft)
18.06.2016 19:13 11,9 C 11,9 C 92 % 1016,6 hPa 0,0 mm 1,6 km/h (1 Bft) O-SO 107 0 min 0,000 mm 0,0 UV-I 81 W/m 10,6 C 6,0 km/h (2 Bft)
18.06.2016 19:14 11,9 C 11,9 C 93 % 1016,7 hPa 0,0 mm 0,6 km/h (0 Bft) O-SO 107 0 min 0,000 mm 0,0 UV-I 84 W/m 10,8 C 3,0 km/h (1 Bft)
18.06.2016 19:15 11,9 C 11,9 C 93 % 1016,7 hPa 0,0 mm 0,4 km/h (0 Bft) O-SO 107 0 min 0,000 mm 0,0 UV-I 86 W/m 10,8 C 3,0 km/h (1 Bft)
18.06.2016 19:16 11,9 C 11,9 C 92 % 1016,7 hPa 0,0 mm 0,4 km/h (0 Bft) O-SO 107 0 min 0,000 mm 0,0 UV-I 86 W/m 10,6 C 3,0 km/h (1 Bft)
18.06.2016 19:17 11,9 C 11,9 C 92 % 1016,7 hPa 0,0 mm 0,4 km/h (0 Bft) O-SO 107 0 min 0,000 mm 0,0 UV-I 84 W/m 10,6 C 3,0 km/h (1 Bft)
18.06.2016 19:18 11,9 C 11,9 C 92 % 1016,6 hPa 0,0 mm 0,0 km/h (0 Bft) O-SO 107 0 min 0,000 mm 0,0 UV-I 83 W/m 10,6 C 0,0 km/h (0 Bft)
18.06.2016 19:19 11,9 C 11,9 C 93 % 1016,7 hPa 0,0 mm 3,7 km/h (1 Bft) W 267 0 min 0,000 mm 0,0 UV-I 79 W/m 10,8 C 6,0 km/h (2 Bft)
18.06.2016 19:20 12,1 C 12,1 C 94 % 1016,7 hPa 0,0 mm 3,1 km/h (1 Bft) W 266 0 min 0,000 mm 0,0 UV-I 69 W/m 11,2 C 6,0 km/h (2 Bft)
18.06.2016 19:21 12,1 C 12,1 C 93 % 1016,7 hPa 0,0 mm 3,4 km/h (1 Bft) W 263 0 min 0,000 mm 0,0 UV-I 62 W/m 11,0 C 6,0 km/h (2 Bft)
18.06.2016 19:22 12,2 C 12,2 C 93 % 1016,8 hPa 0,0 mm 4,7 km/h (1 Bft) W 266 0 min 0,000 mm 0,0 UV-I 54 W/m 11,1 C 6,0 km/h (2 Bft)
18.06.2016 19:23 12,2 C 12,2 C 91 % 1016,8 hPa 0,0 mm 7,7 km/h (2 Bft) W-NW 282 0 min 0,000 mm 0,0 UV-I 49 W/m 10,8 C 8,9 km/h (2 Bft)
18.06.2016 19:24 12,2 C 12,2 C 91 % 1016,8 hPa 0,0 mm 7,6 km/h (2 Bft) W 281 0 min 0,000 mm 0,0 UV-I 42 W/m 10,8 C 8,9 km/h (2 Bft)
18.06.2016 19:25 12,2 C 12,2 C 91 % 1016,9 hPa 0,0 mm 7,9 km/h (2 Bft) NW 316 0 min 0,000 mm 0,0 UV-I 33 W/m 10,8 C 11,9 km/h (2 Bft)
18.06.2016 19:26 12,2 C 12,2 C 91 % 1017,0 hPa 0,0 mm 13,0 km/h (3 Bft) W-NW 290 0 min 0,000 mm 0,0 UV-I 28 W/m 10,8 C 20,9 km/h (4 Bft)
18.06.2016 19:27 12,2 C 12,2 C 92 % 1017,2 hPa 0,0 mm 18,4 km/h (3 Bft) W-NW 292 0 min 0,000 mm 0,0 UV-I 26 W/m 10,9 C 26,8 km/h (4 Bft)
18.06.2016 19:28 12,2 C 12,2 C 92 % 1017,3 hPa 0,0 mm 13,3 km/h (3 Bft) W-SW 239 0 min 0,000 mm 0,0 UV-I 23 W/m 10,9 C 20,9 km/h (4 Bft)
18.06.2016 19:29 12,2 C 12,2 C 91 % 1017,3 hPa 0,0 mm 19,2 km/h (3 Bft) W-NW 300 0 min 0,000 mm 0,0 UV-I 21 W/m 10,8 C 32,8 km/h (5 Bft)
18.06.2016 19:30 12,2 C 12,2 C 90 % 1017,3 hPa 0,0 mm 8,9 km/h (2 Bft) S-SO 153 0 min 0,000 mm 0,0 UV-I 19 W/m 10,6 C 17,9 km/h (3 Bft)
18.06.2016 19:31 12,2 C 12,2 C 91 % 1017,2 hPa 0,0 mm 10,1 km/h (2 Bft) S-SO 167 0 min 0,000 mm 0,0 UV-I 18 W/m 10,8 C 11,9 km/h (2 Bft)
18.06.2016 19:32 12,1 C 12,2 C 91 % 1017,3 hPa 0,0 mm 7,7 km/h (2 Bft) S-SW 194 0 min 0,000 mm 0,0 UV-I 16 W/m 10,7 C 11,9 km/h (2 Bft)
18.06.2016 19:33 12,1 C 12,1 C 90 % 1017,3 hPa 0,0 mm 2,7 km/h (1 Bft) S-SW 196 0 min 0,000 mm 0,0 UV-I 14 W/m 10,5 C 6,0 km/h (2 Bft)
18.06.2016 19:34 12,1 C 12,1 C 90 % 1017,3 hPa 0,0 mm 3,1 km/h (1 Bft) S 185 0 min 0,000 mm 0,0 UV-I 12 W/m 10,5 C 6,0 km/h (2 Bft)
18.06.2016 19:35 12,1 C 12,1 C 90 % 1017,3 hPa 0,0 mm 2,5 km/h (1 Bft) S 172 0 min 0,000 mm 0,0 UV-I 12 W/m 10,5 C 6,0 km/h (2 Bft)
18.06.2016 19:36 12,0 C 12,1 C 91 % 1017,3 hPa 0,0 mm 1,0 km/h (0 Bft) S 172 0 min 0,000 mm 0,0 UV-I 11 W/m 10,6 C 6,0 km/h (2 Bft)
18.06.2016 19:37 11,9 C 12,0 C 91 % 1017,3 hPa 0,0 mm 0,2 km/h (0 Bft) S 172 0 min 0,000 mm 0,0 UV-I 9 W/m 10,5 C 3,0 km/h (1 Bft)
18.06.2016 19:38 11,9 C 11,9 C 91 % 1017,4 hPa 0,0 mm 2,4 km/h (1 Bft) S 172 0 min 0,000 mm 0,0 UV-I 9 W/m 10,5 C 3,0 km/h (1 Bft)
18.06.2016 19:39 11,9 C 11,9 C 90 % 1017,4 hPa 0,0 mm 5,5 km/h (1 Bft) S-SW 209 0 min 0,000 mm 0,0 UV-I 9 W/m 10,3 C 8,9 km/h (2 Bft)
18.06.2016 19:40 11,9 C 11,9 C 90 % 1017,4 hPa 0,0 mm 6,1 km/h (2 Bft) S-SW 205 0 min 0,000 mm 0,0 UV-I 7 W/m 10,3 C 8,9 km/h (2 Bft)
18.06.2016 19:41 11,9 C 11,9 C 90 % 1017,4 hPa 0,0 mm 4,7 km/h (1 Bft) S-SW 207 0 min 0,000 mm 0,0 UV-I 7 W/m 10,3 C 6,0 km/h (2 Bft)
18.06.2016 19:42 11,9 C 11,9 C 91 % 1017,4 hPa 0,0 mm 5,6 km/h (1 Bft) SW 221 0 min 0,000 mm 0,0 UV-I 7 W/m 10,5 C 8,9 km/h (2 Bft)
18.06.2016 19:43 11,9 C 11,9 C 91 % 1017,4 hPa 0,0 mm 9,5 km/h (2 Bft) N-NW 329 0 min 0,000 mm 0,0 UV-I 7 W/m 10,5 C 17,9 km/h (3 Bft)
18.06.2016 19:44 12,0 C 12,0 C 90 % 1017,5 hPa 0,0 mm 9,1 km/h (2 Bft) W-SW 245 0 min 0,000 mm 0,0 UV-I 7 W/m 10,4 C 20,9 km/h (4 Bft)
18.06.2016 19:45 12,1 C 12,1 C 90 % 1017,5 hPa 0,0 mm 5,3 km/h (1 Bft) W-SW 254 0 min 0,000 mm 0,0 UV-I 5 W/m 10,5 C 8,9 km/h (2 Bft)
18.06.2016 19:46 12,1 C 12,1 C 91 % 1017,5 hPa 0,0 mm 6,1 km/h (2 Bft) W-SW 241 0 min 0,000 mm 0,0 UV-I 5 W/m 10,7 C 8,9 km/h (2 Bft)
18.06.2016 19:47 12,1 C 12,1 C 90 % 1017,5 hPa 0,2 mm 2,5 km/h (1 Bft) SW 219 0 min 0,000 mm 0,0 UV-I 5 W/m 10,5 C 6,0 km/h (2 Bft)
18.06.2016 19:48 12,0 C 12,1 C 90 % 1017,5 hPa 0,0 mm 3,1 km/h (1 Bft) SW 219 0 min 0,000 mm 0,0 UV-I 7 W/m 10,4 C 6,0 km/h (2 Bft)
18.06.2016 19:49 12,0 C 12,1 C 91 % 1017,5 hPa 0,0 mm 2,2 km/h (1 Bft) S-SW 203 0 min 0,000 mm 0,0 UV-I 7 W/m 10,6 C 6,0 km/h (2 Bft)
18.06.2016 19:50 11,9 C 12,0 C 91 % 1017,5 hPa 0,0 mm 3,3 km/h (1 Bft) S 190 0 min 0,000 mm 0,0 UV-I 7 W/m 10,5 C 6,0 km/h (2 Bft)
18.06.2016 19:52 11,9 C 12,0 C 92 % 1017,5 hPa 0,0 mm 0,1 km/h (0 Bft) S 190 0 min 0,000 mm 0,0 UV-I 7 W/m 10,6 C 1,6 km/h (1 Bft)
18.06.2016 19:53 11,8 C 11,9 C 93 % 1017,4 hPa 0,0 mm 1,3 km/h (1 Bft) S 190 0 min 0,000 mm 0,0 UV-I 9 W/m 10,7 C 1,6 km/h (1 Bft)
18.06.2016 19:54 11,8 C 11,8 C 92 % 1017,4 hPa 0,0 mm 1,3 km/h (1 Bft) S 190 0 min 0,000 mm 0,0 UV-I 9 W/m 10,5 C 1,6 km/h (1 Bft)
18.06.2016 19:55 11,7 C 11,8 C 93 % 1017,4 hPa 0,0 mm 1,1 km/h (1 Bft) S 190 0 min 0,000 mm 0,0 UV-I 11 W/m 10,6 C 1,6 km/h (1 Bft)
18.06.2016 19:56 11,7 C 11,8 C 93 % 1017,5 hPa 0,0 mm 1,1 km/h (1 Bft) S 190 0 min 0,000 mm 0,0 UV-I 11 W/m 10,6 C 1,6 km/h (1 Bft)
18.06.2016 19:57 11,7 C 11,7 C 93 % 1017,5 hPa 0,0 mm 0,9 km/h (0 Bft) S 190 0 min 0,000 mm 0,0 UV-I 11 W/m 10,6 C 1,6 km/h (1 Bft)
18.06.2016 19:58 11,7 C 11,7 C 94 % 1017,5 hPa 0,0 mm 0,2 km/h (0 Bft) S 190 0 min 0,000 mm 0,0 UV-I 11 W/m 10,8 C 1,6 km/h (1 Bft)
18.06.2016 19:59 11,7 C 11,7 C 94 % 1017,5 hPa 0,0 mm 0,5 km/h (0 Bft) S 190 0 min 0,000 mm 0,0 UV-I 12 W/m 10,8 C 1,6 km/h (1 Bft)
18.06.2016 20:00 11,6 C 11,7 C 93 % 1017,5 hPa 0,0 mm 1,7 km/h (1 Bft) S 180 0 min 0,000 mm 0,0 UV-I 12 W/m 10,5 C 3,2 km/h (1 Bft)
18.06.2016 20:01 11,6 C 11,6 C 94 % 1017,5 hPa 0,0 mm 3,6 km/h (1 Bft) S-SO 164 0 min 0,025 mm 0,0 UV-I 14 W/m 10,7 C 4,8 km/h (1 Bft)
18.06.2016 20:02 11,6 C 11,6 C 94 % 1017,5 hPa 0,0 mm 3,2 km/h (1 Bft) S-SO 162 0 min 0,000 mm 0,0 UV-I 14 W/m 10,7 C 6,4 km/h (2 Bft)
18.06.2016 20:03 11,6 C 11,6 C 94 % 1017,5 hPa 0,0 mm 2,7 km/h (1 Bft) S-SO 162 0 min 0,000 mm 0,0 UV-I 16 W/m 10,7 C 3,2 km/h (1 Bft)
18.06.2016 20:04 11,6 C 11,6 C 94 % 1017,6 hPa 0,0 mm 2,0 km/h (1 Bft) S-SO 162 0 min 0,000 mm 0,0 UV-I 16 W/m 10,7 C 3,2 km/h (1 Bft)
18.06.2016 20:05 11,6 C 11,6 C 94 % 1017,5 hPa 0,0 mm 2,3 km/h (1 Bft) S-SO 162 0 min 0,000 mm 0,0 UV-I 18 W/m 10,7 C 3,2 km/h (1 Bft)
18.06.2016 20:06 11,5 C 11,6 C 94 % 1017,5 hPa 0,0 mm 1,4 km/h (1 Bft) S-SO 162 0 min 0,000 mm 0,0 UV-I 19 W/m 10,6 C 1,6 km/h (1 Bft)
18.06.2016 20:07 11,6 C 11,6 C 94 % 1017,6 hPa 0,0 mm 0,6 km/h (0 Bft) S-SO 162 0 min 0,000 mm 0,0 UV-I 21 W/m 10,7 C 1,6 km/h (1 Bft)
18.06.2016 20:08 11,5 C 11,6 C 94 % 1017,5 hPa 0,0 mm 0,0 km/h (0 Bft) S-SO 162 0 min 0,000 mm 0,0 UV-I 23 W/m 10,6 C 0,0 km/h (0 Bft)
18.06.2016 20:09 11,6 C 11,6 C 94 % 1017,6 hPa 0,0 mm 1,3 km/h (1 Bft) S 169 0 min 0,000 mm 0,0 UV-I 23 W/m 10,7 C 3,2 km/h (1 Bft)
18.06.2016 20:10 11,6 C 11,6 C 93 % 1017,6 hPa 0,0 mm 0,8 km/h (0 Bft) S 169 0 min 0,000 mm 0,0 UV-I 25 W/m 10,5 C 1,6 km/h (1 Bft)
18.06.2016 20:11 11,6 C 11,6 C 94 % 1017,6 hPa 0,0 mm 0,5 km/h (0 Bft) S 169 0 min 0,000 mm 0,0 UV-I 26 W/m 10,7 C 1,6 km/h (1 Bft)
18.06.2016 20:12 11,6 C 11,6 C 94 % 1017,6 hPa 0,0 mm 0,7 km/h (0 Bft) S 169 0 min 0,000 mm 0,0 UV-I 28 W/m 10,7 C 1,6 km/h (1 Bft)
18.06.2016 20:13 11,6 C 11,6 C 94 % 1017,7 hPa 0,0 mm 1,8 km/h (1 Bft) S-SO 155 0 min 0,000 mm 0,0 UV-I 30 W/m 10,7 C 3,2 km/h (1 Bft)
18.06.2016 20:14 11,5 C 11,6 C 94 % 1017,6 hPa 0,0 mm 1,1 km/h (1 Bft) S-SO 155 0 min 0,000 mm 0,0 UV-I 32 W/m 10,6 C 3,2 km/h (1 Bft)
18.06.2016 20:15 11,5 C 11,5 C 94 % 1017,7 hPa 0,0 mm 0,8 km/h (0 Bft) S-SO 155 0 min 0,000 mm 0,0 UV-I 32 W/m 10,6 C 1,6 km/h (1 Bft)
18.06.2016 20:16 11,5 C 11,5 C 94 % 1017,7 hPa 0,0 mm 0,4 km/h (0 Bft) S-SO 155 0 min 0,000 mm 0,0 UV-I 33 W/m 10,6 C 1,6 km/h (1 Bft)
18.06.2016 20:17 11,4 C 11,5 C 94 % 1017,7 hPa 0,0 mm 0,9 km/h (0 Bft) S-SO 155 0 min 0,000 mm 0,0 UV-I 33 W/m 10,5 C 3,2 km/h (1 Bft)
18.06.2016 20:18 11,5 C 11,5 C 94 % 1017,8 hPa 0,0 mm 1,9 km/h (1 Bft) S-SO 155 0 min 0,000 mm 0,0 UV-I 32 W/m 10,6 C 3,2 km/h (1 Bft)
18.06.2016 20:19 11,5 C 11,5 C 94 % 1017,8 hPa 0,0 mm 1,7 km/h (1 Bft) S-SO 155 0 min 0,000 mm 0,0 UV-I 32 W/m 10,6 C 3,2 km/h (1 Bft)
18.06.2016 20:20 11,6 C 11,6 C 94 % 1017,8 hPa 0,0 mm 1,4 km/h (1 Bft) S-SO 155 0 min 0,000 mm 0,0 UV-I 30 W/m 10,7 C 1,6 km/h (1 Bft)
18.06.2016 20:21 11,6 C 11,6 C 94 % 1017,8 hPa 0,0 mm 1,2 km/h (1 Bft) S-SO 155 0 min 0,000 mm 0,0 UV-I 26 W/m 10,7 C 1,6 km/h (1 Bft)
18.06.2016 20:22 11,6 C 11,6 C 94 % 1017,8 hPa 0,0 mm 1,6 km/h (1 Bft) S-SO 157 0 min 0,000 mm 0,0 UV-I 25 W/m 10,7 C 1,6 km/h (1 Bft)
18.06.2016 20:24 11,7 C 11,7 C 94 % 1017,9 hPa 0,0 mm 0,5 km/h (0 Bft) S 174 0 min 0,000 mm 0,0 UV-I 19 W/m 10,8 C 1,6 km/h (1 Bft)
18.06.2016 20:25 11,7 C 11,7 C 94 % 1018,0 hPa 0,0 mm 2,2 km/h (1 Bft) SW 224 0 min 0,000 mm 0,0 UV-I 18 W/m 10,8 C 3,2 km/h (1 Bft)
18.06.2016 20:26 11,7 C 11,7 C 93 % 1018,0 hPa 0,0 mm 2,1 km/h (1 Bft) S-SW 198 0 min 0,000 mm 0,0 UV-I 16 W/m 10,6 C 3,2 km/h (1 Bft)
18.06.2016 20:27 11,7 C 11,7 C 93 % 1018,0 hPa 0,0 mm 0,9 km/h (0 Bft) S-SW 198 0 min 0,000 mm 0,0 UV-I 14 W/m 10,6 C 1,6 km/h (1 Bft)
18.06.2016 20:28 11,7 C 11,7 C 93 % 1018,1 hPa 0,0 mm 0,7 km/h (0 Bft) S-SW 198 0 min 0,000 mm 0,0 UV-I 12 W/m 10,6 C 1,6 km/h (1 Bft)
18.06.2016 20:29 11,8 C 11,8 C 94 % 1018,1 hPa 0,0 mm 0,9 km/h (0 Bft) S-SW 202 0 min 0,000 mm 0,0 UV-I 12 W/m 10,9 C 3,2 km/h (1 Bft)
18.06.2016 20:30 11,8 C 11,8 C 94 % 1018,1 hPa 0,0 mm 1,0 km/h (0 Bft) S-SW 202 0 min 0,000 mm 0,0 UV-I 9 W/m 10,9 C 1,6 km/h (1 Bft)
18.06.2016 20:31 11,8 C 11,8 C 94 % 1018,1 hPa 0,0 mm 0,5 km/h (0 Bft) S-SW 202 0 min 0,000 mm 0,0 UV-I 7 W/m 10,9 C 1,6 km/h (1 Bft)
18.06.2016 20:32 11,8 C 11,8 C 93 % 1018,1 hPa 0,0 mm 0,1 km/h (0 Bft) S-SW 202 0 min 0,000 mm 0,0 UV-I 7 W/m 10,7 C 1,6 km/h (1 Bft)
18.06.2016 20:33 11,8 C 11,8 C 94 % 1018,1 hPa 0,0 mm 0,1 km/h (0 Bft) S-SW 202 0 min 0,000 mm 0,0 UV-I 5 W/m 10,9 C 1,6 km/h (1 Bft)
18.06.2016 20:34 11,8 C 11,8 C 94 % 1018,1 hPa 0,0 mm 0,8 km/h (0 Bft) S-SW 202 0 min 0,000 mm 0,0 UV-I 5 W/m 10,9 C 1,6 km/h (1 Bft)
18.06.2016 20:35 11,8 C 11,8 C 94 % 1018,1 hPa 0,0 mm 0,7 km/h (0 Bft) S-SW 202 0 min 0,000 mm 0,0 UV-I 5 W/m 10,9 C 1,6 km/h (1 Bft)
18.06.2016 20:36 11,8 C 11,8 C 94 % 1018,1 hPa 0,0 mm 1,0 km/h (0 Bft) NW 304 0 min 0,000 mm 0,0 UV-I 0 W/m 10,9 C 3,2 km/h (1 Bft)
18.06.2016 20:37 11,7 C 11,8 C 94 % 1018,2 hPa 0,0 mm 2,7 km/h (1 Bft) NW 307 0 min 0,000 mm 0,0 UV-I 0 W/m 10,8 C 4,8 km/h (1 Bft)
18.06.2016 20:38 11,7 C 11,7 C 95 % 1018,2 hPa 0,0 mm 3,7 km/h (1 Bft) NW 310 0 min 0,000 mm 0,0 UV-I 0 W/m 10,9 C 4,8 km/h (1 Bft)
18.06.2016 20:39 11,7 C 11,7 C 95 % 1018,3 hPa 0,0 mm 5,0 km/h (1 Bft) NW 323 0 min 0,000 mm 0,0 UV-I 0 W/m 10,9 C 6,4 km/h (2 Bft)
18.06.2016 20:40 11,8 C 11,8 C 95 % 1018,2 hPa 0,0 mm 3,1 km/h (1 Bft) NW 323 0 min 0,000 mm 0,0 UV-I 0 W/m 11,0 C 4,8 km/h (1 Bft)
18.06.2016 20:41 11,8 C 11,8 C 95 % 1018,3 hPa 0,0 mm 1,5 km/h (1 Bft) NW 320 0 min 0,000 mm 0,0 UV-I 0 W/m 11,0 C 3,2 km/h (1 Bft)
18.06.2016 20:42 11,8 C 11,8 C 95 % 1018,3 hPa 0,0 mm 1,5 km/h (1 Bft) NW 316 0 min 0,000 mm 0,0 UV-I 0 W/m 11,0 C 3,2 km/h (1 Bft)
18.06.2016 20:43 11,8 C 11,8 C 95 % 1018,3 hPa 0,0 mm 1,3 km/h (1 Bft) NW 316 0 min 0,000 mm 0,0 UV-I 0 W/m 11,0 C 1,6 km/h (1 Bft)
18.06.2016 20:44 11,8 C 11,8 C 95 % 1018,3 hPa 0,0 mm 1,9 km/h (1 Bft) W-NW 290 0 min 0,000 mm 0,0 UV-I 0 W/m 11,0 C 3,2 km/h (1 Bft)
18.06.2016 20:45 11,8 C 11,8 C 94 % 1018,3 hPa 0,0 mm 2,4 km/h (1 Bft) W-NW 300 0 min 0,000 mm 0,0 UV-I 0 W/m 10,9 C 4,8 km/h (1 Bft)
18.06.2016 20:46 11,8 C 11,8 C 94 % 1018,3 hPa 0,4 mm 3,2 km/h (1 Bft) W-NW 294 0 min 0,000 mm 0,0 UV-I 0 W/m 10,9 C 4,8 km/h (1 Bft)
18.06.2016 20:47 11,8 C 11,9 C 94 % 1018,4 hPa 0,4 mm 3,3 km/h (1 Bft) NW 320 0 min 0,000 mm 0,0 UV-I 0 W/m 10,9 C 4,8 km/h (1 Bft)
18.06.2016 20:48 11,8 C 11,9 C 94 % 1018,3 hPa 0,4 mm 3,2 km/h (1 Bft) N-NW 340 0 min 0,000 mm 0,0 UV-I 0 W/m 10,9 C 4,8 km/h (1 Bft)
18.06.2016 20:49 11,8 C 11,9 C 94 % 1018,4 hPa 0,2 mm 4,4 km/h (1 Bft) W-NW 290 0 min 0,000 mm 0,0 UV-I 0 W/m 10,9 C 6,4 km/h (2 Bft)
18.06.2016 20:50 11,8 C 11,9 C 93 % 1018,4 hPa 0,4 mm 3,8 km/h (1 Bft) W 281 0 min 0,000 mm 0,0 UV-I 0 W/m 10,7 C 4,8 km/h (1 Bft)
18.06.2016 20:51 11,8 C 11,8 C 93 % 1018,4 hPa 0,2 mm 5,0 km/h (1 Bft) W-NW 283 0 min 0,000 mm 0,0 UV-I 0 W/m 10,7 C 8,0 km/h (2 Bft)
18.06.2016 20:52 11,8 C 11,8 C 93 % 1018,4 hPa 0,2 mm 3,9 km/h (1 Bft) NW 305 0 min 0,000 mm 0,0 UV-I 0 W/m 10,7 C 8,0 km/h (2 Bft)
18.06.2016 20:53 11,7 C 11,8 C 93 % 1018,5 hPa 0,2 mm 3,8 km/h (1 Bft) W 281 0 min 0,000 mm 0,0 UV-I 0 W/m 10,6 C 4,8 km/h (1 Bft)
18.06.2016 20:54 11,7 C 11,7 C 93 % 1018,5 hPa 0,2 mm 3,4 km/h (1 Bft) W 278 0 min 0,000 mm 0,0 UV-I 0 W/m 10,6 C 4,8 km/h (1 Bft)
18.06.2016 20:55 11,7 C 11,7 C 93 % 1018,4 hPa 0,2 mm 3,5 km/h (1 Bft) W 275 0 min 0,000 mm 0,0 UV-I 0 W/m 10,6 C 4,8 km/h (1 Bft)
18.06.2016 20:56 11,6 C 11,7 C 94 % 1018,5 hPa 0,2 mm 2,8 km/h (1 Bft) W-NW 284 0 min 0,000 mm 0,0 UV-I 0 W/m 10,7 C 4,8 km/h (1 Bft)
18.06.2016 20:57 11,6 C 11,7 C 93 % 1018,5 hPa 0,2 mm 2,2 km/h (1 Bft) W-NW 283 0 min 0,000 mm 0,0 UV-I 0 W/m 10,5 C 3,2 km/h (1 Bft)
18.06.2016 20:58 11,6 C 11,6 C 94 % 1018,5 hPa 0,2 mm 2,3 km/h (1 Bft) W-NW 300 0 min 0,000 mm 0,0 UV-I 0 W/m 10,7 C 4,8 km/h (1 Bft)
18.06.2016 20:59 11,6 C 11,6 C 94 % 1018,5 hPa 0,2 mm 1,4 km/h (1 Bft) W-NW 290 0 min 0,000 mm 0,0 UV-I 0 W/m 10,7 C 3,2 km/h (1 Bft)
18.06.2016 21:00 11,5 C 11,6 C 94 % 1018,6 hPa 0,0 mm 1,2 km/h (1 Bft) W-NW 283 0 min 0,000 mm 0,0 UV-I 0 W/m 10,6 C 3,2 km/h (1 Bft)
18.06.2016 21:01 11,5 C 11,5 C 94 % 1018,5 hPa 0,2 mm 2,1 km/h (1 Bft) W-SW 240 0 min 0,000 mm 0,0 UV-I 0 W/m 10,6 C 4,8 km/h (1 Bft)
18.06.2016 21:02 11,4 C 11,5 C 94 % 1018,6 hPa 0,0 mm 3,0 km/h (1 Bft) W-SW 253 0 min 0,000 mm 0,0 UV-I 0 W/m 10,5 C 3,2 km/h (1 Bft)
18.06.2016 21:03 11,4 C 11,4 C 94 % 1018,6 hPa 0,2 mm 2,6 km/h (1 Bft) W-SW 240 0 min 0,000 mm 0,0 UV-I 0 W/m 10,5 C 3,2 km/h (1 Bft)
18.06.2016 21:04 11,4 C 11,4 C 94 % 1018,6 hPa 0,0 mm 0,9 km/h (0 Bft) W-SW 240 0 min 0,000 mm 0,0 UV-I 0 W/m 10,5 C 1,6 km/h (1 Bft)
18.06.2016 21:05 11,4 C 11,4 C 94 % 1018,6 hPa 0,0 mm 0,6 km/h (0 Bft) W-SW 240 0 min 0,000 mm 0,0 UV-I 0 W/m 10,5 C 1,6 km/h (1 Bft)
18.06.2016 21:06 11,3 C 11,4 C 94 % 1018,7 hPa 0,2 mm 1,3 km/h (1 Bft) W-SW 240 0 min 0,000 mm 0,0 UV-I 0 W/m 10,4 C 1,6 km/h (1 Bft)
18.06.2016 21:07 11,3 C 11,3 C 94 % 1018,7 hPa 0,0 mm 0,3 km/h (0 Bft) SW 232 0 min 0,000 mm 0,0 UV-I 0 W/m 10,4 C 1,6 km/h (1 Bft)
18.06.2016 21:08 11,3 C 11,3 C 94 % 1018,6 hPa 0,2 mm 0,1 km/h (0 Bft) SW 232 0 min 0,000 mm 0,0 UV-I 0 W/m 10,4 C 1,6 km/h (1 Bft)
18.06.2016 21:09 11,3 C 11,3 C 94 % 1018,7 hPa 0,0 mm 0,1 km/h (0 Bft) SW 232 0 min 0,000 mm 0,0 UV-I 0 W/m 10,4 C 1,6 km/h (1 Bft)
18.06.2016 21:10 11,3 C 11,3 C 94 % 1018,7 hPa 0,2 mm 0,0 km/h (0 Bft) SW 232 0 min 0,000 mm 0,0 UV-I 0 W/m 10,4 C 0,0 km/h (0 Bft)
18.06.2016 21:11 11,3 C 11,3 C 94 % 1018,8 hPa 0,0 mm 0,0 km/h (0 Bft) SW 232 0 min 0,000 mm 0,0 UV-I 0 W/m 10,4 C 0,0 km/h (0 Bft)
18.06.2016 21:12 11,3 C 11,3 C 94 % 1018,7 hPa 0,2 mm 0,0 km/h (0 Bft) SW 232 0 min 0,000 mm 0,0 UV-I 0 W/m 10,4 C 0,0 km/h (0 Bft)
18.06.2016 21:13 11,3 C 11,3 C 94 % 1018,7 hPa 0,0 mm 0,0 km/h (0 Bft) SW 232 0 min 0,000 mm 0,0 UV-I 0 W/m 10,4 C 0,0 km/h (0 Bft)
18.06.2016 21:14 11,3 C 11,3 C 94 % 1018,7 hPa 0,2 mm 0,0 km/h (0 Bft) SW 232 0 min 0,000 mm 0,0 UV-I 0 W/m 10,4 C 0,0 km/h (0 Bft)
18.06.2016 21:15 11,2 C 11,3 C 94 % 1018,8 hPa 0,0 mm 0,0 km/h (0 Bft) SW 232 0 min 0,000 mm 0,0 UV-I 0 W/m 10,3 C 0,0 km/h (0 Bft)
18.06.2016 21:16 11,2 C 11,2 C 94 % 1018,8 hPa 0,2 mm 0,0 km/h (0 Bft) SW 232 0 min 0,000 mm 0,0 UV-I 0 W/m 10,3 C 0,0 km/h (0 Bft)
18.06.2016 21:17 11,2 C 11,2 C 94 % 1018,8 hPa 0,0 mm 0,3 km/h (0 Bft) SW 232 0 min 0,000 mm 0,0 UV-I 0 W/m 10,3 C 1,6 km/h (1 Bft)
18.06.2016 21:18 11,2 C 11,2 C 94 % 1018,8 hPa 0,2 mm 1,3 km/h (1 Bft) SW 232 0 min 0,000 mm 0,0 UV-I 0 W/m 10,3 C 1,6 km/h (1 Bft)
18.06.2016 21:19 11,2 C 11,2 C 94 % 1018,8 hPa 0,0 mm 1,3 km/h (1 Bft) SW 232 0 min 0,000 mm 0,0 UV-I 0 W/m 10,3 C 1,6 km/h (1 Bft)
18.06.2016 21:20 11,2 C 11,2 C 94 % 1018,8 hPa 0,0 mm 1,2 km/h (1 Bft) SW 232 0 min 0,000 mm 0,0 UV-I 0 W/m 10,3 C 1,6 km/h (1 Bft)
18.06.2016 21:21 11,2 C 11,2 C 94 % 1018,8 hPa 0,2 mm 1,0 km/h (0 Bft) SW 232 0 min 0,000 mm 0,0 UV-I 0 W/m 10,3 C 1,6 km/h (1 Bft)
18.06.2016 21:22 11,1 C 11,2 C 94 % 1018,8 hPa 0,0 mm 0,9 km/h (0 Bft) SW 215 0 min 0,000 mm 0,0 UV-I 0 W/m 10,2 C 3,2 km/h (1 Bft)
18.06.2016 21:23 11,1 C 11,2 C 94 % 1018,8 hPa 0,2 mm 1,5 km/h (1 Bft) S-SW 192 0 min 0,000 mm 0,0 UV-I 0 W/m 10,2 C 3,2 km/h (1 Bft)
18.06.2016 21:24 11,1 C 11,2 C 94 % 1018,8 hPa 0,0 mm 1,3 km/h (1 Bft) S 190 0 min 0,000 mm 0,0 UV-I 0 W/m 10,2 C 3,2 km/h (1 Bft)
18.06.2016 21:25 11,2 C 11,2 C 94 % 1018,8 hPa 0,0 mm 2,1 km/h (1 Bft) S 185 0 min 0,000 mm 0,0 UV-I 0 W/m 10,3 C 3,2 km/h (1 Bft)
18.06.2016 21:26 11,2 C 11,2 C 94 % 1018,7 hPa 0,0 mm 1,4 km/h (1 Bft) S 183 0 min 0,000 mm 0,0 UV-I 0 W/m 10,3 C 3,2 km/h (1 Bft)
18.06.2016 21:27 11,1 C 11,2 C 94 % 1018,8 hPa 0,0 mm 2,1 km/h (1 Bft) S 182 0 min 0,000 mm 0,0 UV-I 0 W/m 10,2 C 3,2 km/h (1 Bft)
18.06.2016 21:28 11,1 C 11,1 C 94 % 1018,7 hPa 0,0 mm 1,7 km/h (1 Bft) S 182 0 min 0,000 mm 0,0 UV-I 0 W/m 10,2 C 3,2 km/h (1 Bft)
18.06.2016 21:29 11,1 C 11,1 C 94 % 1018,7 hPa 0,0 mm 1,3 km/h (1 Bft) S 182 0 min 0,000 mm 0,0 UV-I 0 W/m 10,2 C 3,2 km/h (1 Bft)
18.06.2016 21:30 11,1 C 11,1 C 94 % 1018,7 hPa 0,2 mm 1,2 km/h (1 Bft) S 182 0 min 0,000 mm 0,0 UV-I 0 W/m 10,2 C 1,6 km/h (1 Bft)
18.06.2016 21:31 11,1 C 11,1 C 94 % 1018,7 hPa 0,0 mm 1,7 km/h (1 Bft) S 182 0 min 0,000 mm 0,0 UV-I 0 W/m 10,2 C 3,2 km/h (1 Bft)
18.06.2016 21:32 11,0 C 11,1 C 94 % 1018,7 hPa 0,0 mm 1,7 km/h (1 Bft) S 182 0 min 0,000 mm 0,0 UV-I 0 W/m 10,1 C 3,2 km/h (1 Bft)
18.06.2016 21:33 11,0 C 11,0 C 94 % 1018,7 hPa 0,0 mm 1,7 km/h (1 Bft) S 181 0 min 0,000 mm 0,0 UV-I 0 W/m 10,1 C 3,2 km/h (1 Bft)
18.06.2016 21:34 11,0 C 11,0 C 94 % 1018,7 hPa 0,0 mm 2,4 km/h (1 Bft) S 180 0 min 0,000 mm 0,0 UV-I 0 W/m 10,1 C 3,2 km/h (1 Bft)
18.06.2016 21:35 10,9 C 11,0 C 95 % 1018,7 hPa 0,0 mm 2,3 km/h (1 Bft) S 178 0 min 0,000 mm 0,0 UV-I 0 W/m 10,1 C 3,2 km/h (1 Bft)
18.06.2016 21:36 10,9 C 11,0 C 95 % 1018,7 hPa 0,0 mm 2,3 km/h (1 Bft) S 178 0 min 0,000 mm 0,0 UV-I 0 W/m 10,1 C 3,2 km/h (1 Bft)
18.06.2016 21:37 10,9 C 10,9 C 95 % 1018,7 hPa 0,0 mm 2,1 km/h (1 Bft) S 178 0 min 0,000 mm 0,0 UV-I 0 W/m 10,1 C 3,2 km/h (1 Bft)
18.06.2016 21:38 10,9 C 10,9 C 95 % 1018,8 hPa 0,0 mm 1,6 km/h (1 Bft) S 178 0 min 0,000 mm 0,0 UV-I 0 W/m 10,1 C 3,2 km/h (1 Bft)
18.06.2016 21:39 10,9 C 10,9 C 95 % 1018,8 hPa 0,0 mm 1,7 km/h (1 Bft) S 178 0 min 0,000 mm 0,0 UV-I 0 W/m 10,1 C 3,2 km/h (1 Bft)
18.06.2016 21:40 10,9 C 10,9 C 95 % 1018,8 hPa 0,2 mm 1,7 km/h (1 Bft) S 178 0 min 0,000 mm 0,0 UV-I 0 W/m 10,1 C 3,2 km/h (1 Bft)
18.06.2016 21:41 10,9 C 10,9 C 95 % 1018,8 hPa 0,0 mm 1,7 km/h (1 Bft) S 178 0 min 0,000 mm 0,0 UV-I 0 W/m 10,1 C 3,2 km/h (1 Bft)
18.06.2016 21:42 10,9 C 10,9 C 95 % 1018,8 hPa 0,0 mm 1,6 km/h (1 Bft) S 178 0 min 0,000 mm 0,0 UV-I 0 W/m 10,1 C 3,2 km/h (1 Bft)
18.06.2016 21:43 10,8 C 10,9 C 94 % 1018,8 hPa 0,0 mm 1,7 km/h (1 Bft) S 178 0 min 0,000 mm 0,0 UV-I 0 W/m 9,9 C 3,2 km/h (1 Bft)
18.06.2016 21:44 10,8 C 10,8 C 94 % 1018,8 hPa 0,2 mm 1,7 km/h (1 Bft) S 178 0 min 0,000 mm 0,0 UV-I 0 W/m 9,9 C 3,2 km/h (1 Bft)
18.06.2016 21:45 10,8 C 10,8 C 94 % 1018,8 hPa 0,0 mm 2,2 km/h (1 Bft) S 178 0 min 0,000 mm 0,0 UV-I 0 W/m 9,9 C 3,2 km/h (1 Bft)
18.06.2016 21:46 10,8 C 10,8 C 94 % 1018,8 hPa 0,0 mm 2,1 km/h (1 Bft) S 178 0 min 0,000 mm 0,0 UV-I 0 W/m 9,9 C 3,2 km/h (1 Bft)
18.06.2016 21:47 10,8 C 10,8 C 94 % 1018,8 hPa 0,0 mm 2,4 km/h (1 Bft) S 178 0 min 0,000 mm 0,0 UV-I 0 W/m 9,9 C 3,2 km/h (1 Bft)
18.06.2016 21:48 10,7 C 10,8 C 94 % 1018,8 hPa 0,2 mm 2,8 km/h (1 Bft) S 177 0 min 0,000 mm 0,0 UV-I 0 W/m 9,8 C 3,2 km/h (1 Bft)
18.06.2016 21:49 10,7 C 10,7 C 94 % 1018,8 hPa 0,0 mm 2,9 km/h (1 Bft) S 175 0 min 0,000 mm 0,0 UV-I 0 W/m 9,8 C 3,2 km/h (1 Bft)
18.06.2016 21:50 10,6 C 10,7 C 94 % 1018,8 hPa 0,0 mm 3,2 km/h (1 Bft) S-SO 164 0 min 0,000 mm 0,0 UV-I 0 W/m 9,7 C 6,4 km/h (2 Bft)
18.06.2016 21:51 10,6 C 10,7 C 94 % 1018,7 hPa 0,0 mm 2,5 km/h (1 Bft) S-SO 164 0 min 0,000 mm 0,0 UV-I 0 W/m 9,7 C 3,2 km/h (1 Bft)
18.06.2016 21:52 10,6 C 10,6 C 94 % 1018,8 hPa 0,0 mm 1,5 km/h (1 Bft) S-SO 164 0 min 0,000 mm 0,0 UV-I 0 W/m 9,7 C 3,2 km/h (1 Bft)
18.06.2016 21:53 10,6 C 10,6 C 94 % 1018,8 hPa 0,0 mm 0,5 km/h (0 Bft) S-SO 164 0 min 0,000 mm 0,0 UV-I 0 W/m 9,7 C 1,6 km/h (1 Bft)
18.06.2016 21:54 10,5 C 10,6 C 94 % 1018,8 hPa 0,0 mm 0,2 km/h (0 Bft) S-SO 164 0 min 0,000 mm 0,0 UV-I 0 W/m 9,6 C 1,6 km/h (1 Bft)
18.06.2016 21:55 10,5 C 10,6 C 95 % 1018,8 hPa 0,0 mm 0,0 km/h (0 Bft) S-SO 164 0 min 0,000 mm 0,0 UV-I 0 W/m 9,7 C 0,0 km/h (0 Bft)
18.06.2016 21:56 10,5 C 10,5 C 95 % 1018,8 hPa 0,0 mm 0,0 km/h (0 Bft) S-SO 164 0 min 0,000 mm 0,0 UV-I 0 W/m 9,7 C 0,0 km/h (0 Bft)
18.06.2016 21:57 10,4 C 10,5 C 95 % 1018,8 hPa 0,0 mm 0,6 km/h (0 Bft) S-SO 164 0 min 0,000 mm 0,0 UV-I 0 W/m 9,6 C 1,6 km/h (1 Bft)
18.06.2016 21:58 10,4 C 10,4 C 95 % 1018,8 hPa 0,0 mm 0,4 km/h (0 Bft) S-SO 164 0 min 0,000 mm 0,0 UV-I 0 W/m 9,6 C 1,6 km/h (1 Bft)
18.06.2016 21:59 10,4 C 10,5 C 95 % 1018,8 hPa 0,2 mm 0,2 km/h (0 Bft) S-SO 164 0 min 0,000 mm 0,0 UV-I 0 W/m 9,6 C 1,6 km/h (1 Bft)
18.06.2016 22:00 10,4 C 10,5 C 95 % 1018,8 hPa 0,0 mm 0,1 km/h (0 Bft) S-SO 164 0 min 0,000 mm 0,0 UV-I 0 W/m 9,6 C 1,6 km/h (1 Bft)
18.06.2016 22:01 10,5 C 10,5 C 95 % 1018,8 hPa 0,0 mm 0,3 km/h (0 Bft) S-SO 164 0 min 0,000 mm 0,0 UV-I 0 W/m 9,7 C 1,6 km/h (1 Bft)
18.06.2016 22:02 10,5 C 10,5 C 96 % 1018,8 hPa 0,0 mm 0,0 km/h (0 Bft) S-SO 164 0 min 0,000 mm 0,0 UV-I 0 W/m 9,9 C 0,0 km/h (0 Bft)
18.06.2016 22:03 10,6 C 10,6 C 96 % 1018,8 hPa 0,0 mm 0,0 km/h (0 Bft) S-SO 164 0 min 0,000 mm 0,0 UV-I 0 W/m 10,0 C 0,0 km/h (0 Bft)
18.06.2016 22:04 10,6 C 10,6 C 96 % 1018,8 hPa 0,0 mm 0,4 km/h (0 Bft) S-SO 164 0 min 0,000 mm 0,0 UV-I 0 W/m 10,0 C 1,6 km/h (1 Bft)
18.06.2016 22:05 10,6 C 10,6 C 96 % 1018,8 hPa 0,0 mm 0,4 km/h (0 Bft) S-SO 164 0 min 0,000 mm 0,0 UV-I 0 W/m 10,0 C 1,6 km/h (1 Bft)
18.06.2016 22:06 10,6 C 10,6 C 96 % 1018,8 hPa 0,0 mm 0,4 km/h (0 Bft) S-SO 164 0 min 0,000 mm 0,0 UV-I 0 W/m 10,0 C 1,6 km/h (1 Bft)
18.06.2016 22:07 10,6 C 10,6 C 96 % 1018,8 hPa 0,0 mm 0,3 km/h (0 Bft) S-SO 164 0 min 0,000 mm 0,0 UV-I 0 W/m 10,0 C 1,6 km/h (1 Bft)
18.06.2016 22:08 10,6 C 10,6 C 96 % 1018,8 hPa 0,0 mm 0,0 km/h (0 Bft) S-SO 164 0 min 0,000 mm 0,0 UV-I 0 W/m 10,0 C 0,0 km/h (0 Bft)
18.06.2016 22:09 10,6 C 10,6 C 96 % 1018,8 hPa 0,0 mm 0,0 km/h (0 Bft) S-SO 164 0 min 0,000 mm 0,0 UV-I 0 W/m 10,0 C 0,0 km/h (0 Bft)
18.06.2016 22:10 10,6 C 10,6 C 96 % 1018,8 hPa 0,0 mm 0,3 km/h (0 Bft) S-SO 164 0 min 0,000 mm 0,0 UV-I 0 W/m 10,0 C 1,6 km/h (1 Bft)
18.06.2016 22:11 10,6 C 10,6 C 96 % 1018,8 hPa 0,0 mm 0,6 km/h (0 Bft) S-SO 164 0 min 0,000 mm 0,0 UV-I 0 W/m 10,0 C 1,6 km/h (1 Bft)
18.06.2016 22:12 10,6 C 10,6 C 96 % 1018,8 hPa 0,0 mm 0,0 km/h (0 Bft) S-SO 164 0 min 0,000 mm 0,0 UV-I 0 W/m 10,0 C 0,0 km/h (0 Bft)
18.06.2016 22:13 10,6 C 10,6 C 96 % 1018,8 hPa 0,0 mm 0,1 km/h (0 Bft) S-SO 164 0 min 0,000 mm 0,0 UV-I 0 W/m 10,0 C 1,6 km/h (1 Bft)
18.06.2016 22:14 10,6 C 10,6 C 96 % 1018,8 hPa 0,0 mm 0,5 km/h (0 Bft) S-SO 164 0 min 0,000 mm 0,0 UV-I 0 W/m 10,0 C 1,6 km/h (1 Bft)
18.06.2016 22:15 10,6 C 10,6 C 96 % 1018,8 hPa 0,0 mm 0,0 km/h (0 Bft) S-SO 164 0 min 0,000 mm 0,0 UV-I 0 W/m 10,0 C 0,0 km/h (0 Bft)
18.06.2016 22:16 10,6 C 10,6 C 96 % 1018,8 hPa 0,0 mm 0,1 km/h (0 Bft) S-SO 164 0 min 0,000 mm 0,0 UV-I 0 W/m 10,0 C 1,6 km/h (1 Bft)
18.06.2016 22:17 10,7 C 10,7 C 96 % 1018,8 hPa 0,0 mm 0,7 km/h (0 Bft) SO 140 0 min 0,000 mm 0,0 UV-I 0 W/m 10,1 C 1,6 km/h (1 Bft)
18.06.2016 22:18 10,7 C 10,7 C 96 % 1018,8 hPa 0,0 mm 1,7 km/h (1 Bft) W-SW 252 0 min 0,000 mm 0,0 UV-I 0 W/m 10,1 C 3,2 km/h (1 Bft)
18.06.2016 22:19 10,7 C 10,7 C 96 % 1018,8 hPa 0,0 mm 0,5 km/h (0 Bft) W-SW 252 0 min 0,000 mm 0,0 UV-I 0 W/m 10,1 C 1,6 km/h (1 Bft)
18.06.2016 22:20 10,7 C 10,7 C 96 % 1018,8 hPa 0,0 mm 0,3 km/h (0 Bft) W-SW 252 0 min 0,000 mm 0,0 UV-I 0 W/m 10,1 C 1,6 km/h (1 Bft)
18.06.2016 22:21 10,7 C 10,7 C 95 % 1018,8 hPa 0,0 mm 0,1 km/h (0 Bft) W-SW 252 0 min 0,000 mm 0,0 UV-I 0 W/m 9,9 C 1,6 km/h (1 Bft)
18.06.2016 22:22 10,7 C 10,7 C 95 % 1018,8 hPa 0,0 mm 2,1 km/h (1 Bft) W-SW 242 0 min 0,000 mm 0,0 UV-I 0 W/m 9,9 C 3,2 km/h (1 Bft)
18.06.2016 22:23 10,7 C 10,7 C 95 % 1018,8 hPa 0,0 mm 1,8 km/h (1 Bft) W-SW 250 0 min 0,000 mm 0,0 UV-I 0 W/m 9,9 C 3,2 km/h (1 Bft)
18.06.2016 22:24 10,7 C 10,7 C 95 % 1018,8 hPa 0,0 mm 1,8 km/h (1 Bft) W-SW 250 0 min 0,000 mm 0,0 UV-I 0 W/m 9,9 C 3,2 km/h (1 Bft)
18.06.2016 22:25 10,7 C 10,7 C 95 % 1018,8 hPa 0,0 mm 1,5 km/h (1 Bft) W-SW 250 0 min 0,000 mm 0,0 UV-I 0 W/m 9,9 C 3,2 km/h (1 Bft)
18.06.2016 22:26 10,7 C 10,7 C 95 % 1018,8 hPa 0,0 mm 1,1 km/h (1 Bft) W-SW 250 0 min 0,000 mm 0,0 UV-I 0 W/m 9,9 C 1,6 km/h (1 Bft)
18.06.2016 22:27 10,7 C 10,7 C 95 % 1018,8 hPa 0,0 mm 1,0 km/h (0 Bft) W-SW 248 0 min 0,000 mm 0,0 UV-I 0 W/m 9,9 C 1,6 km/h (1 Bft)
18.06.2016 22:28 10,7 C 10,7 C 95 % 1018,8 hPa 0,0 mm 1,3 km/h (1 Bft) W-SW 248 0 min 0,000 mm 0,0 UV-I 0 W/m 9,9 C 3,2 km/h (1 Bft)
18.06.2016 22:29 10,7 C 10,7 C 95 % 1018,8 hPa 0,0 mm 0,3 km/h (0 Bft) W-SW 248 0 min 0,000 mm 0,0 UV-I 0 W/m 9,9 C 1,6 km/h (1 Bft)
18.06.2016 22:30 10,6 C 10,7 C 95 % 1018,7 hPa 0,0 mm 0,0 km/h (0 Bft) W-SW 248 0 min 0,000 mm 0,0 UV-I 0 W/m 9,8 C 0,0 km/h (0 Bft)
18.06.2016 22:31 10,6 C 10,6 C 95 % 1018,7 hPa 0,0 mm 0,9 km/h (0 Bft) W-SW 248 0 min 0,000 mm 0,0 UV-I 0 W/m 9,8 C 1,6 km/h (1 Bft)
18.06.2016 22:32 10,6 C 10,7 C 95 % 1018,7 hPa 0,0 mm 0,1 km/h (0 Bft) W-SW 248 0 min 0,000 mm 0,0 UV-I 0 W/m 9,8 C 1,6 km/h (1 Bft)
18.06.2016 22:33 10,6 C 10,6 C 95 % 1018,7 hPa 0,0 mm 0,0 km/h (0 Bft) W-SW 248 0 min 0,000 mm 0,0 UV-I 0 W/m 9,8 C 0,0 km/h (0 Bft)
18.06.2016 22:34 10,6 C 10,6 C 95 % 1018,7 hPa 0,0 mm 0,0 km/h (0 Bft) W-SW 248 0 min 0,000 mm 0,0 UV-I 0 W/m 9,8 C 0,0 km/h (0 Bft)
18.06.2016 22:35 10,6 C 10,6 C 95 % 1018,7 hPa 0,0 mm 0,0 km/h (0 Bft) W-SW 248 0 min 0,000 mm 0,0 UV-I 0 W/m 9,8 C 0,0 km/h (0 Bft)
18.06.2016 22:36 10,6 C 10,6 C 95 % 1018,7 hPa 0,0 mm 0,0 km/h (0 Bft) W-SW 248 0 min 0,000 mm 0,0 UV-I 0 W/m 9,8 C 0,0 km/h (0 Bft)
18.06.2016 22:37 10,5 C 10,6 C 95 % 1018,7 hPa 0,0 mm 0,1 km/h (0 Bft) W-SW 248 0 min 0,000 mm 0,0 UV-I 0 W/m 9,7 C 1,6 km/h (1 Bft)
18.06.2016 22:38 10,5 C 10,5 C 95 % 1018,7 hPa 0,0 mm 0,3 km/h (0 Bft) W-SW 248 0 min 0,000 mm 0,0 UV-I 0 W/m 9,7 C 1,6 km/h (1 Bft)
18.06.2016 22:39 10,5 C 10,5 C 95 % 1018,7 hPa 0,0 mm 1,0 km/h (0 Bft) N-NW 332 0 min 0,000 mm 0,0 UV-I 0 W/m 9,7 C 1,6 km/h (1 Bft)
18.06.2016 22:40 10,4 C 10,5 C 95 % 1018,8 hPa 0,0 mm 0,7 km/h (0 Bft) S-SO 153 0 min 0,000 mm 0,0 UV-I 0 W/m 9,6 C 1,6 km/h (1 Bft)
18.06.2016 22:41 10,4 C 10,4 C 95 % 1018,8 hPa 0,0 mm 1,0 km/h (0 Bft) S-SO 156 0 min 0,000 mm 0,0 UV-I 0 W/m 9,6 C 1,6 km/h (1 Bft)
18.06.2016 22:42 10,4 C 10,5 C 95 % 1018,8 hPa 0,0 mm 0,7 km/h (0 Bft) S-SO 157 0 min 0,000 mm 0,0 UV-I 0 W/m 9,6 C 1,6 km/h (1 Bft)
18.06.2016 22:43 10,4 C 10,4 C 95 % 1018,7 hPa 0,0 mm 1,1 km/h (1 Bft) W-NW 296 0 min 0,000 mm 0,0 UV-I 0 W/m 9,6 C 3,2 km/h (1 Bft)
18.06.2016 22:44 10,4 C 10,4 C 95 % 1018,8 hPa 0,0 mm 0,5 km/h (0 Bft) W-NW 296 0 min 0,000 mm 0,0 UV-I 0 W/m 9,6 C 1,6 km/h (1 Bft)
18.06.2016 22:45 10,4 C 10,4 C 95 % 1018,8 hPa 0,0 mm 0,1 km/h (0 Bft) W-NW 298 0 min 0,000 mm 0,0 UV-I 0 W/m 9,6 C 1,6 km/h (1 Bft)
18.06.2016 22:46 10,4 C 10,4 C 96 % 1018,8 hPa 0,0 mm 1,3 km/h (1 Bft) N-NW 328 0 min 0,000 mm 0,0 UV-I 0 W/m 9,8 C 3,2 km/h (1 Bft)
18.06.2016 22:47 10,5 C 10,5 C 95 % 1018,8 hPa 0,0 mm 1,5 km/h (1 Bft) NO 48 0 min 0,000 mm 0,0 UV-I 0 W/m 9,7 C 3,2 km/h (1 Bft)
18.06.2016 22:48 10,5 C 10,5 C 96 % 1018,7 hPa 0,0 mm 1,5 km/h (1 Bft) SO 146 0 min 0,000 mm 0,0 UV-I 0 W/m 9,9 C 3,2 km/h (1 Bft)
18.06.2016 22:49 10,5 C 10,5 C 96 % 1018,8 hPa 0,0 mm 0,5 km/h (0 Bft) O 98 0 min 0,000 mm 0,0 UV-I 0 W/m 9,9 C 1,6 km/h (1 Bft)
18.06.2016 22:50 10,5 C 10,6 C 96 % 1018,7 hPa 0,0 mm 0,1 km/h (0 Bft) O 98 0 min 0,000 mm 0,0 UV-I 0 W/m 9,9 C 1,6 km/h (1 Bft)
18.06.2016 22:51 10,5 C 10,5 C 96 % 1018,7 hPa 0,0 mm 0,5 km/h (0 Bft) O 98 0 min 0,000 mm 0,0 UV-I 0 W/m 9,9 C 1,6 km/h (1 Bft)
18.06.2016 22:52 10,5 C 10,5 C 96 % 1018,7 hPa 0,0 mm 0,6 km/h (0 Bft) O 98 0 min 0,000 mm 0,0 UV-I 0 W/m 9,9 C 1,6 km/h (1 Bft)
18.06.2016 22:53 10,6 C 10,6 C 96 % 1018,7 hPa 0,0 mm 0,9 km/h (0 Bft) O 98 0 min 0,000 mm 0,0 UV-I 0 W/m 10,0 C 1,6 km/h (1 Bft)
18.06.2016 22:54 10,6 C 10,6 C 96 % 1018,7 hPa 0,0 mm 2,3 km/h (1 Bft) W 270 0 min 0,000 mm 0,0 UV-I 0 W/m 10,0 C 3,2 km/h (1 Bft)
18.06.2016 22:55 10,6 C 10,6 C 96 % 1018,7 hPa 0,0 mm 2,0 km/h (1 Bft) S 169 0 min 0,000 mm 0,0 UV-I 0 W/m 10,0 C 3,2 km/h (1 Bft)
18.06.2016 22:56 10,6 C 10,6 C 96 % 1018,8 hPa 0,0 mm 0,2 km/h (0 Bft) S 169 0 min 0,000 mm 0,0 UV-I 0 W/m 10,0 C 1,6 km/h (1 Bft)
18.06.2016 22:57 10,6 C 10,6 C 96 % 1018,8 hPa 0,0 mm 1,1 km/h (1 Bft) NO 43 0 min 0,000 mm 0,0 UV-I 0 W/m 10,0 C 3,2 km/h (1 Bft)
18.06.2016 22:58 10,6 C 10,6 C 96 % 1018,8 hPa 0,0 mm 1,3 km/h (1 Bft) NO 43 0 min 0,000 mm 0,0 UV-I 0 W/m 10,0 C 3,2 km/h (1 Bft)
18.06.2016 22:59 10,6 C 10,7 C 96 % 1018,7 hPa 0,0 mm 0,5 km/h (0 Bft) NO 43 0 min 0,000 mm 0,0 UV-I 0 W/m 10,0 C 1,6 km/h (1 Bft)
18.06.2016 23:00 10,7 C 10,7 C 96 % 1018,7 hPa 0,0 mm 0,6 km/h (0 Bft) N 360 0 min 0,000 mm 0,0 UV-I 0 W/m 10,1 C 1,6 km/h (1 Bft)
18.06.2016 23:01 10,7 C 10,7 C 96 % 1018,8 hPa 0,0 mm 1,7 km/h (1 Bft) SW 235 0 min 0,000 mm 0,0 UV-I 0 W/m 10,1 C 3,2 km/h (1 Bft)
18.06.2016 23:02 10,7 C 10,7 C 96 % 1018,7 hPa 0,0 mm 1,5 km/h (1 Bft) S-SW 211 0 min 0,000 mm 0,0 UV-I 0 W/m 10,1 C 3,2 km/h (1 Bft)
18.06.2016 23:03 10,7 C 10,7 C 95 % 1018,8 hPa 0,0 mm 0,5 km/h (0 Bft) S-SW 211 0 min 0,000 mm 0,0 UV-I 0 W/m 9,9 C 1,6 km/h (1 Bft)
18.06.2016 23:04 10,7 C 10,7 C 95 % 1018,7 hPa 0,0 mm 0,4 km/h (0 Bft) S-SW 212 0 min 0,000 mm 0,0 UV-I 0 W/m 9,9 C 1,6 km/h (1 Bft)
18.06.2016 23:05 10,7 C 10,7 C 95 % 1018,7 hPa 0,0 mm 0,3 km/h (0 Bft) S-SW 212 0 min 0,000 mm 0,0 UV-I 0 W/m 9,9 C 1,6 km/h (1 Bft)
18.06.2016 23:06 10,7 C 10,7 C 95 % 1018,7 hPa 0,0 mm 0,5 km/h (0 Bft) SO 141 0 min 0,000 mm 0,0 UV-I 0 W/m 9,9 C 1,6 km/h (1 Bft)
18.06.2016 23:07 10,7 C 10,7 C 95 % 1018,7 hPa 0,0 mm 0,6 km/h (0 Bft) O-SO 107 0 min 0,000 mm 0,0 UV-I 0 W/m 9,9 C 1,6 km/h (1 Bft)
18.06.2016 23:08 10,7 C 10,7 C 95 % 1018,7 hPa 0,0 mm 1,5 km/h (1 Bft) N-NW 338 0 min 0,000 mm 0,0 UV-I 0 W/m 9,9 C 3,2 km/h (1 Bft)
18.06.2016 23:09 10,7 C 10,7 C 95 % 1018,7 hPa 0,0 mm 1,2 km/h (1 Bft) N-NW 338 0 min 0,000 mm 0,0 UV-I 0 W/m 9,9 C 3,2 km/h (1 Bft)
18.06.2016 23:10 10,7 C 10,7 C 95 % 1018,7 hPa 0,0 mm 0,5 km/h (0 Bft) N-NW 338 0 min 0,000 mm 0,0 UV-I 0 W/m 9,9 C 1,6 km/h (1 Bft)
18.06.2016 23:11 10,7 C 10,7 C 95 % 1018,7 hPa 0,0 mm 0,5 km/h (0 Bft) N-NW 338 0 min 0,000 mm 0,0 UV-I 0 W/m 9,9 C 1,6 km/h (1 Bft)
18.06.2016 23:12 10,7 C 10,7 C 95 % 1018,7 hPa 0,0 mm 0,7 km/h (0 Bft) N-NW 338 0 min 0,000 mm 0,0 UV-I 0 W/m 9,9 C 1,6 km/h (1 Bft)
18.06.2016 23:13 10,7 C 10,7 C 95 % 1018,7 hPa 0,0 mm 0,4 km/h (0 Bft) NO 52 0 min 0,000 mm 0,0 UV-I 0 W/m 9,9 C 1,6 km/h (1 Bft)
18.06.2016 23:14 10,7 C 10,7 C 95 % 1018,7 hPa 0,0 mm 0,9 km/h (0 Bft) NO 52 0 min 0,000 mm 0,0 UV-I 0 W/m 9,9 C 1,6 km/h (1 Bft)
18.06.2016 23:15 10,7 C 10,7 C 95 % 1018,7 hPa 0,0 mm 0,7 km/h (0 Bft) NO 51 0 min 0,000 mm 0,0 UV-I 0 W/m 9,9 C 1,6 km/h (1 Bft)
18.06.2016 23:16 10,7 C 10,7 C 95 % 1018,7 hPa 0,0 mm 1,1 km/h (1 Bft) NW 313 0 min 0,000 mm 0,0 UV-I 0 W/m 9,9 C 3,2 km/h (1 Bft)
18.06.2016 23:17 10,7 C 10,7 C 95 % 1018,7 hPa 0,0 mm 0,9 km/h (0 Bft) NW 313 0 min 0,000 mm 0,0 UV-I 0 W/m 9,9 C 1,6 km/h (1 Bft)
18.06.2016 23:18 10,7 C 10,7 C 95 % 1018,8 hPa 0,0 mm 1,0 km/h (0 Bft) NW 313 0 min 0,000 mm 0,0 UV-I 0 W/m 9,9 C 1,6 km/h (1 Bft)
18.06.2016 23:19 10,7 C 10,7 C 95 % 1018,8 hPa 0,0 mm 0,1 km/h (0 Bft) NW 313 0 min 0,000 mm 0,0 UV-I 0 W/m 9,9 C 1,6 km/h (1 Bft)
18.06.2016 23:20 10,7 C 10,7 C 95 % 1018,7 hPa 0,0 mm 0,3 km/h (0 Bft) NW 313 0 min 0,000 mm 0,0 UV-I 0 W/m 9,9 C 1,6 km/h (1 Bft)
18.06.2016 23:21 10,6 C 10,7 C 95 % 1018,8 hPa 0,0 mm 0,2 km/h (0 Bft) NW 313 0 min 0,000 mm 0,0 UV-I 0 W/m 9,8 C 1,6 km/h (1 Bft)
18.06.2016 23:22 10,6 C 10,6 C 95 % 1018,8 hPa 0,0 mm 0,5 km/h (0 Bft) NW 313 0 min 0,000 mm 0,0 UV-I 0 W/m 9,8 C 1,6 km/h (1 Bft)
18.06.2016 23:23 10,6 C 10,6 C 95 % 1018,8 hPa 0,0 mm 0,0 km/h (0 Bft) NW 315 0 min 0,000 mm 0,0 UV-I 0 W/m 9,8 C 1,6 km/h (1 Bft)
18.06.2016 23:25 10,6 C 10,6 C 95 % 1018,8 hPa 0,0 mm 0,0 km/h (0 Bft) NW 313 0 min 0,000 mm 0,0 UV-I 0 W/m 9,8 C 0,0 km/h (0 Bft)
18.06.2016 23:26 10,6 C 10,6 C 95 % 1018,8 hPa 0,0 mm 0,1 km/h (0 Bft) NW 313 0 min 0,000 mm 0,0 UV-I 0 W/m 9,8 C 1,6 km/h (1 Bft)
18.06.2016 23:27 10,6 C 10,6 C 95 % 1018,8 hPa 0,0 mm 0,3 km/h (0 Bft) NW 313 0 min 0,000 mm 0,0 UV-I 0 W/m 9,8 C 1,6 km/h (1 Bft)
18.06.2016 23:28 10,5 C 10,6 C 96 % 1018,8 hPa 0,0 mm 0,1 km/h (0 Bft) NW 313 0 min 0,000 mm 0,0 UV-I 0 W/m 9,9 C 1,6 km/h (1 Bft)
18.06.2016 23:29 10,5 C 10,6 C 96 % 1018,8 hPa 0,0 mm 0,0 km/h (0 Bft) NW 313 0 min 0,000 mm 0,0 UV-I 0 W/m 9,9 C 0,0 km/h (0 Bft)
18.06.2016 23:30 10,5 C 10,5 C 96 % 1018,8 hPa 0,0 mm 0,0 km/h (0 Bft) NW 313 0 min 0,000 mm 0,0 UV-I 0 W/m 9,9 C 0,0 km/h (0 Bft)
18.06.2016 23:31 10,5 C 10,5 C 96 % 1018,8 hPa 0,0 mm 1,0 km/h (0 Bft) S-SO 164 0 min 0,000 mm 0,0 UV-I 0 W/m 9,9 C 3,2 km/h (1 Bft)
18.06.2016 23:32 10,5 C 10,5 C 96 % 1018,8 hPa 0,0 mm 0,7 km/h (0 Bft) S-SO 164 0 min 0,000 mm 0,0 UV-I 0 W/m 9,9 C 3,2 km/h (1 Bft)
18.06.2016 23:33 10,6 C 10,6 C 96 % 1018,8 hPa 0,0 mm 0,1 km/h (0 Bft) S-SO 164 0 min 0,000 mm 0,0 UV-I 0 W/m 10,0 C 1,6 km/h (1 Bft)
18.06.2016 23:34 10,5 C 10,6 C 96 % 1018,8 hPa 0,0 mm 0,4 km/h (0 Bft) S-SO 164 0 min 0,000 mm 0,0 UV-I 0 W/m 9,9 C 1,6 km/h (1 Bft)
18.06.2016 23:35 10,5 C 10,5 C 96 % 1018,8 hPa 0,0 mm 1,0 km/h (0 Bft) S-SO 164 0 min 0,000 mm 0,0 UV-I 0 W/m 9,9 C 1,6 km/h (1 Bft)
18.06.2016 23:36 10,5 C 10,5 C 96 % 1018,8 hPa 0,0 mm 0,5 km/h (0 Bft) S-SO 164 0 min 0,000 mm 0,0 UV-I 0 W/m 9,9 C 1,6 km/h (1 Bft)
18.06.2016 23:37 10,4 C 10,5 C 96 % 1018,8 hPa 0,0 mm 0,6 km/h (0 Bft) S-SO 164 0 min 0,000 mm 0,0 UV-I 0 W/m 9,8 C 1,6 km/h (1 Bft)
18.06.2016 23:38 10,4 C 10,5 C 96 % 1018,8 hPa 0,0 mm 0,0 km/h (0 Bft) S-SO 164 0 min 0,000 mm 0,0 UV-I 0 W/m 9,8 C 0,0 km/h (0 Bft)
18.06.2016 23:39 10,4 C 10,5 C 96 % 1018,8 hPa 0,0 mm 0,1 km/h (0 Bft) S-SO 164 0 min 0,000 mm 0,0 UV-I 0 W/m 9,8 C 1,6 km/h (1 Bft)
18.06.2016 23:40 10,4 C 10,5 C 96 % 1018,8 hPa 0,0 mm 0,0 km/h (0 Bft) S-SO 164 0 min 0,000 mm 0,0 UV-I 0 W/m 9,8 C 0,0 km/h (0 Bft)
18.06.2016 23:41 10,4 C 10,5 C 96 % 1018,8 hPa 0,0 mm 0,1 km/h (0 Bft) S-SO 164 0 min 0,000 mm 0,0 UV-I 0 W/m 9,8 C 1,6 km/h (1 Bft)
18.06.2016 23:42 10,4 C 10,4 C 96 % 1018,8 hPa 0,0 mm 0,7 km/h (0 Bft) S-SO 164 0 min 0,000 mm 0,0 UV-I 0 W/m 9,8 C 1,6 km/h (1 Bft)
18.06.2016 23:43 10,4 C 10,5 C 96 % 1018,9 hPa 0,0 mm 1,0 km/h (0 Bft) S-SW 198 0 min 0,000 mm 0,0 UV-I 0 W/m 9,8 C 1,6 km/h (1 Bft)
18.06.2016 23:44 10,5 C 10,5 C 96 % 1018,8 hPa 0,0 mm 2,3 km/h (1 Bft) W 279 0 min 0,000 mm 0,0 UV-I 0 W/m 9,9 C 4,8 km/h (1 Bft)
18.06.2016 23:45 10,6 C 10,6 C 96 % 1018,9 hPa 0,0 mm 3,0 km/h (1 Bft) W-NW 288 0 min 0,000 mm 0,0 UV-I 0 W/m 10,0 C 4,8 km/h (1 Bft)
18.06.2016 23:46 10,6 C 10,6 C 96 % 1019,0 hPa 0,0 mm 3,1 km/h (1 Bft) W 270 0 min 0,000 mm 0,0 UV-I 0 W/m 10,0 C 4,8 km/h (1 Bft)
18.06.2016 23:47 10,6 C 10,6 C 95 % 1019,0 hPa 0,0 mm 2,8 km/h (1 Bft) W-NW 284 0 min 0,000 mm 0,0 UV-I 0 W/m 9,8 C 4,8 km/h (1 Bft)
18.06.2016 23:48 10,7 C 10,7 C 95 % 1019,1 hPa 0,0 mm 2,3 km/h (1 Bft) W-NW 288 0 min 0,000 mm 0,0 UV-I 0 W/m 9,9 C 3,2 km/h (1 Bft)
18.06.2016 23:49 10,7 C 10,7 C 95 % 1019,1 hPa 0,0 mm 3,1 km/h (1 Bft) NW 306 0 min 0,000 mm 0,0 UV-I 0 W/m 9,9 C 4,8 km/h (1 Bft)
18.06.2016 23:50 10,7 C 10,7 C 95 % 1019,1 hPa 0,0 mm 3,1 km/h (1 Bft) W-NW 303 0 min 0,000 mm 0,0 UV-I 0 W/m 9,9 C 6,4 km/h (2 Bft)
18.06.2016 23:51 10,7 C 10,7 C 95 % 1019,1 hPa 0,0 mm 4,2 km/h (1 Bft) W-SW 247 0 min 0,000 mm 0,0 UV-I 0 W/m 9,9 C 6,4 km/h (2 Bft)
18.06.2016 23:52 10,7 C 10,7 C 95 % 1019,1 hPa 0,0 mm 2,2 km/h (1 Bft) W-SW 257 0 min 0,000 mm 0,0 UV-I 0 W/m 9,9 C 3,2 km/h (1 Bft)
18.06.2016 23:53 10,7 C 10,7 C 95 % 1019,1 hPa 0,0 mm 3,6 km/h (1 Bft) W-SW 254 0 min 0,000 mm 0,0 UV-I 0 W/m 9,9 C 4,8 km/h (1 Bft)
18.06.2016 23:54 10,7 C 10,7 C 95 % 1019,1 hPa 0,0 mm 1,5 km/h (1 Bft) W-SW 254 0 min 0,000 mm 0,0 UV-I 0 W/m 9,9 C 3,2 km/h (1 Bft)
18.06.2016 23:55 10,7 C 10,7 C 95 % 1019,1 hPa 0,0 mm 1,0 km/h (0 Bft) W-SW 251 0 min 0,000 mm 0,0 UV-I 0 W/m 9,9 C 1,6 km/h (1 Bft)
18.06.2016 23:56 10,7 C 10,7 C 95 % 1019,1 hPa 0,0 mm 1,9 km/h (1 Bft) W-SW 254 0 min 0,000 mm 0,0 UV-I 0 W/m 9,9 C 3,2 km/h (1 Bft)
18.06.2016 23:57 10,7 C 10,7 C 95 % 1019,1 hPa 0,0 mm 2,4 km/h (1 Bft) W-SW 255 0 min 0,000 mm 0,0 UV-I 0 W/m 9,9 C 3,2 km/h (1 Bft)
18.06.2016 23:58 10,7 C 10,7 C 95 % 1019,1 hPa 0,0 mm 3,3 km/h (1 Bft) W 273 0 min 0,000 mm 0,0 UV-I 0 W/m 9,9 C 4,8 km/h (1 Bft)
18.06.2016 23:59 10,7 C 10,7 C 95 % 1019,2 hPa 0,0 mm 2,5 km/h (1 Bft) W-NW 283 0 min 0,000 mm 0,0 UV-I 0 W/m 9,9 C 4,8 km/h (1 Bft)
_ Min-Zeit 00:06 04:09 15:34 17:08 - 23:40 - - - - - - 00:11 23:40
Minimum _ 0,0 C 8,3 C 51 % 1015,8 hPa - 0,0 km/h (0 Bft) - - - - - - 5,8 C 0,0 km/h (0 Bft)
_ Max-Zeit 15:21 15:31 23:46 23:59 17:25 13:46 - - 13:46 14:00 13:54 13:58 13:37 19:29
Maximum _ 17,9 C 17,9 C 96 % 1019,2 hPa 0,8 mm 23,8 km/h
O-NO (4 Bft)
- - 5 min 0,381 mm 7,2 UV-I 1074 W/m 11,7 C 32,8 km/h
W-SW (5 Bft)
Durchschnitt _ 12,5 C 12,5 C 81 % 1017,2 hPa #15,6 mm 3,0 km/h (1 Bft) S - #1:14 h #1,778 mm 2,3 UV-I 130 W/m 9,1 C 6,3 km/h (2 Bft)